[[{"header":{"parameterUnit":"m.s-1","parameterCategory":1,"la1":30.6,"la2":28.766,"lo1":-90.7593,"lo2":-88.6598,"dy":0.0162,"dx":0.0183,"nx":116,"ny":114,"refTime":"2023-05-09T00:00:00:Z","depth":0,"parameterNumber":2,"parameterNumberName":"U-component_of_WINDS"},"data":[0.0,0.0,0.0,0.0,0.0,0.0,0.0,0.0,0.0,0.0,0.0,0.0,0.0,0.0,0.0,0.0,0.0,0.0,0.0,0.0,0.0,0.0,0.0,0.0,0.0,0.0,0.0,0.0,0.0,0.0,0.0,0.0,0.0,0.0,0.0,0.0,0.0,0.0,0.0,0.0,0.0,0.0,0.0,0.0,0.0,0.0,0.0,0.0,0.0,0.0,0.0,0.0,0.0,0.0,0.0,0.0,0.0,0.0,0.0,0.0,0.0,0.0,0.0,0.0,0.0,0.0,0.0,0.0,0.0,0.0,0.0,0.0,0.0,0.0,0.0,0.0,0.0,0.0,0.0,0.0,0.0,0.0,0.0,0.0,0.0,0.0,0.0,0.0,0.0,0.0,0.0,0.0,0.0,0.0,0.0,0.0,0.0,0.0,0.0,0.0,0.0,0.0,0.0,0.0,0.0,0.0,0.0,0.0,0.0,0.0,0.0,0.0,0.0,0.0,0.0,0.0,0.0,0.0,0.0,0.0,0.0,0.0,0.0,0.0,0.0,0.0,0.0,0.0,0.0,0.0,0.0,0.0,0.0,0.0,0.0,0.0,0.0,0.0,0.0,0.0,0.0,0.0,0.0,0.0,0.0,0.0,0.0,0.0,0.0,0.0,0.0,0.0,0.0,0.0,0.0,0.0,0.0,0.0,0.0,0.0,0.0,0.0,0.0,0.0,0.0,0.0,0.0,0.0,0.0,0.0,0.0,0.0,0.0,0.0,0.0,0.0,0.0,0.0,0.0,0.0,0.0,0.0,0.0,0.0,0.0,0.0,0.0,0.0,0.0,0.0,0.0,0.0,0.0,0.0,0.0,0.0,0.0,0.0,0.0,0.0,0.0,0.0,0.0,0.0,0.0,0.0,0.0,0.0,0.0,0.0,0.0,0.0,0.0,0.0,0.0,0.0,0.0,0.0,0.0,0.0,0.0,0.0,0.0,0.0,0.0,0.0,0.0,0.0,0.0,0.0,0.0,0.0,0.0,0.0,0.0,0.0,0.0,0.0,0.0,0.0,0.0,0.0,0.0,0.0,0.0,0.0,0.0,0.0,0.0,0.0,0.0,0.0,0.0,0.0,0.0,0.0,0.0,0.0,0.0,0.0,0.0,0.0,0.0,0.0,0.0,0.0,0.0,0.0,0.0,0.0,0.0,0.0,0.0,0.0,0.0,0.0,0.0,0.0,0.0,0.0,0.0,0.0,0.0,0.0,0.0,0.0,0.0,0.0,0.0,0.0,0.0,0.0,0.0,0.0,0.0,0.0,0.0,0.0,0.0,0.0,0.0,0.0,0.0,0.0,0.0,0.0,0.0,0.0,0.0,0.0,0.0,0.0,0.0,0.0,0.0,0.0,0.0,0.0,0.0,0.0,0.0,0.0,0.0,0.0,0.0,0.0,0.0,0.0,0.0,0.0,0.0,0.0,0.0,0.0,0.0,0.0,0.0,0.0,0.0,0.0,0.0,0.0,0.0,0.0,0.0,0.0,0.0,0.0,0.0,0.0,0.0,0.0,0.0,0.0,0.0,0.0,0.0,0.0,0.0,0.0,0.0,0.0,0.0,0.0,0.0,0.0,0.0,0.0,0.0,0.0,0.0,0.0,0.0,0.0,0.0,0.0,0.0,0.0,0.0,0.0,0.0,0.0,0.0,0.0,0.0,0.0,0.0,0.0,0.0,0.0,0.0,0.0,0.0,0.0,0.0,0.0,0.0,0.0,0.0,0.0,0.0,0.0,0.0,0.0,0.0,0.0,0.0,0.0,0.0,0.0,0.0,0.0,0.0,0.0,0.0,0.0,0.0,0.0,0.0,0.0,0.0,0.0,0.0,0.0,0.0,0.0,0.0,0.0,0.0,0.0,0.0,0.0,0.0,0.0,0.0,0.0,0.0,0.0,0.0,0.0,0.0,0.0,0.0,0.0,0.0,0.0,0.0,0.0,0.0,0.0,0.0,0.0,0.0,0.0,0.0,0.0,0.0,0.0,0.0,0.0,0.0,0.0,0.0,0.0,0.0,0.0,0.0,0.0,0.0,0.0,0.0,0.0,0.0,0.0,0.0,0.0,0.0,0.0,0.0,0.0,0.0,0.0,0.0,0.0,0.0,0.0,0.0,0.0,0.0,0.0,0.0,0.0,0.0,0.0,0.0,0.0,0.0,0.0,0.0,0.0,0.0,0.0,0.0,0.0,0.0,0.0,0.0,0.0,0.0,0.0,0.0,0.0,0.0,0.0,0.0,0.0,0.0,0.0,0.0,0.0,0.0,0.0,0.0,0.0,0.0,0.0,0.0,0.0,0.0,0.0,0.0,0.0,0.0,0.0,0.0,0.0,0.0,0.0,0.0,0.0,0.0,0.0,0.0,0.0,0.0,0.0,0.0,0.0,0.0,0.0,0.0,0.0,0.0,0.0,0.0,0.0,0.0,0.0,0.0,0.0,0.0,0.0,0.0,0.0,0.0,0.0,0.0,0.0,0.0,0.0,0.0,0.0,0.0,0.0,0.0,0.0,0.0,0.0,0.0,0.0,0.0,0.0,0.0,0.0,0.0,0.0,0.0,0.0,0.0,0.0,0.0,0.0,0.0,0.0,0.0,0.0,0.0,0.0,0.0,0.0,0.0,0.0,0.0,0.0,0.0,0.0,0.0,0.0,0.0,0.0,0.0,0.0,0.0,0.0,0.0,0.0,0.0,0.0,0.0,0.0,0.0,0.0,0.0,0.0,0.0,0.0,0.0,0.0,0.0,0.0,0.0,0.0,0.0,0.0,0.0,0.0,0.0,0.0,0.0,0.0,0.0,0.0,0.0,0.0,0.0,0.0,0.0,0.0,0.0,0.0,0.0,0.0,0.0,0.0,0.0,0.0,0.0,0.0,0.0,0.0,0.0,0.0,0.0,0.0,0.0,0.0,0.0,0.0,0.0,0.0,0.0,0.0,0.0,0.0,0.0,0.0,0.0,0.0,0.0,0.0,0.0,0.0,0.0,0.0,0.0,0.0,0.0,0.0,0.0,0.0,0.0,0.0,0.0,0.0,0.0,0.0,0.0,0.0,0.0,0.0,0.0,0.0,0.0,0.0,0.0,0.0,0.0,0.0,0.0,0.0,0.0,0.0,0.0,0.0,0.0,0.0,0.0,0.0,0.0,0.0,0.0,0.0,0.0,0.0,0.0,0.0,0.0,0.0,0.0,0.0,0.0,0.0,0.0,0.0,0.0,0.0,0.0,0.0,0.0,0.0,0.0,0.0,0.0,0.0,0.0,0.0,0.0,0.0,0.0,0.0,0.0,0.0,0.0,0.0,0.0,0.0,0.0,0.0,0.0,0.0,0.0,0.0,0.0,0.0,0.0,0.0,0.0,0.0,0.0,0.0,0.0,0.0,0.0,0.0,0.0,0.0,0.0,0.0,0.0,0.0,0.0,0.0,0.0,0.0,0.0,0.0,0.0,0.0,0.0,0.0,0.0,0.0,0.0,0.0,0.0,0.0,0.0,0.0,0.0,0.0,0.0,0.0,0.0,0.0,0.0,0.0,0.0,0.0,0.0,0.0,0.0,0.0,0.0,0.0,0.0,0.0,0.0,0.0,0.0,0.0,0.0,0.0,0.0,0.0,0.0,0.0,0.0,0.0,0.0,0.0,0.0,0.0,0.0,0.0,0.0,0.0,0.0,0.0,0.0,0.0,0.0,0.0,0.0,0.0,0.0,0.0,0.0,0.0,0.0,0.0,0.0,0.0,0.0,0.0,0.0,0.0,0.0,0.0,0.0,0.0,0.0,0.0,0.0,0.0,0.0,0.0,0.0,0.0,0.0,0.0,0.0,0.0,0.0,0.0,0.0,0.0,0.0,0.0,0.0,0.0,0.0,0.0,0.0,0.0,0.0,0.0,0.0,0.0,0.0,0.0,0.0,0.0,0.0,0.0,0.0,0.0,0.0,0.0,0.0,0.0,0.0,0.0,0.0,0.0,0.0,0.0,0.0,0.0,0.0,0.0,0.0,0.0,0.0,0.0,0.0,0.0,0.0,0.0,0.0,0.0,0.0,0.0,0.0,0.0,0.0,0.0,0.0,0.0,0.0,0.0,0.0,0.0,0.0,0.0,0.0,0.0,0.0,0.0,0.0,0.0,0.0,0.0,0.0,0.0,0.0,0.0,0.0,0.0,0.0,0.0,0.0,0.0,0.0,0.0,0.0,0.0,0.0,0.0,0.0,0.0,0.0,0.0,0.0,0.0,0.0,0.0,0.0,0.0,0.0,0.0,0.0,0.0,0.0,0.0,0.0,0.0,0.0,0.0,0.0,0.0,0.0,0.0,0.0,0.0,0.0,0.0,0.0,0.0,0.0,0.0,0.0,0.0,0.0,0.0,0.0,0.0,0.0,0.0,0.0,0.0,0.0,0.0,0.0,0.0,0.0,0.0,0.0,0.0,0.0,0.0,0.0,0.0,0.0,0.0,0.0,0.0,0.0,0.0,0.0,0.0,0.0,0.0,0.0,0.0,0.0,0.0,0.0,0.0,0.0,0.0,0.0,0.0,0.0,0.0,0.0,0.0,0.0,0.0,0.0,0.0,0.0,0.0,0.0,0.0,0.0,0.0,0.0,0.0,0.0,0.0,0.0,0.0,0.0,0.0,0.0,0.0,0.0,0.0,0.0,0.0,0.0,0.0,0.0,0.0,0.0,0.0,0.0,0.0,0.0,0.0,0.0,0.0,0.0,0.0,0.0,0.0,0.0,0.0,0.0,0.0,0.0,0.0,0.0,0.0,0.0,0.0,0.0,0.0,0.0,0.0,0.0,0.0,0.0,0.0,0.0,0.0,0.0,0.0,0.0,0.0,0.0,0.0,0.0,0.0,0.0,0.0,0.0,0.0,0.0,0.0,0.0,0.0,0.0,0.0,0.0,0.0,0.0,0.0,0.0,0.0,0.0,0.0,0.0,0.0,0.0,0.0,0.0,0.0,0.0,0.0,0.0,0.0,0.0,0.0,0.0,0.0,0.0,0.0,0.0,0.0,0.0,0.0,0.0,0.0,0.0,0.0,0.0,0.0,0.0,0.0,0.0,0.0,0.0,0.0,0.0,0.0,0.0,0.0,0.0,0.0,0.0,0.0,0.0,0.0,0.0,0.0,0.0,0.0,0.0,0.0,0.0,0.0,0.0,0.0,0.0,0.0,0.0,0.0,0.0,0.0,0.0,0.0,0.0,0.0,0.0,0.0,0.0,0.0,0.0,0.0,0.0,0.0,0.0,0.0,0.0,0.0,0.0,0.0,0.0,0.0,0.0,0.0,0.0,0.0,0.0,0.0,0.0,0.0,0.0,0.0,0.0,0.0,0.0,0.0,0.0,0.0,0.0,0.0,0.0,0.0,0.0,0.0,0.0,0.0,0.0,0.0,0.0,0.0,0.0,0.0,0.0,0.0,0.0,0.0,0.0,0.0,0.0,0.0,0.0,0.0,0.0,0.0,0.0,0.0,0.0,0.0,0.0,0.0,0.0,0.0,0.0,0.0,0.0,0.0,0.0,0.0,0.0,0.0,0.0,0.0,0.0,0.0,0.0,0.0,0.0,0.0,0.0,0.0,0.0,0.0,0.0,0.0,0.0,0.0,0.0,0.0,0.0,0.0,0.0,0.0,0.0,0.0,0.0,0.0,0.0,0.0,0.0,0.0,0.0,0.0,0.0,0.0,0.0,0.0,0.0,0.0,0.0,0.0,0.0,0.0,0.0,0.0,0.0,0.0,0.0,0.0,0.0,0.0,0.0,0.0,0.0,0.0,0.0,0.0,0.0,0.0,0.0,0.0,0.0,0.0,0.0,0.0,0.0,0.0,0.0,0.0,0.0,0.0,0.0,0.0,0.0,0.0,0.0,0.0,0.0,0.0,0.0,0.0,0.0,0.0,0.0,0.0,0.0,0.0,0.0,0.0,0.0,0.0,0.0,0.0,0.0,0.0,0.0,0.0,0.0,0.0,0.0,0.0,0.0,0.0,0.0,0.0,0.0,0.0,0.0,0.0,0.0,0.0,0.0,0.0,0.0,0.0,0.0,0.0,0.0,0.0,0.0,0.0,0.0,0.0,-1.0036,0.0,0.0,0.0,0.0,0.0,0.0,0.0,0.0,0.0,0.0,0.0,0.0,0.0,0.0,0.0,0.0,0.0,0.0,0.0,0.0,0.0,0.0,0.0,0.0,0.0,0.0,0.0,0.0,0.0,0.0,0.0,0.0,0.0,0.0,0.0,0.0,0.0,0.0,-1.2709,-1.2963,-1.3474,-1.4205,-1.387,-1.3073,-1.1875,0.0,0.0,0.0,0.0,0.0,0.0,0.0,0.0,0.0,0.0,0.0,0.0,0.0,0.0,0.0,0.0,0.0,0.0,0.0,0.0,0.0,0.0,0.0,0.0,0.0,0.0,0.0,0.0,0.0,0.0,0.0,0.0,0.0,0.0,0.0,0.0,0.0,0.0,0.0,0.0,0.0,0.0,0.0,0.0,0.0,0.0,0.0,0.0,0.0,0.0,0.0,0.0,0.0,0.0,0.0,0.0,0.0,0.0,0.0,0.0,0.0,0.0,0.0,0.0,0.0,0.0,0.0,0.0,0.0,0.0,0.0,-1.0674,0.0,0.0,0.0,0.0,0.0,0.0,0.0,0.0,0.0,0.0,0.0,0.0,0.0,0.0,0.0,0.0,0.0,0.0,0.0,0.0,0.0,0.0,0.0,-1.2709,-1.2709,-1.2709,-1.2709,-1.2709,0.0,0.0,0.0,0.0,0.0,0.0,0.0,-1.2758,-1.2824,-1.3101,-1.3908,-1.4838,-1.584,-1.6403,-1.5938,-1.4654,-1.355,0.0,0.0,0.0,0.0,0.0,0.0,0.0,0.0,0.0,0.0,0.0,0.0,0.0,0.0,0.0,0.0,0.0,0.0,0.0,0.0,0.0,0.0,0.0,0.0,0.0,0.0,0.0,0.0,0.0,0.0,0.0,0.0,0.0,0.0,0.0,0.0,0.0,0.0,0.0,0.0,0.0,0.0,0.0,0.0,0.0,0.0,0.0,0.0,0.0,0.0,0.0,0.0,0.0,0.0,0.0,0.0,0.0,0.0,0.0,0.0,0.0,0.0,0.0,-1.5269,-1.5382,-1.6037,-1.6147,-1.591,-1.5318,-1.3444,-1.2282,-1.1694,0.0,0.0,0.0,0.0,0.0,0.0,0.0,0.0,0.0,0.0,0.0,0.0,0.0,0.0,0.0,0.0,0.0,0.0,0.0,0.0,0.0,0.0,-1.2709,-1.2709,-1.2709,-1.2709,-1.2709,-1.2709,0.0,0.0,0.0,0.0,0.0,-1.3385,-1.295,-1.3366,-1.4701,-1.6619,-1.8121,-1.9194,-1.972,-2.0089,-2.0185,-1.6788,-1.5776,-1.6562,0.0,0.0,0.0,0.0,0.0,0.0,0.0,0.0,0.0,0.0,0.0,0.0,0.0,0.0,0.0,0.0,0.0,0.0,0.0,0.0,0.0,0.0,0.0,0.0,0.0,0.0,0.0,0.0,0.0,0.0,0.0,0.0,0.0,0.0,0.0,0.0,0.0,0.0,0.0,0.0,0.0,-1.4315,-1.4022,0.0,0.0,0.0,0.0,0.0,0.0,0.0,0.0,0.0,0.0,0.0,0.0,0.0,-1.6834,-1.8375,-1.872,-1.8766,-1.85,-1.8857,-1.8854,-1.8544,-1.8544,-1.8768,-1.9029,-1.7698,0.0,-1.2507,-1.2174,0.0,0.0,0.0,0.0,0.0,0.0,0.0,0.0,0.0,0.0,0.0,0.0,0.0,0.0,0.0,0.0,0.0,0.0,0.0,0.0,0.0,-1.2975,-1.3155,-1.3155,-1.3937,-1.4069,-1.3216,-1.3672,0.0,0.0,0.0,-1.2818,-1.3047,-1.3409,-1.4799,-1.7243,-1.8782,-2.0254,-2.1626,-2.2137,-2.251,-2.2666,-2.1002,-1.9341,-1.7747,-1.6716,0.0,0.0,0.0,0.0,0.0,0.0,0.0,0.0,0.0,0.0,0.0,0.0,0.0,0.0,0.0,0.0,0.0,0.0,0.0,0.0,0.0,0.0,0.0,0.0,0.0,0.0,0.0,0.0,0.0,0.0,0.0,0.0,0.0,0.0,0.0,0.0,0.0,0.0,0.0,-1.4305,-1.5382,-1.4012,-1.5169,-1.5613,0.0,0.0,0.0,0.0,0.0,0.0,0.0,0.0,0.0,-1.7917,-1.7953,-1.8578,-1.9892,-2.0117,-2.043,-2.0791,-2.1349,-2.1638,-2.1711,-2.1711,-2.1606,-2.1413,-2.0869,-1.9275,-1.6845,-1.4609,-1.2976,-1.1798,0.0,0.0,0.0,0.0,-0.9887,-1.003,0.0,0.0,0.0,0.0,0.0,0.0,0.0,0.0,0.0,0.0,0.0,0.0,-1.3095,-1.3691,-1.4137,-1.4281,-1.5214,-1.519,-1.3795,-1.4285,-1.3977,-1.2559,-1.2637,-1.283,-1.3107,-1.4687,-1.6786,-1.9408,-2.0759,-2.2168,-2.3592,-2.4432,-2.4817,-2.4783,-2.495,-2.3063,-1.9744,-1.8674,-1.7519,-1.6297,0.0,0.0,0.0,0.0,0.0,0.0,0.0,0.0,0.0,0.0,0.0,0.0,0.0,0.0,0.0,0.0,0.0,0.0,0.0,0.0,0.0,0.0,0.0,0.0,0.0,0.0,0.0,0.0,0.0,0.0,0.0,0.0,0.0,0.0,0.0,0.0,0.0,-1.5271,-1.6319,-1.451,-1.6486,-1.7231,0.0,0.0,0.0,0.0,0.0,0.0,-1.7207,-1.7856,-1.871,-1.978,-1.9817,-2.0338,-2.141,-2.1536,-2.2005,-2.2799,-2.3328,-2.3785,-2.4191,-2.4191,-2.3875,-2.3362,-2.3051,-2.2263,-2.0927,-1.7374,-1.5105,-1.3756,-1.2866,-1.2133,-1.157,-1.1598,-1.175,-1.2062,0.0,0.0,0.0,0.0,0.0,0.0,0.0,0.0,0.0,0.0,0.0,-1.365,-1.4156,-1.5091,-1.5898,-1.6403,-1.6054,-1.5358,-1.4325,-1.3831,-1.3095,-1.1993,-1.2427,-1.318,-1.4212,-1.7207,-1.9336,-2.0538,-2.2594,-2.4191,-2.5228,-2.6791,-2.7486,-2.7548,-2.8053,-2.6755,-2.4004,-2.1488,-2.0382,-2.0041,-1.6943,0.0,0.0,0.0,0.0,0.0,0.0,0.0,0.0,0.0,0.0,0.0,0.0,0.0,0.0,0.0,0.0,0.0,0.0,0.0,0.0,0.0,0.0,0.0,0.0,0.0,0.0,0.0,0.0,0.0,0.0,0.0,0.0,0.0,0.0,0.0,0.0,0.0,0.0,-1.6571,-1.835,0.0,0.0,0.0,0.0,-1.8674,-1.9266,-2.0009,-2.1067,-2.0694,-2.0935,-2.2005,-2.2029,-2.2534,-2.3637,-2.4085,-2.4316,-2.4376,-2.4939,-2.5204,-2.5228,-2.5228,-2.5192,-2.5133,-2.3945,-2.3421,-2.3098,-1.9988,-1.7799,-1.6336,-1.5384,-1.4323,-1.3402,-1.3707,-1.3558,-1.3263,0.0,0.0,0.0,0.0,0.0,0.0,0.0,0.0,-1.2709,-1.2709,-1.3168,-1.3944,-1.5139,-1.6199,-1.7315,-1.8554,-1.8794,-1.8145,-1.6424,-1.5788,-1.4718,-1.2993,-1.2782,-1.3824,-1.6233,-1.8398,-2.0694,-2.3103,-2.423,-2.548,-2.6875,-2.7414,-2.8089,-2.8727,-2.8582,-2.8174,-2.7416,-2.4747,-2.2654,-2.0959,-1.9119,-1.7423,0.0,0.0,0.0,0.0,0.0,0.0,0.0,0.0,0.0,0.0,0.0,0.0,0.0,0.0,0.0,0.0,0.0,0.0,0.0,0.0,0.0,0.0,0.0,0.0,0.0,0.0,0.0,0.0,0.0,0.0,0.0,0.0,0.0,0.0,0.0,0.0,0.0,-1.8277,-2.0663,0.0,-1.9664,-1.9456,-1.9624,-2.0001,-2.0514,-2.1139,-2.1873,-2.2378,-2.2967,-2.3664,-2.4013,-2.4374,-2.4759,-2.4939,-2.5023,-2.5035,-2.5216,-2.5312,-2.5312,-2.5312,-2.5312,-2.5264,-2.4849,-2.4661,-2.4566,-2.3097,-2.0673,-1.7829,-1.72,-1.6042,-1.4824,-1.5488,-1.5829,-1.6033,0.0,0.0,0.0,0.0,0.0,0.0,0.0,0.0,-1.2752,-1.295,-1.3727,-1.4874,-1.6439,-1.788,-1.9251,-2.049,-2.0446,-1.9324,-1.7015,-1.6221,-1.4959,-1.3047,-1.3811,-1.5533,-1.8157,-2.0129,-2.233,-2.4748,-2.5504,-2.6504,-2.7822,-2.7929,-2.8415,-2.9138,-2.8883,-2.8967,-2.9184,-2.7404,-2.5228,-2.2835,-2.1043,-1.9708,-1.8528,0.0,0.0,0.0,0.0,0.0,0.0,0.0,0.0,0.0,0.0,0.0,0.0,0.0,0.0,0.0,0.0,0.0,0.0,0.0,0.0,0.0,0.0,0.0,0.0,0.0,0.0,0.0,0.0,0.0,0.0,0.0,0.0,0.0,0.0,0.0,-2.0892,-2.0153,-2.257,-2.3625,-2.1843,-2.1825,-2.1993,-2.218,-2.2678,-2.3135,-2.3496,-2.4169,-2.4626,-2.4783,-2.5119,-2.5312,-2.5312,-2.5312,-2.5312,-2.5312,-2.5312,-2.5312,-2.5312,-2.5312,-2.5312,-2.5312,-2.5312,-2.5312,-2.5288,-2.4927,-2.2992,-2.0205,-1.9727,-1.8543,-1.7188,-1.7755,-1.8008,-1.8125,0.0,0.0,0.0,0.0,0.0,0.0,0.0,-1.2709,-1.289,-1.3409,-1.4838,-1.6427,-1.8049,-2.0129,-2.1632,-2.2197,-2.0759,-1.8674,-1.6054,-1.4907,-1.3626,-1.209,-1.5533,-1.8243,-1.9844,-2.2469,-2.437,-2.5395,-2.6418,-2.7335,-2.8171,-2.8395,-2.8678,-2.895,-2.9208,-2.9328,-2.9352,-2.9316,-2.8102,-2.5949,-2.2835,-2.2149,-2.2614,0.0,0.0,0.0,0.0,0.0,0.0,0.0,0.0,0.0,0.0,0.0,0.0,0.0,0.0,0.0,0.0,0.0,0.0,0.0,0.0,0.0,0.0,0.0,0.0,0.0,0.0,0.0,0.0,0.0,0.0,0.0,0.0,0.0,-1.7603,-2.0286,-2.2282,-2.2306,-2.4133,-2.4987,-2.3998,-2.4314,-2.4772,-2.5324,-2.5829,-2.6117,-2.6117,-2.6117,-2.5889,-2.5384,-2.536,-2.5348,-2.5336,-2.5336,-2.5336,-2.5336,-2.5312,-2.5312,-2.5336,-2.5312,-2.5312,-2.5312,-2.5312,-2.5312,-2.5312,-2.5312,-2.4613,-2.3491,-2.296,-2.1804,-2.0481,-2.0548,-2.0042,-1.9404,0.0,0.0,0.0,0.0,0.0,0.0,0.0,-1.2709,-1.274,-1.2902,-1.4589,-1.6559,-1.8554,-2.0346,-2.1921,-2.3264,-2.1181,-1.9143,-1.7652,-1.5814,-1.4782,-1.4734,-1.7695,-2.0046,-2.1518,-2.387,-2.5841,-2.7319,-2.7028,-2.7713,-2.9252,-2.8748,-2.9161,-3.0323,-3.003,-3.0086,-3.0398,-2.9629,-2.9172,-2.8775,-2.6345,-2.4434,-2.2787,0.0,0.0,0.0,0.0,0.0,0.0,0.0,0.0,0.0,0.0,0.0,0.0,0.0,0.0,0.0,0.0,0.0,0.0,0.0,0.0,0.0,0.0,0.0,0.0,0.0,0.0,0.0,0.0,0.0,0.0,0.0,0.0,-2.061,-2.0851,-2.2606,-2.4169,-2.4939,-2.6226,-2.6791,-2.6093,-2.6153,-2.6285,-2.6441,-2.6585,-2.6669,-2.6669,-2.6669,-2.6597,-2.6453,-2.6453,-2.6261,-2.5877,-2.5877,-2.5877,-2.5877,-2.5492,-2.5504,-2.5865,-2.548,-2.5312,-2.5312,-2.5312,-2.5312,-2.5312,-2.5312,-2.511,-2.4708,-2.3688,-2.2138,-2.06,-2.1219,-2.1128,-2.0664,0.0,0.0,0.0,0.0,0.0,0.0,0.0,-1.2709,-1.2782,-1.3011,-1.5043,-1.7111,-1.8806,-2.0634,-2.1921,-2.2402,-2.0201,-1.8241,-1.6943,-1.5888,-1.5886,-1.7087,-1.9826,-2.205,-2.3612,-2.609,-2.7819,-2.8787,-2.8768,-2.9312,-3.0355,-2.993,-3.0204,-3.1057,-3.078,-3.0742,-3.0874,-3.0218,-3.0266,-3.0639,-2.9412,-2.7729,-2.5721,-2.3532,-2.2594,-2.2197,-2.049,-2.0322,-2.0591,-1.8265,0.0,0.0,0.0,0.0,0.0,0.0,0.0,0.0,0.0,0.0,0.0,0.0,0.0,0.0,0.0,0.0,0.0,0.0,0.0,0.0,0.0,0.0,0.0,0.0,-2.1692,-2.3207,-2.4638,-2.5204,-2.5889,-2.6983,-2.7669,-2.7978,-2.7894,-2.7678,-2.7558,-2.7558,-2.7558,-2.7462,-2.7234,-2.7234,-2.7126,-2.691,-2.6898,-2.6633,-2.6105,-2.6093,-2.5985,-2.5769,-2.5456,-2.5468,-2.5769,-2.5673,-2.5516,0.0,-2.554,-2.5516,-2.5312,-2.5312,-2.5312,0.0,0.0,0.0,0.0,0.0,-2.197,-2.1449,0.0,0.0,0.0,0.0,0.0,0.0,0.0,-1.2709,-1.2902,-1.3433,-1.5608,-1.7544,-1.8614,-2.0478,-2.132,-2.0502,-1.8396,-1.6559,-1.5181,-1.5756,-1.7111,-1.9263,-2.188,-2.4136,-2.59,-2.8472,-2.987,-3.0035,-3.0939,-3.1455,-3.1559,-3.1518,-3.1433,-3.1331,-3.1414,-3.126,-3.0922,-3.0922,-3.1187,-3.1621,-3.1681,-3.1103,-2.9797,-2.637,-2.56,-2.6033,-2.346,-2.2366,-2.1909,-2.0586,0.0,0.0,0.0,0.0,0.0,0.0,0.0,0.0,0.0,0.0,0.0,0.0,0.0,0.0,0.0,0.0,0.0,0.0,0.0,0.0,0.0,0.0,0.0,0.0,-2.4736,-2.5781,-2.8258,-2.7858,-2.7666,-2.8582,-2.8691,-2.8871,-2.934,-2.8967,-2.8691,-2.8691,-2.8631,-2.839,-2.7933,0.0,0.0,0.0,0.0,-2.6813,-2.6286,-2.6226,-2.5985,-2.5576,-2.5456,-2.5432,-2.5504,-2.5913,-2.5805,-2.5336,-2.5805,-2.5745,-2.5312,-2.5312,-2.5312,-2.5276,-2.5194,-2.4743,-2.4091,-2.3331,-2.2585,-2.1932,0.0,0.0,0.0,0.0,0.0,0.0,0.0,-1.2709,-1.2902,-1.3433,-1.4658,-1.5864,-1.6943,-1.7808,-1.8602,-1.9251,-1.6955,-1.5516,-1.5636,-1.7351,-1.9336,-2.1488,-2.3848,-2.578,-2.7269,-2.8833,-3.0443,-3.2032,-3.1587,-3.197,-3.2963,-3.232,-3.1873,-3.161,-3.1654,-3.1385,-3.0922,-3.0922,-3.097,-3.1103,-3.1536,-3.1332,-3.0555,-2.8979,-2.8234,-2.7753,-2.5504,-2.548,-2.6081,-2.3292,-2.2775,-2.2863,-2.0545,-1.8734,0.0,0.0,0.0,0.0,0.0,0.0,0.0,0.0,0.0,0.0,0.0,0.0,0.0,0.0,0.0,0.0,0.0,0.0,0.0,-2.4254,-2.6334,-2.8065,-2.9015,-2.9701,-3.0025,-2.9809,-2.9785,-2.9821,-2.9929,-2.9845,-2.9785,-2.9785,-2.9388,-2.91,-2.9003,-2.8595,-2.8318,-2.821,-2.821,-2.7906,-2.7416,-2.6946,-2.6898,-2.7248,0.0,0.0,-2.6573,-2.625,-2.5805,-2.5312,-2.542,-2.5408,-2.5312,-2.5312,-2.5312,-2.5229,-2.46,-2.4482,-2.458,-2.378,-2.299,-2.2273,0.0,0.0,0.0,0.0,0.0,0.0,0.0,-1.2556,-1.2806,-1.3053,-1.4205,-1.5205,-1.5732,-1.6523,-1.6991,-1.6991,-1.5768,-1.5348,-1.6151,-1.8722,-2.1139,-2.3268,-2.5481,-2.7495,-2.929,-3.0369,-3.1601,-3.2985,-3.2469,-3.2541,-3.3184,-3.3226,-3.2929,-3.237,-3.2821,-3.2383,-3.1308,-3.1308,-3.1633,-3.2082,-3.2082,-3.2394,-3.2683,-3.1084,-3.0314,-2.9881,-2.8282,-2.7873,-2.7837,-2.5973,-2.5155,-2.4638,-2.3031,-2.1296,-1.9492,0.0,0.0,0.0,0.0,0.0,0.0,0.0,0.0,0.0,0.0,0.0,0.0,0.0,0.0,-2.2048,0.0,0.0,-2.5961,-2.7789,-2.922,-3.0278,-3.0819,-3.136,-3.1384,-3.0621,-3.0482,-3.0482,-3.0482,-3.0242,-2.9977,-2.9713,-2.9448,-2.9184,-2.8919,-2.8655,-2.851,-2.851,-2.851,-2.8258,-2.769,-2.7426,-2.7188,-2.6899,-2.6358,-2.6105,-2.6081,-2.6105,-2.5805,-2.5324,-2.5588,-2.5709,-2.5709,-2.5709,-2.554,-2.5276,-2.4862,-2.4988,-2.5374,-2.4701,-2.3981,-2.3323,0.0,0.0,0.0,0.0,0.0,0.0,0.0,-1.2377,-1.2657,-1.2824,-1.3852,-1.4581,-1.4689,-1.5394,-1.549,-1.4617,-1.5205,-1.5984,-1.6847,-2.0033,-2.2751,-2.47,-2.6791,-2.8801,-3.079,-3.1546,-3.2424,-3.334,-3.3094,-3.298,-3.3036,-3.3733,-3.3564,-3.2778,-3.3479,-3.3023,-3.1705,-3.1705,-3.2211,-3.2947,-3.2623,-3.3248,-3.4186,-3.2478,-3.1934,-3.1874,-3.0663,-2.9496,-2.845,-2.7978,-2.6875,-2.5529,-2.5216,-2.3845,-2.1957,-2.0141,-1.9083,0.0,0.0,0.0,0.0,0.0,0.0,0.0,0.0,0.0,-2.1915,-2.2775,-2.3965,-2.5276,-2.6633,-2.7582,-2.8919,-3.1199,-3.1645,-3.191,-3.2418,-3.2406,-3.1973,-3.1043,-3.1007,-3.1031,-3.0922,-3.0494,-3.0025,-2.9496,-2.9352,-2.9112,-2.8691,-2.857,-2.851,-2.851,-2.851,-2.8306,-2.7846,-2.7738,-2.7332,-2.6562,-2.6466,-2.619,-2.5793,-2.6117,-2.5961,-2.548,-2.5805,-2.5949,-2.5949,-2.5949,-2.5697,-2.5312,-2.5312,-2.5564,-2.5889,-2.5468,-2.4755,-2.4022,0.0,0.0,0.0,0.0,0.0,0.0,0.0,0.0,-1.2475,-1.3311,-1.3155,-1.3137,-1.3626,-1.3342,-1.3089,-1.2969,-1.5945,-1.7905,-1.8013,-2.1494,-2.4263,-2.5853,-2.7524,-2.8964,-3.016,-3.0743,-3.1718,-3.3063,-3.2998,-3.298,-3.298,-3.3109,-3.2661,-3.1825,-3.1957,-3.1869,-3.1705,-3.1705,-3.1777,-3.1934,-3.2322,-3.2599,-3.2731,-3.2491,-3.2707,-3.2899,-3.1392,-2.9797,-2.8498,-2.8438,-2.7681,-2.6789,-2.7198,-2.6538,-2.5083,-2.257,-2.0808,-1.9444,-1.8746,-1.9023,-2.0013,-2.1957,-2.1476,-2.138,0.0,0.0,-2.5516,-2.5636,-2.7272,-2.8318,-2.7114,-2.8522,-3.0074,-3.0874,-3.1404,-3.191,-3.2418,-3.207,-3.1585,-3.0995,-3.1332,-3.1428,-3.097,-3.0862,-3.0567,-3.0037,-2.9569,-2.9268,-2.9208,-2.8763,-2.851,-2.851,-2.851,-2.8474,-2.8426,-2.7957,-2.7897,-2.8234,-2.7765,-2.7474,-2.7402,-2.6982,-2.6538,-2.5985,-2.5576,-2.5396,-2.5396,-2.5396,-2.536,-2.5312,-2.5312,-2.5348,-2.5384,-2.5336,-2.4396,-2.3132,0.0,0.0,0.0,0.0,0.0,0.0,0.0,0.0,0.0,-1.2623,-1.2699,-1.2794,-1.3011,-1.2824,-1.2709,-1.2709,-1.5223,-1.7327,-1.8578,-2.1891,-2.4614,-2.6502,-2.8414,-2.9864,-3.0828,-3.1192,-3.1901,-3.298,-3.2488,-3.2488,-3.298,-3.298,-3.2821,-3.2457,-3.2457,-3.2164,-3.1705,-3.1705,-3.1898,-3.2142,-3.2058,-3.2394,-3.2887,-3.225,-3.1769,-3.1216,-2.9617,-2.821,0.0,-2.6394,-2.5853,-2.5637,-2.6514,-2.5841,-2.441,-2.269,-2.1704,0.0,-2.1687,-2.2149,-2.2895,0.0,-2.5011,-2.5769,-2.7921,-2.8426,-2.8679,-2.9629,-3.0543,-3.0963,-3.0302,-3.1384,-3.2262,0.0,-3.2515,-3.2923,-3.2551,-3.2022,-3.1404,-3.0561,-3.0338,-3.0326,-3.041,-3.041,-3.0326,-3.011,-2.9593,-2.9436,-2.9737,-2.8967,-2.8655,-2.8967,-2.8667,-2.851,-2.851,-2.8294,-2.8138,-2.8041,-2.7825,-2.7522,-2.721,-2.6695,-2.6154,-2.5636,-2.5733,-2.5588,-2.5336,-2.5636,-2.5588,-2.5312,-2.5312,-2.5312,-2.5312,-2.5312,-2.4898,-2.4276,0.0,0.0,0.0,0.0,0.0,0.0,0.0,0.0,0.0,0.0,-1.2449,-1.2709,-1.2709,-1.2709,-1.2709,-1.2709,-1.4478,-1.6427,-1.8422,-2.1723,-2.4362,-2.6153,-2.8582,-3.0177,-3.081,-3.1266,-3.1843,-3.2661,-3.2159,-3.2147,-3.2618,-3.2779,-3.2767,-3.2661,-3.2661,-3.2283,-3.1705,-3.1705,-3.1862,-3.201,-3.1657,-3.1874,-3.2286,-3.1204,-3.0037,-2.8859,-2.7861,-2.6526,-2.5095,-2.4181,-2.3688,-2.3595,-2.4687,-2.4242,-2.324,-2.2594,-2.2414,-2.2582,-2.3372,-2.4133,0.0,-2.6598,-2.8077,-2.9484,-3.0699,-3.1072,-3.1468,-3.2503,-3.2719,-3.2587,-3.2142,-3.2659,-3.2971,-3.237,-3.2779,-3.2959,-3.2358,-3.1673,-3.0874,-2.9785,-2.9184,-2.8955,-2.9196,-2.9484,-2.9713,-2.9857,-2.9376,-2.9376,-3.005,-2.922,-2.8967,-2.9496,-2.9003,-2.8799,-2.8943,-2.8655,-2.839,-2.8162,-2.8005,-2.7702,-2.7306,-2.6647,-2.5961,-2.5336,-2.5709,-2.5661,-2.5336,-2.5721,-2.5661,-2.5312,-2.5312,-2.5312,-2.5312,-2.5312,-2.5016,-2.4576,0.0,0.0,0.0,0.0,0.0,0.0,0.0,0.0,0.0,0.0,0.0,0.0,0.0,-1.2709,-1.2709,-1.2709,-1.4121,-1.5708,-1.7327,-2.0947,-2.3484,-2.4542,-2.7633,-2.9328,-2.9357,-3.0405,-3.1199,-3.1749,-3.2247,-3.2235,-3.1761,-3.2259,-3.2235,-3.1749,-3.1749,-3.1705,-3.1705,-3.1705,-3.1428,-3.097,-3.0946,-3.0615,-3.0074,-2.9015,-2.7609,-2.6286,-2.6741,-2.5288,-2.2991,-2.245,-2.1584,-2.0923,-2.1981,-2.2282,-2.233,-2.2811,-2.2987,-2.2999,-2.3035,0.0,-2.5913,-2.8546,-3.0013,-3.1228,-3.2827,-3.3573,-3.3754,-3.3356,-3.3272,-3.2779,-3.1259,-3.0951,-3.1163,-3.1657,-3.1332,-3.1187,-3.1669,-3.0826,-2.9737,-2.8691,-2.8089,-2.7534,0.0,-2.7957,-2.8775,-2.928,-2.8835,-2.8991,-3.0025,-2.9569,-2.952,-3.005,-2.9556,-2.952,-3.0037,-2.9027,-2.8763,-2.9244,-2.8727,-2.8474,-2.8426,-2.7342,-2.6285,-2.5312,-2.5324,-2.5324,-2.5312,-2.5324,-2.5324,-2.5312,-2.5312,-2.5312,-2.5312,-2.5312,-2.4348,-2.3069,0.0,0.0,0.0,0.0,0.0,0.0,0.0,0.0,0.0,0.0,0.0,0.0,0.0,0.0,0.0,0.0,-1.3824,-1.5043,-1.6271,-1.9528,-2.1885,-2.2931,-2.5997,-2.769,-2.769,-2.8763,-2.9569,-3.0098,-3.029,-3.0458,-3.0627,-3.0807,-3.0795,-3.0657,-3.0657,-3.0657,-3.0657,-3.0657,-3.0506,-3.0326,-2.9965,-2.9725,-2.9292,-2.6803,-2.5324,-2.4254,0.0,-2.0791,-2.0201,-1.9324,-1.9023,-1.9203,-2.0261,-2.0105,-1.9891,-2.163,-2.2705,-2.3842,-2.6228,0.0,-2.9223,-3.1003,-3.1949,-3.2887,-3.4475,-3.4378,-3.3946,-3.3825,-3.2671,-3.1312,-3.0062,-2.9833,-2.9893,-3.0062,-3.053,-3.0983,-3.1151,-3.053,-2.9569,-2.8162,-2.7486,0.0,0.0,0.0,0.0,-2.8703,-2.8607,-2.9124,-3.053,-3.011,-3.0062,-3.0591,-3.0098,-2.9905,-3.0086,-2.9388,-2.9124,-2.9292,-2.8763,-2.833,-2.793,-2.7222,-2.6489,-2.5817,-2.5456,-2.5312,-2.5312,-2.5312,-2.5312,-2.5312,-2.5312,-2.5312,-2.5312,-2.5312,-2.4636,-2.3647,0.0,0.0,0.0,0.0,0.0,0.0,0.0,0.0,0.0,0.0,0.0,0.0,0.0,0.0,0.0,0.0,0.0,-1.418,-1.5199,-1.7712,-1.9633,-2.0718,-2.346,-2.5012,-2.5204,-2.6093,-2.6695,-2.7043,-2.7789,-2.8138,-2.8114,-2.8883,-2.9244,-2.9256,-2.9436,-2.9629,-2.9797,-2.9797,-2.9256,-2.833,-2.7801,-2.7152,-2.6214,-2.3761,-2.251,0.0,-1.8915,-1.7893,-1.776,-1.7063,-1.7315,-1.8032,-1.874,-1.9427,-2.0266,-2.1706,-2.38,-2.622,-2.8995,-3.0596,-3.1805,-3.3203,-3.3865,-3.4282,-3.4907,-3.4474,-3.3778,-3.3068,-3.1372,-2.9653,-2.839,-2.7849,-2.7717,-2.8089,-2.8727,-2.9477,-3.032,-2.973,-2.8972,-2.8219,-2.7406,0.0,0.0,0.0,0.0,-2.8426,-2.8691,-2.94,-3.0807,-3.0555,-3.0645,-3.1187,-3.0694,-3.0458,-3.0694,-2.9749,-2.9208,-2.9015,-2.8679,-2.8234,-2.7666,-2.7138,-2.6597,-2.6069,-2.554,-2.5312,-2.5312,-2.5312,-2.5312,-2.5312,-2.5312,-2.5312,-2.5312,-2.5312,-2.4791,-2.4,0.0,0.0,0.0,0.0,0.0,0.0,0.0,0.0,0.0,0.0,0.0,0.0,0.0,0.0,0.0,0.0,0.0,0.0,-1.4144,-1.5656,-1.6967,-1.8001,-2.0129,-2.1512,-2.2017,-2.2602,-2.2903,-2.2939,-2.4891,-2.536,-2.4446,-2.6453,-2.7402,-2.7464,-2.7957,-2.8462,-2.8931,-2.8931,-2.7464,-2.5107,-2.4578,-2.3171,-2.1272,-2.0133,-1.9387,-1.8806,-1.7688,-1.6643,-1.5792,-1.5828,-1.6608,-1.7601,-1.7653,-2.0271,-2.3322,-2.3242,-2.6281,-2.9954,-3.1243,-3.2473,-3.3712,-3.5219,-3.5655,-3.5404,-3.4318,-3.3981,-3.3331,-3.1271,-2.9489,-2.7789,0.0,0.0,-2.4711,-2.5793,-2.613,-2.7012,-2.9302,-2.8633,-2.8132,0.0,0.0,0.0,0.0,0.0,0.0,-2.8474,0.0,-2.9761,-3.0819,-3.0946,-3.1187,-3.1693,-3.1223,-3.1199,-3.1705,-3.0122,-2.9076,-2.8546,-2.8522,-2.8246,-2.7702,-2.715,-2.6609,-2.6105,-2.5552,-2.5312,-2.5312,-2.5312,-2.5312,-2.5312,-2.5312,-2.5312,-2.5312,-2.5312,-2.4826,-2.4047,0.0,0.0,0.0,0.0,0.0,0.0,0.0,0.0,0.0,0.0,0.0,0.0,0.0,0.0,0.0,0.0,0.0,0.0,-1.3095,-1.4553,-1.5528,-1.5792,-1.8265,-1.9672,-1.9805,-2.073,-2.1416,-2.1813,-2.2342,-2.2666,-2.2799,-2.3352,-2.3604,-2.3604,-2.3749,-2.3881,-2.4001,-2.4001,-2.3616,-2.2943,-2.2414,-2.1873,-2.1151,-1.8879,-1.8181,-1.8157,-1.6283,-1.5684,-1.5852,-1.6271,0.0,0.0,0.0,-2.3103,-2.5259,-2.7075,-2.9602,-3.2187,-3.3983,-3.5706,-3.702,-3.7183,-3.7,-3.6429,-3.5072,-3.3909,-3.2544,-3.0577,-2.7466,-2.4883,0.0,0.0,0.0,-2.4311,-2.6335,0.0,-2.9436,-3.0027,0.0,-2.9306,0.0,-2.8546,-2.815,-2.8462,0.0,0.0,-2.922,-2.9761,-3.0819,-3.1296,-3.1573,-3.1705,-3.1573,-3.1573,-3.1705,-3.0482,-2.9629,-2.9088,-2.8703,-2.8438,-2.8282,-2.7318,-2.6825,-2.6633,-2.5721,-2.5312,-2.5312,-2.5312,-2.5312,-2.5312,-2.5312,-2.5312,-2.5312,-2.5312,-2.5158,-2.4898,0.0,0.0,0.0,0.0,0.0,0.0,0.0,0.0,0.0,0.0,0.0,0.0,0.0,0.0,0.0,0.0,0.0,0.0,0.0,-1.3504,-1.4097,-1.4325,-1.5776,-1.6774,-1.7219,-1.7832,-1.818,-1.8291,-1.9203,-1.9564,-1.942,-2.0346,-2.0911,-2.1169,-2.1392,-2.1632,-2.1825,-2.1596,-2.0959,0.0,0.0,-1.8891,-1.8146,-1.6835,-1.6679,-1.6991,-1.578,-1.6163,0.0,0.0,0.0,-2.3201,-2.5339,-2.7352,-2.9315,-3.1241,0.0,-3.528,-3.6815,-3.7949,-3.8658,-3.8474,-3.7788,-3.6598,-3.4316,-3.2737,-3.0902,-2.7902,-2.4764,0.0,0.0,0.0,0.0,0.0,0.0,0.0,-2.9117,-2.9747,-3.0024,0.0,-2.9868,0.0,-2.9232,-2.9472,-2.9833,0.0,-3.0122,-3.0254,-3.0886,-3.1428,-3.1705,-3.1705,-3.1705,-3.1597,-3.1356,-3.0494,-2.9821,-2.9292,-2.8763,-2.851,-2.8474,-2.7618,-2.7246,-2.7186,0.0,-2.5661,-2.5636,-2.5408,-2.5312,-2.5312,-2.5312,-2.5312,-2.5312,-2.5312,-2.5312,-2.5194,0.0,0.0,0.0,0.0,0.0,0.0,0.0,0.0,0.0,0.0,0.0,0.0,0.0,0.0,0.0,0.0,0.0,0.0,0.0,0.0,-1.2914,-1.3372,-1.3457,-1.3944,-1.4881,-1.4977,-1.4842,-1.4506,-1.6305,-1.6715,-1.5828,-1.7712,-1.8819,-1.9302,-1.9768,-2.0209,-2.0634,-2.0149,-1.8876,-1.7135,-1.6679,-1.5692,-1.4534,0.0,-1.5396,-1.5792,-1.5792,-1.7168,0.0,0.0,-2.5207,-2.6361,-2.9613,-3.2178,-3.4159,-3.5318,-3.6897,-3.8519,-3.9503,-3.9648,-3.9496,-3.9445,-3.8408,-3.6479,-3.3008,-3.1215,-2.9036,-2.4672,0.0,-2.0332,-1.948,0.0,-1.9778,-2.1444,0.0,-2.5355,-2.8676,-2.8876,-2.9318,-3.1114,-3.0737,-3.0302,-3.0302,-3.0302,-3.0718,-3.1633,-3.1356,-3.112,-3.1192,-3.1609,-3.1789,-3.1705,-3.1705,-3.1488,-3.1031,-3.0386,-2.9857,-2.94,-2.8799,-2.851,-2.8498,-2.793,-2.7678,-2.763,-2.6647,0.0,-2.6166,-2.5636,-2.5408,-2.5408,-2.5408,-2.5408,-2.542,-2.5492,-2.548,-2.5301,0.0,0.0,0.0,0.0,0.0,0.0,0.0,0.0,0.0,0.0,-1.1292,-1.1682,0.0,0.0,0.0,0.0,0.0,0.0,0.0,0.0,0.0,-1.2824,-1.3264,-1.3795,-1.441,-1.4806,-1.5181,-1.5538,-1.591,-1.5972,-1.5804,-1.6164,-1.6415,-1.6499,-1.6595,-1.6691,-1.6775,-1.6656,-1.6427,-1.6056,-1.5994,-1.579,-1.555,-1.5624,0.0,0.0,-1.5792,0.0,0.0,-2.375,-2.6958,-2.9589,-3.329,-3.5803,-3.7498,-3.7819,-3.9136,-4.0547,-4.0955,-4.1127,-4.1145,-4.0843,-3.952,-3.7123,-3.2709,-3.0641,0.0,0.0,0.0,-1.944,-1.8994,-1.9075,0.0,-2.1163,0.0,0.0,0.0,0.0,-3.0204,0.0,0.0,0.0,0.0,0.0,0.0,0.0,0.0,-3.2406,-3.2851,-3.2539,-3.2142,-3.1717,-3.1705,-3.1669,-3.1573,-3.0567,-3.0037,-2.9941,-2.8979,-2.851,-2.8498,-2.793,-2.7678,-2.7654,-2.7018,0.0,-2.6705,-2.619,-2.5961,-2.5961,-2.5961,-2.5961,-2.6009,-2.6441,-2.6358,-2.5925,0.0,0.0,0.0,0.0,0.0,0.0,0.0,-1.0303,-1.038,-1.0563,-1.0935,-1.1423,-1.2029,-1.2258,-1.2467,0.0,0.0,0.0,0.0,0.0,0.0,0.0,0.0,0.0,-1.4277,-1.4522,0.0,0.0,0.0,-1.5648,-1.5396,0.0,0.0,-1.5792,-1.5792,-1.5792,-1.578,-1.5504,-1.5384,-1.5384,-1.5384,-1.5384,-1.5408,0.0,0.0,0.0,0.0,0.0,0.0,0.0,-2.5985,-2.9656,-3.4409,-3.7459,-3.9254,-3.9218,-4.0408,-4.1682,-4.1579,-4.1739,-4.1837,-4.1213,-3.9776,-3.7226,-3.2212,0.0,0.0,0.0,-1.9468,-1.8252,-1.7655,0.0,0.0,0.0,0.0,0.0,0.0,0.0,0.0,0.0,0.0,0.0,0.0,0.0,0.0,0.0,0.0,-3.2899,-3.2875,-3.2635,-3.2238,-3.1729,-3.1705,-3.1705,-3.1705,-3.0891,-3.0362,-3.0074,-2.9581,-2.9039,-2.851,-2.8534,-2.839,-2.8102,-2.7534,0.0,-2.6873,-2.6609,-2.6358,-2.6129,-2.6418,-2.6538,-2.6562,-2.6801,-2.6729,-2.6452,0.0,0.0,0.0,0.0,0.0,0.0,0.0,-1.0303,-1.0303,-1.0303,-1.0582,-1.1048,-1.1756,-1.2004,-1.2258,0.0,0.0,0.0,0.0,0.0,0.0,0.0,0.0,0.0,0.0,0.0,0.0,0.0,0.0,0.0,0.0,0.0,0.0,0.0,0.0,0.0,-1.5768,-1.5348,-1.5169,0.0,0.0,0.0,0.0,0.0,0.0,0.0,0.0,0.0,0.0,0.0,-2.4101,-2.755,-3.272,-3.6651,-3.9323,-3.9079,-4.0414,-4.1937,-4.1803,-4.2036,-4.2124,-4.1326,-3.9758,-3.6991,-3.1711,-2.887,0.0,0.0,-1.8032,-1.7312,-1.6548,0.0,0.0,0.0,0.0,0.0,0.0,0.0,0.0,0.0,0.0,0.0,0.0,0.0,0.0,0.0,0.0,0.0,-3.2683,-3.2563,-3.2238,-3.1729,-3.1705,-3.1705,-3.1705,-3.1187,-3.0645,-3.0086,-3.0086,-2.9532,-2.8522,-2.9051,-2.9015,-2.8486,-2.8065,0.0,0.0,-2.7114,-2.6801,-2.649,-2.6898,-2.7066,-2.7078,-2.7198,-2.7048,-2.67,0.0,0.0,0.0,0.0,0.0,0.0,0.0,-1.0303,-1.0303,-1.0303,-1.0322,-1.0525,-1.0954,-1.1664,-1.2258,0.0,0.0,0.0,0.0,0.0,0.0,0.0,0.0,0.0,0.0,0.0,0.0,0.0,0.0,0.0,0.0,0.0,0.0,0.0,0.0,0.0,0.0,-1.5744,0.0,0.0,0.0,0.0,0.0,0.0,0.0,0.0,0.0,0.0,0.0,0.0,0.0,-2.2914,-2.654,-3.1995,-3.691,-3.6319,0.0,0.0,-4.185,-4.2206,-4.221,-4.1735,-3.9645,-3.6367,-3.1277,0.0,0.0,-1.9687,-1.7966,-1.723,-1.6614,-1.7028,-1.7982,0.0,0.0,-2.2559,0.0,0.0,0.0,0.0,0.0,0.0,0.0,0.0,0.0,0.0,0.0,0.0,-3.3188,-3.2755,-3.2238,-3.1729,-3.1705,-3.1705,-3.1705,-3.1187,-3.0645,-3.0086,-3.0086,-2.9532,-2.8522,-2.9051,-2.9015,-2.851,-2.8462,0.0,0.0,-2.7849,-2.7582,-2.7572,-2.7594,-2.7618,-2.7705,-2.8186,-2.753,-2.6438,0.0,0.0,0.0,0.0,0.0,0.0,-1.0303,-1.0303,-1.0303,-1.0303,-1.0303,-1.0448,-1.0859,-1.1404,-1.1902,-1.2294,0.0,0.0,0.0,0.0,0.0,0.0,0.0,0.0,0.0,0.0,0.0,0.0,0.0,0.0,0.0,0.0,0.0,0.0,0.0,0.0,0.0,0.0,0.0,0.0,0.0,0.0,0.0,0.0,0.0,0.0,0.0,0.0,0.0,0.0,0.0,0.0,-2.2175,-2.6175,0.0,0.0,-3.6474,-3.9852,-4.0673,-4.1794,-4.2509,-4.1707,-3.9276,-3.5861,-3.1069,0.0,-2.4226,-1.9155,-1.7726,-1.7182,-1.6451,-1.6643,-1.7364,-1.8706,-1.9039,0.0,0.0,0.0,0.0,0.0,0.0,0.0,0.0,0.0,0.0,0.0,0.0,0.0,-3.3236,-3.2791,-3.2238,-3.1729,-3.1705,-3.1705,-3.1705,-3.15,-3.1127,-3.0567,-3.0922,-3.0314,-2.9003,-2.9532,-2.9316,-2.851,-2.851,0.0,0.0,-2.8162,-2.8005,-2.7714,-2.8077,-2.8198,-2.8222,-2.8426,-2.8128,-2.75,0.0,0.0,0.0,0.0,0.0,-1.0244,-1.0244,-1.0283,-1.0303,-1.0303,-1.0303,-1.0448,-1.0859,-1.1255,-1.1664,-1.2048,-1.2467,0.0,0.0,0.0,0.0,0.0,0.0,0.0,0.0,0.0,-1.5265,-1.5792,-1.5792,0.0,0.0,0.0,0.0,0.0,0.0,0.0,0.0,0.0,0.0,0.0,0.0,0.0,0.0,0.0,0.0,0.0,0.0,0.0,0.0,0.0,0.0,0.0,0.0,0.0,-2.5767,0.0,-3.395,-3.7792,-3.8716,-4.0525,-4.1908,-4.0916,-3.8456,-3.5023,0.0,0.0,-2.357,-1.878,-1.7592,-1.7158,-1.6441,-1.6317,-1.6785,-1.8081,-1.8302,-1.9621,0.0,0.0,0.0,0.0,0.0,0.0,0.0,0.0,0.0,0.0,0.0,0.0,0.0,-3.2539,-3.207,-3.1717,-3.1705,-3.1705,-3.1705,-3.1705,-3.144,-3.0879,-3.1296,-3.0718,-2.9316,-2.9689,-2.9364,-2.851,0.0,0.0,0.0,-2.8354,-2.8198,-2.7738,-2.8306,-2.8414,-2.8294,-2.845,-2.8339,-2.7886,0.0,0.0,0.0,0.0,0.0,0.0,-1.0098,-1.0215,-1.0303,-1.0303,-1.0303,-1.0448,-1.0859,-1.1255,-1.1664,-1.2048,-1.2467,0.0,0.0,0.0,0.0,0.0,0.0,0.0,0.0,0.0,-1.5265,-1.5792,-1.5792,-1.5792,-1.5792,-1.5792,0.0,0.0,0.0,0.0,0.0,0.0,0.0,0.0,0.0,0.0,0.0,0.0,0.0,0.0,0.0,0.0,0.0,0.0,0.0,0.0,0.0,-2.0831,-2.2903,-2.6329,-3.0639,-3.4562,-3.5961,-3.8202,-3.9948,-3.9131,-3.6897,-3.377,0.0,0.0,-2.3061,-1.8691,-1.7581,-1.7206,-1.6614,-1.6122,-1.6265,-1.7591,-1.8758,0.0,0.0,0.0,0.0,0.0,0.0,0.0,0.0,0.0,0.0,0.0,0.0,0.0,0.0,-3.2018,-3.1717,-3.1705,-3.1705,-3.1705,-3.1705,-3.1705,-3.144,-3.0922,-3.0922,-3.0326,-2.9304,-2.9304,-2.9015,0.0,0.0,0.0,0.0,-2.851,-2.8198,-2.7738,-2.8306,-2.8186,-2.775,-2.8318,-2.7966,-2.7092,0.0,0.0,0.0,0.0,0.0,0.0,0.0,-1.0137,-1.0205,-1.0283,-1.0544,-1.0764,-1.0878,-1.1497,-1.1957,-1.2095,-1.2467,0.0,0.0,0.0,0.0,0.0,0.0,0.0,0.0,-1.5127,-1.5624,-1.5792,-1.6175,-1.6175,-1.5804,-1.6187,-1.6163,-1.5792,0.0,0.0,0.0,0.0,0.0,0.0,0.0,0.0,0.0,0.0,0.0,0.0,0.0,0.0,0.0,0.0,0.0,0.0,0.0,0.0,0.0,-2.3063,-2.6269,0.0,-3.0645,-3.2133,-3.3293,-3.2878,-3.0945,-2.8426,-2.5644,0.0,-2.0604,-1.7711,-1.6983,-1.6701,-1.6232,-1.5957,-1.6426,-1.8307,-1.9109,-2.0305,0.0,0.0,0.0,0.0,0.0,0.0,0.0,0.0,0.0,0.0,0.0,0.0,0.0,-3.2334,-3.2058,-3.1717,-3.1705,-3.1705,-3.1705,-3.1705,-3.144,-3.0922,-3.0922,-3.0326,-2.9304,-2.9304,0.0,0.0,0.0,0.0,0.0,-2.851,-2.8414,-2.827,-2.845,-2.8032,-2.737,-2.7545,-2.7051,-2.6121,0.0,0.0,0.0,0.0,0.0,0.0,0.0,-1.0137,-1.0205,-1.0283,-1.0659,-1.0897,-1.0897,-1.1627,-1.2095,-1.2095,-1.2467,0.0,0.0,0.0,0.0,0.0,0.0,0.0,-1.4562,-1.537,-1.5888,-1.6092,-1.6451,-1.6535,-1.6415,-1.6751,-1.6619,-1.6092,-1.6092,-1.5984,0.0,0.0,0.0,0.0,0.0,0.0,-1.5816,0.0,0.0,0.0,0.0,0.0,0.0,0.0,0.0,0.0,0.0,0.0,0.0,0.0,-2.2651,-2.5026,0.0,-2.8426,-2.9459,-2.898,-2.7313,0.0,0.0,0.0,-1.9107,-1.693,-1.67,-1.6725,-1.6191,-1.6082,-1.6607,-1.8208,-1.9165,0.0,0.0,0.0,0.0,0.0,0.0,0.0,0.0,0.0,0.0,0.0,0.0,0.0,0.0,-3.2503,-3.2238,-3.1729,-3.1705,-3.1705,-3.1705,-3.1705,-3.144,-3.0922,-3.0675,-3.0242,-2.9593,-2.9388,0.0,0.0,0.0,0.0,0.0,-2.8595,-2.839,-2.8194,-2.8056,-2.7768,-2.7335,-2.686,-2.6547,-2.6163,0.0,0.0,0.0,0.0,0.0,0.0,0.0,-1.0205,-1.0283,-1.0303,-1.0659,-1.0916,-1.0935,-1.1645,-1.2113,-1.215,0.0,0.0,0.0,0.0,0.0,0.0,0.0,0.0,-1.4953,-1.5504,-1.6032,-1.6547,-1.6619,-1.6871,-1.7279,-1.7351,-1.7087,-1.6547,-1.6547,-1.6271,-1.5792,-1.5792,-1.5792,-1.5792,-1.5792,-1.5792,0.0,0.0,0.0,0.0,0.0,0.0,0.0,0.0,0.0,0.0,0.0,0.0,0.0,0.0,0.0,0.0,0.0,-2.6265,0.0,0.0,0.0,0.0,0.0,0.0,0.0,-1.6382,-1.6712,-1.7123,-1.6428,-1.649,-1.6895,-1.7678,-1.9113,0.0,0.0,0.0,0.0,0.0,0.0,0.0,0.0,0.0,0.0,0.0,0.0,0.0,0.0,-3.2478,-3.2238,-3.1729,-3.1705,-3.1705,-3.1705,-3.1669,-3.138,-3.0862,-3.0326,-3.005,-2.9965,-2.9508,0.0,0.0,0.0,0.0,0.0,-2.8823,-2.8318,-2.7756,-2.7463,-2.7467,-2.7513,-2.6289,-2.6321,-2.6764,0.0,0.0,0.0,0.0,0.0,0.0,0.0,0.0,0.0,0.0,-1.0659,-1.101,-1.133,-1.1792,-1.2222,0.0,0.0,0.0,0.0,0.0,0.0,0.0,0.0,0.0,-1.4474,-1.5334,-1.5852,-1.5984,-1.6811,-1.6859,-1.6199,-1.7015,-1.6895,-1.5984,-1.5984,-1.5912,-1.5792,-1.5792,-1.5792,-1.5792,-1.5792,-1.5792,0.0,0.0,0.0,0.0,-1.7207,-1.7315,0.0,0.0,0.0,0.0,0.0,0.0,0.0,0.0,-1.932,-1.9628,-1.9605,0.0,-2.0172,-1.9656,-1.8952,-1.8254,0.0,0.0,0.0,0.0,0.0,0.0,0.0,-1.7171,-1.7796,-1.9607,0.0,0.0,0.0,0.0,0.0,0.0,0.0,0.0,0.0,0.0,0.0,0.0,0.0,0.0,0.0,-3.2262,-3.2238,-3.1729,-3.1705,-3.1705,-3.1705,-3.1308,-3.0838,-3.0266,-3.0146,-2.9665,-2.8895,-2.9172,0.0,0.0,0.0,0.0,-2.9893,-2.9773,-2.94,-2.8903,-2.8848,-2.8197,-2.7233,-2.6592,-2.5818,-2.4999,0.0,0.0,0.0,0.0,0.0,0.0,0.0,0.0,0.0,0.0,0.0,0.0,0.0,0.0,0.0,0.0,0.0,0.0,0.0,0.0,0.0,0.0,0.0,-1.555,-1.4995,-1.5526,-1.6032,-1.6535,-1.7111,-1.7219,-1.6919,-1.776,-1.7423,-1.6175,-1.59,-1.5792,-1.5792,-1.5792,-1.5792,-1.5792,-1.5792,0.0,0.0,0.0,0.0,0.0,-1.7857,-1.7664,0.0,-1.7941,-1.824,-1.8343,0.0,0.0,0.0,0.0,-1.8649,-1.8517,-1.7224,-1.7679,-1.843,-1.8026,-1.7587,-1.723,-1.723,0.0,0.0,0.0,0.0,0.0,0.0,0.0,0.0,0.0,0.0,0.0,0.0,0.0,0.0,0.0,0.0,0.0,0.0,0.0,0.0,0.0,0.0,0.0,0.0,-3.2334,-3.2238,-3.1729,-3.1705,-3.1705,-3.1705,-3.1187,-3.0645,-3.0086,-2.9845,-2.9424,-2.8883,-2.9172,-2.9436,0.0,0.0,0.0,-2.9701,-2.946,-2.9051,-2.8555,-2.8378,-2.794,-2.726,-2.6048,-2.5519,-2.5198,0.0,0.0,0.0,0.0,0.0,0.0,0.0,0.0,0.0,0.0,0.0,0.0,0.0,0.0,0.0,0.0,0.0,0.0,0.0,0.0,0.0,0.0,-1.5286,-1.5756,-1.5672,-1.5756,-1.6295,-1.7267,-1.7351,-1.764,-1.8097,-1.8542,-1.7953,-1.6463,-1.6102,-1.5876,-1.5792,-1.5792,-1.584,-1.5912,-1.5912,0.0,0.0,0.0,0.0,0.0,0.0,0.0,0.0,-1.8001,-1.7959,-1.7683,-1.8584,0.0,0.0,0.0,0.0,0.0,-1.6375,-1.776,-1.9389,-1.8546,-1.8181,-1.7976,-1.7888,0.0,0.0,0.0,0.0,0.0,0.0,0.0,0.0,0.0,0.0,0.0,0.0,0.0,0.0,0.0,0.0,0.0,0.0,0.0,0.0,0.0,0.0,0.0,0.0,-3.237,-3.2154,-3.1717,-3.1633,-3.1585,-3.1585,-3.1067,-3.053,-3.0074,-2.9556,-2.9256,-2.9184,-2.9256,-2.9593,-3.0062,0.0,0.0,-2.9496,-2.8967,-2.8438,-2.7915,-2.7544,-2.7575,-2.7561,-2.5393,-2.5402,-2.6185,0.0,0.0,0.0,0.0,0.0,0.0,0.0,0.0,0.0,0.0,0.0,0.0,0.0,0.0,0.0,0.0,0.0,0.0,0.0,0.0,0.0,-1.4893,-1.549,-1.5588,-1.5133,-1.5564,-1.6092,-1.6715,-1.7171,-1.7423,-1.7507,-1.7616,-1.7027,-1.5946,-1.6319,-1.6235,-1.5792,-1.5792,-1.6056,-1.6487,-1.6487,0.0,0.0,0.0,0.0,0.0,0.0,0.0,0.0,-1.8662,-1.8509,-1.8114,-1.8272,0.0,0.0,0.0,0.0,0.0,-1.7134,-1.871,-1.9757,-1.6967,-1.689,-1.7388,-1.694,0.0,0.0,0.0,0.0,0.0,0.0,0.0,0.0,0.0,0.0,0.0,0.0,0.0,0.0,0.0,0.0,0.0,0.0,0.0,0.0,0.0,0.0,0.0,0.0,-3.1837,-3.1801,-3.1705,-3.1271,-3.1043,-3.1043,-3.047,-3.017,-3.0074,-2.9556,-2.9063,-2.8643,-2.9088,-2.9593,-3.0062,0.0,-2.9809,-3.0591,-3.0062,-2.9532,-2.9015,-2.8482,-2.8331,-2.8092,-2.5798,-2.5577,-2.6185,0.0,0.0,0.0,0.0,0.0,0.0,0.0,0.0,0.0,0.0,0.0,0.0,0.0,0.0,0.0,0.0,0.0,0.0,0.0,0.0,-1.5432,-1.5432,-1.5672,-1.5816,-1.5852,-1.6114,-1.6643,-1.7447,-1.7724,-1.7845,-1.7832,-1.7617,-1.7219,-1.6667,-1.6712,-1.6375,-1.5792,-1.5792,-1.6104,-1.6607,0.0,0.0,0.0,0.0,0.0,0.0,0.0,0.0,0.0,0.0,-1.7784,-1.7327,-1.7327,0.0,0.0,0.0,0.0,0.0,-1.6483,-1.7433,-1.8086,-1.659,-1.7727,-1.8867,-1.7738,-1.7231,0.0,0.0,0.0,0.0,0.0,0.0,0.0,0.0,0.0,0.0,0.0,0.0,0.0,0.0,0.0,0.0,0.0,0.0,0.0,0.0,0.0,0.0,0.0,0.0,-3.1705,-3.1705,-3.1199,-3.0922,-3.0922,-3.0074,-2.9665,-2.9653,-2.9124,-2.8751,-2.8522,-2.8763,-2.9003,-2.922,0.0,-2.9148,-2.9581,-2.934,-2.8919,-2.845,-2.8498,-2.833,-2.7877,-2.6367,-2.5328,-2.4548,0.0,0.0,0.0,0.0,0.0,0.0,0.0,0.0,0.0,0.0,0.0,0.0,0.0,0.0,0.0,0.0,0.0,0.0,0.0,-1.5286,-1.5792,-1.5792,-1.5912,-1.6187,-1.6595,-1.6607,-1.7123,-1.8205,-1.8205,-1.8231,-1.8244,-1.7896,-1.7581,-1.7255,-1.7036,-1.6506,-1.5804,-1.5924,-1.6307,-1.6799,0.0,0.0,0.0,0.0,0.0,0.0,0.0,0.0,0.0,0.0,0.0,0.0,0.0,0.0,0.0,-1.6451,-1.6126,-1.5816,-1.5936,-1.6493,-1.6974,-1.6834,-1.8363,-1.969,-1.8766,-1.8253,-1.8157,0.0,0.0,0.0,0.0,0.0,0.0,0.0,0.0,0.0,0.0,0.0,0.0,0.0,0.0,0.0,0.0,0.0,0.0,0.0,0.0,0.0,0.0,0.0,-3.1524,-3.1524,-3.0886,-3.0549,-3.0549,-2.9581,-2.9172,-2.9292,-2.8763,-2.851,-2.851,-2.851,-2.8582,-2.8691,-2.8558,-2.8582,-2.8679,-2.8426,-2.8089,-2.7714,-2.7794,-2.7254,-2.6433,-2.6238,-2.4732,-2.2867,0.0,0.0,0.0,0.0,0.0,0.0,0.0,0.0,0.0,0.0,0.0,0.0,0.0,0.0,0.0,0.0,0.0,0.0,0.0,-1.548,-1.5792,-1.5792,-1.6283,-1.6559,-1.6607,-1.6607,-1.7123,-1.8205,-1.8205,-1.8269,-1.8384,-1.8233,-1.769,-1.6853,-1.7195,-1.6786,-1.5828,-1.6331,-1.6847,-1.74,-1.7893,0.0,0.0,0.0,0.0,0.0,0.0,0.0,0.0,0.0,0.0,0.0,0.0,0.0,-1.6511,-1.5984,-1.5828,-1.59,-1.6415,-1.7401,-1.8129,-1.7496,-1.7496,-1.8003,-1.9375,-1.9664,-1.9913,-2.0959,0.0,0.0,0.0,0.0,0.0,0.0,0.0,0.0,0.0,0.0,0.0,0.0,0.0,0.0,0.0,0.0,0.0,0.0,0.0,0.0,0.0,0.0,0.0,-3.097,-2.9941,-2.9412,-2.9412,-2.8847,-2.8811,-2.9292,-2.8763,-2.851,-2.851,-2.851,-2.8775,-2.9208,-2.8727,-2.8787,-2.9172,-2.8186,-2.7714,-2.7553,-2.6306,-2.4576,-2.2982,-2.4535,-2.3794,-2.2031,0.0,0.0,0.0,0.0,0.0,0.0,0.0,0.0,0.0,0.0,0.0,0.0,0.0,0.0,0.0,0.0,0.0,0.0,0.0,-1.5504,-1.5792,-1.5792,-1.6319,-1.6763,-1.7087,-1.7411,-1.7796,-1.8205,-1.853,-1.8544,-1.8269,-1.8645,-1.8416,-1.7678,-1.7933,-1.7569,-1.6811,-1.7003,-1.7399,-1.7917,-1.8121,-1.8518,0.0,0.0,0.0,0.0,0.0,0.0,0.0,0.0,-1.7207,-1.6547,-1.6223,-1.6331,-1.6499,-1.5948,-1.5792,-1.584,-1.6054,-1.6926,-1.7726,-1.746,-1.7905,-1.8819,-2.043,-2.1043,-2.1668,-2.3063,-2.3604,0.0,0.0,0.0,0.0,0.0,0.0,0.0,0.0,0.0,0.0,0.0,0.0,0.0,0.0,0.0,0.0,0.0,0.0,0.0,0.0,0.0,0.0,-3.0398,-2.9677,-2.9304,-2.9304,-2.8775,-2.8607,-2.8811,-2.8607,-2.851,-2.851,-2.851,-2.8619,-2.8799,-2.8595,-2.8619,-2.8751,-2.7978,-2.7921,-2.8071,-2.6702,-2.484,-2.2965,-2.3631,-2.3053,-2.1904,0.0,0.0,0.0,0.0,0.0,0.0,0.0,0.0,0.0,0.0,0.0,0.0,0.0,0.0,0.0,0.0,0.0,0.0,-1.5253,-1.5744,-1.6044,-1.6044,-1.6727,-1.7195,-1.7412,-1.8097,-1.8374,-1.8205,-1.8398,-1.8533,-1.8586,-1.8792,-1.8598,-1.809,-1.8273,-1.7883,-1.7159,-1.7495,-1.7869,-1.8217,-1.8386,-1.8662,0.0,0.0,0.0,0.0,0.0,0.0,0.0,0.0,-1.6895,-1.6511,-1.596,-1.6054,-1.6283,-1.5922,-1.5792,-1.5792,-1.5792,-1.6343,-1.7015,-1.7544,-1.8205,-1.9468,-2.2246,-2.2907,-2.3472,-2.5384,-2.5805,-2.5769,0.0,0.0,0.0,0.0,0.0,0.0,0.0,0.0,0.0,0.0,0.0,0.0,0.0,0.0,0.0,0.0,0.0,0.0,0.0,0.0,0.0,0.0,-2.9328,-2.8967,-2.8799,-2.8438,-2.8174,-2.7978,-2.7978,-2.8186,-2.851,-2.851,-2.8414,-2.8258,-2.8258,-2.8162,-2.7969,-2.7428,-2.7165,-2.7056,-2.6246,-2.4719,-2.2961,-2.2959,-2.2514,-2.1846,0.0,0.0,0.0,0.0,0.0,0.0,0.0,0.0,0.0,0.0,0.0,0.0,0.0,0.0,0.0,0.0,0.0,0.0,-1.5804,-1.6307,-1.6607,-1.6607,-1.764,-1.7953,-1.7436,-1.8446,-1.8734,-1.8205,-1.7676,-1.809,-1.937,-1.8586,-1.8054,-1.7823,-1.8065,-1.7616,-1.6691,-1.776,-1.8205,-1.8253,-1.8782,-1.8987,-1.8987,0.0,0.0,0.0,0.0,0.0,0.0,0.0,-1.6607,-1.6499,-1.596,-1.5792,-1.5804,-1.5792,-1.5792,-1.5804,-1.5792,-1.5804,-1.62,-1.782,0.0,0.0,-2.4903,-2.5276,-2.524,-2.7969,-2.7654,-2.6753,-2.6226,0.0,0.0,0.0,0.0,0.0,0.0,0.0,0.0,0.0,0.0,0.0,0.0,0.0,0.0,0.0,0.0,0.0,0.0,0.0,0.0,0.0,-2.8775,-2.8258,-2.7678,-2.7678,-2.7414,-2.6898,-2.6898,-2.745,-2.8498,-2.8498,-2.8222,-2.769,-2.769,-2.739,-2.6861,-2.6334,-2.5376,-2.4266,-2.4619,-2.3863,-2.2477,-2.2412,-2.2171,-2.1758,0.0,0.0,0.0,0.0,0.0,0.0,0.0,0.0,0.0,0.0,0.0,0.0,0.0,0.0,0.0,0.0,0.0,0.0,-1.6343,-1.6511,-1.6763,-1.7135,-1.7845,-1.8133,-1.7977,-1.8277,-1.8362,-1.8205,-1.8422,-1.8545,-1.8574,-1.8714,-1.8521,-1.8077,-1.8158,-1.8025,-1.776,-1.8061,-1.8422,-1.877,-1.8927,-1.8987,-1.8987,0.0,0.0,0.0,0.0,0.0,0.0,0.0,0.0,0.0,-1.584,-1.6066,-1.6295,-1.59,-1.6078,-1.6283,-1.5888,-1.6895,0.0,-1.8638,0.0,0.0,0.0,-2.5276,0.0,0.0,-2.9076,-2.8546,0.0,0.0,0.0,0.0,0.0,0.0,0.0,0.0,0.0,0.0,0.0,0.0,0.0,0.0,0.0,0.0,0.0,0.0,0.0,0.0,0.0,0.0,-2.8402,-2.8077,-2.7138,-2.7498,-2.7414,-2.6898,-2.6898,-2.7258,-2.7957,-2.7957,-2.8077,-2.827,-2.827,-2.7981,-2.7402,-2.6873,-2.588,-2.4702,-2.457,-2.3727,-2.2533,-2.219,-2.1776,-2.1387,0.0,0.0,0.0,0.0,0.0,0.0,0.0,0.0,0.0,0.0,-1.5792,-1.5792,0.0,0.0,0.0,0.0,0.0,0.0,0.0,-1.6991,-1.7388,-1.7712,-1.8229,-1.8518,-1.8518,-1.8518,-1.8518,-1.8518,-1.8626,-1.8652,-1.8607,-1.8869,-1.8724,-1.8269,-1.8231,-1.8205,-1.8193,-1.7977,-1.8193,-1.8662,-1.8446,-1.8362,-1.8362,0.0,0.0,0.0,0.0,0.0,0.0,0.0,0.0,0.0,-1.5886,-1.6175,-1.6547,-1.62,-1.6355,-1.6583,-1.6475,-1.7544,0.0,-1.9732,-2.156,-2.3697,-2.5648,0.0,0.0,0.0,0.0,0.0,0.0,0.0,0.0,0.0,0.0,0.0,0.0,0.0,0.0,0.0,0.0,0.0,0.0,0.0,0.0,0.0,0.0,0.0,0.0,0.0,0.0,0.0,-2.7825,-2.7438,-2.661,-2.6911,-2.6815,-2.6249,-2.6249,-2.6562,-2.7091,-2.727,-2.7546,-2.7822,-2.707,-2.6576,-2.6219,-2.5912,-2.5018,-2.3919,-2.4034,-2.3356,-2.2271,-2.1983,-2.1611,-2.119,0.0,0.0,0.0,0.0,0.0,0.0,0.0,0.0,0.0,0.0,-1.5934,-1.5958,0.0,0.0,0.0,0.0,0.0,0.0,0.0,-1.7664,-1.8229,-1.8277,-1.8734,-1.9011,-1.9059,-1.9011,-1.9035,-1.9143,-1.8602,-1.863,-1.917,-1.91,-1.8825,-1.8384,-1.8244,-1.8205,-1.8169,-1.7688,-1.7796,-1.8229,-1.77,-1.7495,-1.7531,-1.7496,0.0,0.0,0.0,0.0,0.0,0.0,0.0,0.0,-1.5936,-1.6211,-1.6667,-1.6619,-1.6631,-1.6787,-1.7315,-1.7905,0.0,-2.1019,-2.2197,0.0,-2.5913,0.0,0.0,0.0,0.0,0.0,0.0,0.0,0.0,0.0,0.0,0.0,0.0,0.0,0.0,0.0,0.0,0.0,0.0,0.0,0.0,0.0,0.0,0.0,0.0,0.0,0.0,-2.7572,-2.7114,-2.6609,-2.6033,-2.6069,-2.5829,-2.5312,-2.5312,-2.5588,-2.6117,-2.6585,-2.6849,-2.68,-2.503,-2.4225,-2.4177,-2.4131,-2.3493,-2.2577,-2.3245,-2.2856,-2.195,-2.1906,-2.1611,-2.119,0.0,0.0,0.0,0.0,0.0,0.0,0.0,0.0,0.0,0.0,0.0,0.0,0.0,0.0,0.0,0.0,0.0,0.0,0.0,-1.8073,-1.8386,-1.8806,-1.8927,-1.9191,-1.9627,-1.923,-1.9408,-2.0273,-1.9708,-1.9314,-1.9064,-1.9447,-1.9134,-1.8244,-1.8205,-1.8205,-1.8193,-1.8085,-1.8338,-1.877,-1.8241,-1.8277,-1.8602,-1.8193,-1.7772,0.0,0.0,0.0,0.0,0.0,0.0,0.0,-1.5828,-1.6463,-1.7135,-1.6715,-1.6895,-1.7364,-1.7893,-1.8722,0.0,0.0,-2.5228,-2.8029,-2.9003,0.0,0.0,0.0,0.0,0.0,0.0,0.0,0.0,0.0,0.0,0.0,0.0,0.0,0.0,0.0,0.0,0.0,0.0,0.0,0.0,0.0,0.0,0.0,0.0,0.0,-2.6861,-2.6466,-2.6729,-2.6429,-2.5492,-2.5889,-2.5829,0.0,-2.5312,-2.5588,-2.6105,-2.6226,-2.6514,-2.6861,-2.603,-2.5318,-2.4708,-2.4281,-2.3865,-2.3437,-2.2879,-2.2561,-2.2399,-2.2045,-2.1611,-2.119,0.0,0.0,0.0,0.0,0.0,0.0,0.0,0.0,0.0,0.0,0.0,0.0,0.0,0.0,0.0,0.0,0.0,0.0,0.0,0.0,-1.8698,-1.8975,-1.8987,-1.9266,-1.9796,-1.9543,-1.978,-2.0581,-2.0574,-2.0153,-1.9399,-1.9676,-1.9348,-1.8578,-1.8578,-1.8722,-1.8903,-1.8145,-1.8133,-1.8542,-1.776,-1.746,-1.7484,-1.7423,-1.7099,-1.6631,-1.6631,0.0,0.0,0.0,0.0,0.0,0.0,0.0,-1.6955,-1.6679,-1.6799,-1.7243,-1.8301,0.0,0.0,-2.3749,0.0,-2.9063,-2.9593,0.0,0.0,0.0,0.0,0.0,0.0,0.0,0.0,0.0,0.0,0.0,0.0,0.0,0.0,0.0,0.0,0.0,0.0,0.0,0.0,0.0,0.0,0.0,0.0,-2.6789,-2.6406,-2.6105,-2.6129,-2.5889,-2.5312,-2.5588,-2.5588,-2.5312,-2.5312,-2.5456,-2.5733,-2.5973,-2.6117,-2.6105,-2.543,-2.4705,-2.397,-2.3674,-2.3051,-2.2272,-2.2167,-2.1906,-2.1626,-2.1568,-2.1299,-2.0947,0.0,0.0,0.0,0.0,0.0,0.0,0.0,0.0,0.0,0.0,0.0,0.0,0.0,0.0,0.0,0.0,0.0,0.0,0.0,0.0,0.0,-1.8987,-1.8987,-1.9266,-1.9796,-1.9808,-2.0105,-2.0754,-2.1284,-2.1079,-2.0217,-2.0009,-1.9588,-1.8999,-1.9083,-1.9372,-1.9724,-1.8482,-1.8157,-1.8386,-1.7399,-1.6751,-1.6391,-1.6643,-1.6463,-1.6056,-1.596,-1.5876,-1.5792,-1.5792,0.0,0.0,0.0,0.0,-1.6607,-1.6607,-1.6607,-1.6943,-1.8554,0.0,-2.1933,-2.5155,-2.7248,0.0,0.0,0.0,0.0,0.0,0.0,0.0,0.0,0.0,0.0,0.0,0.0,0.0,0.0,0.0,0.0,0.0,0.0,0.0,0.0,0.0,0.0,0.0,0.0,0.0,-2.6753,-2.6262,-2.5961,-2.5961,-2.554,-2.5312,-2.5312,-2.5312,-2.5312,-2.5312,-2.5312,-2.5312,-2.5324,-2.5757,-2.5721,-2.5264,-2.46,-2.3793,-2.2995,-2.2995,-2.2059,-2.0683,-2.1308,-2.1203,-2.0644,-2.0986,-2.0889,-2.0664,0.0,0.0,0.0,0.0,0.0,0.0,0.0,0.0,0.0,0.0,-1.8494,0.0,0.0,0.0,0.0,0.0,0.0,0.0,0.0,0.0,0.0,-1.8987,-1.8987,-1.9266,-1.9796,-1.9808,-2.0286,-2.1296,-2.1825,-2.2017,-2.1849,-2.0935,-1.9961,-1.9011,-1.9495,-1.9736,-1.982,-2.0081,-1.9949,-1.9516,-1.8915,-1.8638,-1.8482,-1.7628,-1.7243,-1.7123,-1.6655,-1.6199,-1.5792,-1.5792,-1.5792,0.0,0.0,0.0,-1.6607,-1.6607,-1.6607,-1.6943,0.0,0.0,-2.3722,0.0,-2.6971,-2.8522,0.0,0.0,0.0,0.0,0.0,0.0,0.0,0.0,0.0,0.0,0.0,0.0,0.0,0.0,0.0,0.0,0.0,0.0,0.0,0.0,0.0,0.0,0.0,0.0,-2.6214,-2.5709,-2.5408,-2.5408,-2.5348,-2.5312,-2.5312,-2.5312,-2.5312,-2.5312,-2.5312,-2.5312,-2.5312,-2.5384,-2.5372,-2.53,-2.5194,-2.4312,-2.2995,-2.2995,-2.2059,-2.0605,-2.0712,-2.0683,-2.0615,-2.0674,-2.0654,-2.0615,0.0,0.0,0.0,0.0,0.0,0.0,0.0,0.0,0.0,0.0,0.0,-1.8987,0.0,0.0,0.0,0.0,0.0,0.0,0.0,0.0,0.0,-1.9459,-1.9732,-2.0153,-2.067,-2.0694,-2.1067,-2.1849,-2.2378,-2.2486,-2.2185,-2.1716,-2.1079,-2.037,-2.0899,-2.0971,-2.0706,-2.0947,-2.0562,-1.976,-1.923,-1.8638,-1.8085,-1.7917,-1.7651,-1.7363,-1.7123,-1.6895,-1.6703,0.0,-1.6703,-1.6703,-1.6703,0.0,0.0,0.0,-1.6391,-1.6631,-1.8843,-2.1373,-2.3685,0.0,-2.6021,0.0,0.0,0.0,0.0,0.0,0.0,0.0,0.0,0.0,0.0,0.0,0.0,0.0,0.0,0.0,0.0,0.0,0.0,0.0,0.0,0.0,0.0,0.0,0.0,-2.5661,-2.5661,-2.5432,-2.5312,-2.5312,-2.5312,-2.5312,-2.5312,-2.5312,-2.5312,-2.5312,-2.5312,-2.5312,-2.5312,-2.5312,-2.5312,-2.5312,-2.5312,-2.4432,-2.2995,-2.2995,-2.2059,-2.0605,-2.0605,-2.0605,-2.0605,-2.0605,-2.0605,-2.0605,0.0,0.0,0.0,0.0,0.0,0.0,0.0,0.0,0.0,0.0,0.0,0.0,0.0,0.0,0.0,0.0,0.0,0.0,0.0,0.0,0.0,-2.0013,-2.0394,-2.0803,-2.1199,-2.1332,-2.1596,-2.1993,-2.2522,-2.2654,-2.239,-2.2258,-2.2053,-2.1813,-2.1933,-2.1777,-2.1416,-2.1548,-2.0983,-1.9989,-1.9579,-1.8758,-1.7845,-1.8097,-1.8049,-1.7796,-1.7639,-1.7616,0.0,0.0,0.0,0.0,0.0,0.0,0.0,0.0,0.0,0.0,0.0,0.0,-2.269,-2.3989,0.0,0.0,0.0,0.0,0.0,0.0,0.0,0.0,0.0,0.0,0.0,0.0,0.0,0.0,0.0,0.0,0.0,0.0,0.0,0.0,0.0,0.0,0.0,0.0,0.0,-2.5312,-2.5312,-2.5312,-2.5312,-2.5312,-2.5312,-2.5312,-2.5312,-2.5312,-2.5312,-2.5312,-2.5312,-2.5312,-2.5312,-2.5312,-2.5312,-2.5312,-2.5312,-2.4528,-2.3279,-2.3058,-2.2172,-2.0867,-2.0683,-2.0605,-2.0605,-2.0605,-2.0605,-2.0605,0.0,0.0,0.0,0.0,0.0,0.0,0.0,0.0,0.0,0.0,0.0,0.0,-1.8987,-1.8987,-1.8987,-1.8987,-1.8987,0.0,0.0,0.0,0.0,-2.055,-2.0598,0.0,-2.0629,-2.1151,-2.1416,-2.144,-2.1969,-2.2474,-2.2963,-2.2426,-2.245,-2.2859,-2.1873,-2.1428,-2.144,-2.1945,-2.1536,-2.0562,-2.0543,-1.988,-1.8855,-1.8386,-1.8494,-1.8843,-1.8338,0.0,0.0,0.0,0.0,0.0,0.0,-1.7375,-1.7351,0.0,0.0,0.0,0.0,-1.9865,0.0,-2.1464,0.0,0.0,0.0,0.0,0.0,0.0,0.0,0.0,0.0,0.0,0.0,0.0,0.0,0.0,0.0,0.0,0.0,0.0,0.0,0.0,0.0,0.0,0.0,0.0,0.0,-2.5312,-2.5312,-2.5312,-2.5312,-2.5312,-2.5312,-2.5312,-2.5312,-2.5312,-2.5312,-2.5312,-2.5312,-2.5312,-2.5312,-2.5312,-2.5312,-2.5312,-2.5312,-2.4826,-2.4,-2.3279,-2.251,-2.1652,-2.0905,-2.0605,-2.0605,-2.0605,-2.0605,-2.0605,0.0,0.0,0.0,0.0,0.0,0.0,0.0,0.0,0.0,0.0,0.0,0.0,0.0,-1.9724,-1.9664,-2.0001,-2.0021,0.0,0.0,0.0,0.0,-2.1115,-2.144,-2.1632,-2.1632,-2.1813,-2.1909,-2.1909,-2.2438,-2.283,-2.3011,-2.2787,-2.283,-2.3011,-2.2975,-2.2546,-2.1969,-2.2835,-2.2402,-2.1115,-2.1115,-2.067,-2.0045,-2.0201,-2.0165,0.0,0.0,0.0,0.0,0.0,0.0,0.0,-1.8422,-1.8193,-1.7857,-1.7495,-1.8025,0.0,0.0,0.0,0.0,0.0,0.0,0.0,0.0,0.0,0.0,0.0,0.0,0.0,0.0,0.0,0.0,0.0,0.0,0.0,0.0,0.0,0.0,0.0,0.0,0.0,0.0,0.0,0.0,0.0,0.0,0.0,-2.5312,-2.5312,-2.5312,-2.5312,-2.5312,-2.5312,-2.5312,-2.5312,-2.5312,-2.5312,-2.5312,-2.5312,-2.5312,-2.5312,-2.5016,-2.4528,-2.4528,-2.4084,-2.3316,-2.2537,-2.1766,-2.1011,-2.0712,-2.0605,-2.0605,-2.0605,-2.0605,-2.0605,0.0,0.0,0.0,0.0,0.0,0.0,0.0,0.0,0.0,-2.0001,0.0,0.0,0.0,0.0,-2.0201,-2.0579,-2.0598,-2.0682,-2.0868,-2.1199,-2.1488,-2.1668,-2.2005,-2.2197,-2.2197,-2.2017,-2.2017,-2.2197,-2.2366,-2.263,-2.3011,-2.3011,-2.3107,-2.33,-2.383,-2.3436,-2.2486,-2.3047,-2.263,-2.1656,-2.1476,-2.1091,-2.0629,0.0,0.0,0.0,0.0,0.0,0.0,0.0,0.0,0.0,0.0,-1.8891,-1.8398,-1.8049,-1.8434,0.0,-1.8987,0.0,0.0,0.0,0.0,0.0,0.0,0.0,0.0,0.0,0.0,0.0,0.0,0.0,0.0,0.0,0.0,0.0,0.0,0.0,0.0,0.0,0.0,0.0,0.0,0.0,0.0,0.0,0.0,0.0,-2.5312,-2.5312,-2.5228,-2.5047,-2.5216,-2.5216,-2.5047,-2.5216,-2.5312,-2.5312,-2.5312,-2.5312,-2.5276,-2.5016,-2.46,-2.4072,-2.3562,-2.3206,-2.2957,-2.2134,-2.1499,-2.0982,-2.0722,-2.0605,-2.0605,-2.0605,-2.0605,-2.0605,0.0,0.0,0.0,0.0,0.0,0.0,0.0,0.0,-2.0025,-2.0543,0.0,0.0,0.0,0.0,0.0,-2.0653,-2.0653,-2.0911,-2.144,-2.1476,-2.1704,-2.2209,0.0,0.0,-2.2246,-2.174,-2.1728,-2.2246,-2.1728,-2.1993,-2.3035,-2.3035,-2.3312,-2.383,-2.4278,-2.3941,-2.2999,-2.2462,-2.2234,-2.2173,0.0,-2.1115,-2.0658,0.0,0.0,0.0,-2.2426,-2.2558,0.0,0.0,0.0,0.0,0.0,-1.9447,-1.8987,-1.8987,-1.8987,0.0,0.0,0.0,0.0,0.0,0.0,0.0,0.0,0.0,0.0,0.0,0.0,0.0,0.0,0.0,0.0,0.0,0.0,0.0,0.0,0.0,0.0,0.0,0.0,0.0,0.0,0.0,0.0,0.0,-2.53,-2.5288,-2.5312,-2.5312,-2.5059,-2.4518,-2.5023,-2.5059,-2.4496,-2.5035,-2.5312,-2.5312,-2.5312,-2.5312,-2.5276,-2.4492,-2.4108,-2.3963,-2.2499,-2.2247,-2.2883,-2.2096,-2.1756,-2.169,-2.0905,-2.0605,-2.0605,-2.0605,-2.0605,-2.0605,0.0,0.0,0.0,0.0,0.0,0.0,-2.037,-2.0382,-2.0574,0.0,0.0,0.0,-2.2246,-2.233,-2.233,-2.233,-2.233,-2.2546,-2.3119,-2.3144,-2.3216,-2.336,-2.3372,-2.3372,-2.3372,-2.3216,-2.3216,-2.3372,-2.3216,-2.33,-2.3589,-2.3589,-2.3661,-2.3806,-2.395,-2.3854,-2.3577,-2.3433,-2.3144,-2.2746,-2.2185,-2.1885,0.0,0.0,0.0,0.0,0.0,-2.3244,-2.251,0.0,-2.2204,-2.0622,0.0,0.0,-1.8987,-1.8987,-1.8987,0.0,-1.8987,0.0,0.0,0.0,0.0,0.0,0.0,0.0,0.0,0.0,0.0,0.0,0.0,0.0,0.0,0.0,0.0,0.0,0.0,0.0,0.0,0.0,0.0,0.0,0.0,0.0,0.0,0.0,-2.4951,-2.4903,-2.5288,-2.5312,-2.4903,-2.4001,-2.4843,-2.5059,-2.4496,-2.5035,-2.5312,-2.5312,-2.5312,-2.5312,-2.5276,-2.5087,-2.4348,-2.3279,-2.2835,-2.2134,-2.1242,-2.1011,-2.0944,-2.0905,-2.0683,-2.0605,-2.0605,-2.0605,-2.0605,-2.0605,0.0,0.0,0.0,0.0,0.0,-2.0737,-2.1211,-2.1272,-2.1548,0.0,0.0,0.0,-2.2975,-2.2787,-2.2751,-2.2999,-2.3011,-2.324,-2.377,-2.3806,-2.3806,-2.3806,-2.3806,-2.3806,-2.3806,-2.3589,-2.3589,-2.3806,-2.3806,-2.3914,-2.4085,-2.4302,-2.4444,-2.4444,-2.4444,-2.4444,-2.4386,-2.3986,0.0,0.0,-2.2402,0.0,0.0,-2.2566,-2.2739,0.0,0.0,0.0,-2.3256,-2.3869,-2.3039,0.0,0.0,0.0,0.0,0.0,0.0,0.0,0.0,0.0,0.0,0.0,0.0,0.0,-1.8434,-1.9167,0.0,0.0,0.0,0.0,0.0,0.0,0.0,0.0,0.0,0.0,0.0,0.0,0.0,0.0,0.0,0.0,0.0,0.0,0.0,-2.4662,-2.4374,-2.4338,-2.465,-2.4662,-2.429,-2.3505,-2.4434,-2.4735,-2.4206,-2.4939,-2.5312,-2.5312,-2.5312,-2.5312,-2.5276,-2.4647,-2.3841,-2.2947,-2.2285,-2.1461,-2.0605,-2.0605,-2.0605,-2.0605,-2.0605,-2.0605,-2.0605,-2.0605,-2.0605,-2.0605,0.0,0.0,-2.0133,-2.0615,-2.073,-2.1103,-2.2053,-2.2246,-2.2594,0.0,-2.3673,-2.3541,-2.3039,-2.2558,-2.2474,-2.2975,-2.3039,-2.3324,-2.3854,-2.3938,-2.3974,-2.3974,-2.3974,-2.3974,-2.3974,-2.3517,-2.3505,-2.3974,-2.3974,-2.4169,-2.4614,-2.5083,-2.5312,-2.5312,-2.5312,-2.5252,-2.5071,0.0,0.0,-2.2975,-2.2493,-2.2349,0.0,0.0,-2.2975,0.0,-2.3866,-2.4145,-2.4484,-2.4484,-2.352,0.0,0.0,0.0,0.0,0.0,-1.9904,0.0,0.0,0.0,0.0,0.0,0.0,0.0,-1.7905,-1.8458,-1.8891,0.0,0.0,0.0,0.0,0.0,0.0,0.0,0.0,0.0,0.0,0.0,0.0,0.0,0.0,0.0,0.0,-2.3806,-2.3806,-2.3806,-2.3806,-2.3758,-2.3637,-2.3746,-2.3541,-2.2939,-2.3953,-2.4278,-2.3806,-2.4795,-2.5312,-2.5312,-2.5312,-2.5312,-2.5229,-2.3804,-2.3058,-2.292,-2.1385,-2.0673,-2.0605,-2.0605,-2.0605,-2.0605,-2.0605,-2.0605,-2.0605,-2.0605,-2.0605,-2.0605,0.0,0.0,-2.1115,-2.1223,-2.1596,-2.1957,-2.2161,-2.2558,-2.2751,-2.2534,-2.2903,-2.3132,-2.3023,-2.2927,-2.2903,-2.2999,-2.3396,-2.3866,-2.4338,-2.4771,-2.5011,-2.5011,-2.5011,-2.5011,-2.5011,-2.4903,-2.4903,-2.5011,-2.5011,-2.5059,-2.5155,-2.5264,-2.5312,-2.5312,-2.5312,-2.4843,-2.4083,0.0,0.0,-2.3147,-2.305,0.0,-2.3644,-2.3644,-2.3765,-2.4008,-2.4263,-2.4434,-2.4484,0.0,-2.3761,-2.2702,0.0,0.0,0.0,0.0,0.0,0.0,0.0,0.0,0.0,0.0,0.0,0.0,-1.9468,-1.9829,-2.0117,0.0,0.0,0.0,0.0,0.0,0.0,0.0,0.0,0.0,0.0,0.0,0.0,0.0,0.0,0.0,0.0,-2.3806,-2.3806,-2.3806,-2.3806,-2.3433,-2.2546,-2.3336,-2.3372,-2.2378,-2.3761,-2.4278,-2.3806,-2.4795,-2.5312,-2.5312,-2.5312,-2.5312,-2.5276,-2.4301,-2.3573,-2.2957,-2.1983,-2.1203,-2.0605,-2.0605,-2.0605,-2.0605,-2.0605,-2.0605,-2.0605,-2.0605,-2.0605,-2.0605,0.0,-2.1031,-2.1488,-2.1753,-2.2017,-2.2282,-2.2546,-2.2843,-2.3011,-2.3011,-2.3011,-2.3011,-2.3011,-2.2751,-2.2702,-2.2987,-2.3493,-2.4011,-2.446,-2.5011,-2.5312,-2.5312,-2.5312,-2.5312,-2.5312,-2.5312,-2.5312,-2.5312,-2.5312,-2.5312,-2.5312,-2.5382,-2.5175,-2.4679,-2.5048,-2.4587,-2.3494,0.0,-2.3559,-2.3587,-2.332,0.0,-2.4013,-2.4013,-2.3947,-2.3954,-2.4372,-2.4687,-2.4879,-2.4568,-2.4181,0.0,0.0,-2.2221,-2.1692,0.0,-2.0995,-2.0935,0.0,0.0,0.0,-2.0586,0.0,0.0,0.0,-1.9997,-2.0045,0.0,0.0,0.0,0.0,0.0,0.0,0.0,0.0,0.0,0.0,0.0,0.0,0.0,0.0,0.0,0.0,-2.3011,-2.3011,-2.3011,-2.3011,-2.2782,-2.2221,-2.2702,-2.2891,-2.2594,-2.3604,-2.4145,-2.4145,-2.4915,-2.5312,-2.5312,-2.5312,-2.5312,-2.5276,-2.4084,-2.3353,-2.2909,-2.1728,-2.0972,-2.0605,-2.0605,-2.0605,-2.0605,-2.0605,-2.0605,-2.0605,-2.0605,-2.0605,-2.0605,-2.1356,-2.1572,-2.1849,-2.227,-2.2342,-2.2486,-2.2919,-2.3011,-2.3204,-2.3734,-2.3348,-2.3047,-2.3156,-2.2782,-2.2751,-2.3376,-2.3758,-2.4133,-2.4604,-2.5071,-2.5264,-2.5155,-2.5252,-2.5312,-2.5312,-2.5312,-2.5312,-2.5312,-2.5312,-2.5312,-2.53,-2.5356,-2.4951,-2.4171,-2.4548,-2.4169,-2.3254,0.0,0.0,-2.3928,0.0,-2.3786,-2.4046,-2.4013,-2.3987,-2.4056,-2.4482,-2.4879,-2.5083,-2.4662,0.0,-2.423,-2.3388,-2.3095,0.0,0.0,0.0,0.0,0.0,0.0,0.0,0.0,0.0,-2.0779,0.0,0.0,0.0,-1.9408,0.0,0.0,0.0,0.0,0.0,0.0,0.0,0.0,0.0,0.0,0.0,0.0,0.0,0.0,0.0,-2.2041,-2.2041,-2.2041,-2.2041,-2.2041,-2.2041,-2.2137,-2.239,-2.2811,-2.3469,-2.3965,-2.4374,-2.4999,-2.5312,-2.5312,-2.5312,-2.5229,-2.5016,-2.361,-2.292,-2.2697,-2.1242,-2.0605,-2.0605,-2.0605,-2.0605,-2.0605,-2.0605,-2.0605,-2.0605,-2.0605,-2.0605,-2.0605,-2.1572,-2.2161,-2.2855,-2.2915,-2.2927,-2.2939,-2.2999,-2.3011,-2.3204,-2.3734,-2.3348,-2.3192,-2.3661,-2.3661,-2.4011,-2.4963,-2.4675,0.0,-2.518,0.0,-2.5095,-2.4592,-2.5059,-2.5312,-2.5312,-2.5312,-2.5312,-2.5312,-2.5312,-2.5312,-2.53,-2.4831,-2.4657,-2.4682,-2.3794,0.0,0.0,0.0,-2.3988,0.0,-2.4764,-2.4789,0.0,-2.4079,-2.4284,-2.4723,-2.507,-2.4951,-2.4568,0.0,-2.423,-2.3866,0.0,-2.3396,0.0,0.0,0.0,0.0,0.0,0.0,0.0,0.0,-2.2017,0.0,0.0,0.0,-2.1067,-2.0538,0.0,0.0,0.0,0.0,0.0,0.0,0.0,0.0,0.0,0.0,0.0,0.0,0.0,0.0,0.0,0.0,-2.1488,-2.1488,-2.1488,-2.1488,-2.1488,-2.1945,-2.2221,-2.2282,-2.3276,-2.383,-2.389,-2.4819,-2.5312,-2.5312,-2.5312,-2.4933,-2.4228,-2.339,-2.2622,-2.1869,-2.0972,-2.0605,-2.0605,-2.0605,-2.0605,-2.0605,-2.0605,-2.0605,-2.0605,-2.0605,-2.0605,-2.0605,-2.2402,-2.2919,0.0,-2.3469,-2.3469,-2.3372,-2.3059,-2.3011,-2.3095,-2.3312,-2.3421,-2.3782,-2.4566,0.0,0.0,0.0,0.0,-2.5597,0.0,0.0,-2.5235,-2.4542,0.0,0.0,-2.4843,-2.4855,-2.4999,-2.5312,-2.5312,-2.5155,-2.4843,-2.4729,-2.4205,-2.3417,-2.3475,0.0,-2.309,0.0,-2.4062,0.0,0.0,0.0,0.0,-2.4255,-2.4353,-2.4705,-2.5154,-2.4975,-2.4532,0.0,-2.4626,0.0,0.0,0.0,0.0,0.0,0.0,0.0,0.0,0.0,0.0,0.0,0.0,0.0,0.0,0.0,-2.1344,0.0,0.0,0.0,0.0,0.0,0.0,0.0,0.0,0.0,0.0,0.0,0.0,0.0,0.0,0.0,0.0,0.0,0.0,0.0,-2.0935,-2.1055,-2.1392,-2.1909,-2.233,-2.2642,-2.3408,-2.395,-2.4206,-2.4939,-2.5312,-2.5312,-2.5312,-2.4898,-2.4072,-2.3353,-2.2547,-2.1766,-2.0944,-2.0605,-2.0605,-2.0605,-2.0605,-2.0605,-2.0605,-2.0605,-2.0605,-2.0605,-2.0605,-2.0605,-2.34,0.0,0.0,0.0,-2.4044,-2.3875,-2.3312,-2.3107,-2.3135,-2.3568,-2.3953,0.0,-2.5841,-2.5925,0.0,0.0,-2.7675,-2.7335,0.0,0.0,-2.5656,0.0,0.0,0.0,0.0,0.0,-2.4566,-2.5095,-2.5095,-2.4891,-2.4518,-2.4522,-2.3826,-2.2639,0.0,-2.3022,-2.2806,0.0,0.0,-2.4439,-2.4595,-2.462,-2.4598,-2.4493,-2.4475,-2.4556,-2.5119,-2.4975,-2.4578,-2.4963,-2.4831,0.0,-2.4484,0.0,0.0,0.0,0.0,0.0,-2.2582,0.0,0.0,0.0,0.0,0.0,0.0,0.0,0.0,0.0,0.0,0.0,0.0,0.0,0.0,0.0,0.0,0.0,0.0,0.0,0.0,0.0,0.0,0.0,0.0,0.0,0.0,0.0,0.0,-2.0494,-2.073,-2.1668,-2.2306,-2.2534,-2.3372,-2.3974,-2.4314,-2.4975,-2.5312,-2.5312,-2.5087,-2.4564,-2.3756,-2.3021,-2.2247,-2.1423,-2.0867,-2.0605,-2.0605,-2.0605,-2.0605,-2.0605,-2.0605,-2.0605,-2.0605,-2.0605,-2.0605,-2.0605,-2.4436,-2.4631,0.0,0.0,0.0,0.0,0.0,0.0,0.0,0.0,0.0,0.0,0.0,0.0,0.0,0.0,0.0,-3.0188,-2.8882,0.0,-2.6445,0.0,0.0,-2.4472,0.0,0.0,0.0,-2.4542,-2.4542,-2.4508,-2.4472,-2.4059,-2.3594,-2.315,-2.2268,-2.2246,-2.2946,-2.366,-2.4004,-2.4117,-2.5159,-2.5173,-2.4603,0.0,-2.4655,-2.4556,-2.5119,0.0,0.0,-2.4508,-2.4496,0.0,0.0,0.0,0.0,0.0,0.0,0.0,0.0,0.0,0.0,-2.2823,0.0,0.0,0.0,0.0,-2.2161,0.0,0.0,0.0,0.0,0.0,-2.1488,-1.9384,0.0,0.0,0.0,0.0,0.0,0.0,0.0,0.0,0.0,0.0,0.0,0.0,0.0,0.0,-1.9095,-2.1055,-2.1969,-2.1464,-2.2987,-2.3806,-2.383,-2.4807,-2.5312,-2.5276,-2.4528,-2.3756,-2.3032,-2.2209,-2.1385,-2.0644,-2.0605,-2.0605,-2.0605,-2.0605,-2.0605,-2.0605,-2.0605,-2.0605,-2.0605,-2.0605,-2.0605,-2.0605,0.0,0.0,0.0,0.0,0.0,0.0,0.0,-2.405,0.0,0.0,0.0,0.0,0.0,-3.3105,-3.3535,0.0,0.0,-3.2581,-3.1046,-2.9468,0.0,0.0,0.0,-2.4261,0.0,0.0,0.0,0.0,0.0,-2.435,-2.4013,-2.3878,-2.3389,-2.2676,0.0,-2.2794,0.0,0.0,0.0,0.0,0.0,-2.5332,-2.4953,0.0,0.0,-2.4774,-2.5307,-2.508,0.0,-2.4927,-2.4772,-2.4544,-2.4927,-2.4807,-2.4484,-2.4484,-2.4037,0.0,0.0,0.0,-2.2234,-2.2414,0.0,0.0,0.0,0.0,0.0,0.0,0.0,0.0,0.0,0.0,-2.1428,-2.0706,-1.9997,-1.9408,0.0,0.0,0.0,0.0,0.0,0.0,0.0,0.0,0.0,0.0,-1.8338,0.0,0.0,-2.0887,-2.1753,-2.1921,-2.3156,-2.3806,-2.3806,-2.4795,-2.5312,-2.5276,-2.448,-2.3708,-2.2957,-2.2172,-2.1346,-2.0605,-2.0605,-2.0605,-2.0605,-2.0605,-2.0605,-2.0605,-2.0605,-2.0605,-2.0605,-2.0605,-2.0605,-2.0605,-2.4464,0.0,0.0,0.0,0.0,0.0,0.0,0.0,0.0,0.0,-3.1041,0.0,-3.5704,0.0,-3.634,0.0,-3.6058,-3.4699,-3.2338,-3.11,0.0,-2.7839,-2.6078,0.0,0.0,0.0,0.0,0.0,0.0,-2.3809,-2.3517,-2.355,-2.3175,-2.242,0.0,-2.3016,-2.3443,0.0,-2.4318,0.0,0.0,-2.5652,0.0,0.0,-2.5212,-2.4774,0.0,-2.52,-2.4855,-2.5192,-2.5083,-2.482,-2.5204,-2.5071,-2.4772,-2.4772,-2.4434,-2.4001,-2.3845,-2.3159,0.0,-2.2702,-2.2209,0.0,-2.2354,0.0,0.0,0.0,0.0,0.0,0.0,0.0,0.0,-2.0887,-1.9949,-1.9351,0.0,-1.8915,0.0,0.0,0.0,0.0,0.0,0.0,0.0,-1.7027,-1.7603,0.0,0.0,0.0,-2.1272,-2.162,-2.2654,-2.3421,-2.3806,-2.4602,-2.5119,-2.5276,-2.424,-2.3463,-2.2947,-2.1869,-2.1088,-2.0605,-2.0605,-2.0605,-2.0605,-2.0605,-2.0605,-2.0605,-2.0605,-2.0605,-2.0605,-2.0605,-2.0605,-2.0605,0.0,0.0,0.0,0.0,-2.423,0.0,0.0,0.0,-2.9098,0.0,-3.3012,-3.5011,-3.6702,-3.799,-3.8476,-3.7942,-3.8004,0.0,-3.297,-3.2872,0.0,0.0,-2.7926,-2.7434,-2.6866,0.0,0.0,0.0,0.0,0.0,-2.3047,-2.3139,-2.2899,-2.242,-2.2726,0.0,-2.2871,-2.3005,-2.3747,-2.4838,-2.5984,-2.6084,-2.559,-2.5974,-2.5473,-2.459,-2.5119,-2.5312,-2.5312,-2.5312,-2.5288,-2.5264,-2.5264,-2.5264,-2.5264,-2.5264,-2.4927,-2.4662,-2.5143,-2.4145,-2.3132,-2.3637,0.0,0.0,0.0,0.0,-2.2987,0.0,0.0,0.0,0.0,0.0,0.0,-2.0025,-1.9808,-1.9591,-1.9059,0.0,0.0,0.0,0.0,0.0,0.0,0.0,-1.5504,-1.6523,-1.7111,-1.7676,0.0,0.0,-2.0598,-2.0629,-2.168,-2.2727,-2.3794,-2.4266,-2.4748,-2.5229,-2.3731,-2.2995,-2.2883,-2.1318,-2.0605,-2.0605,-2.0605,-2.0605,-2.0605,-2.0605,-2.0605,-2.0605,-2.0605,-2.0615,-2.0635,-2.0615,-2.0615,-2.0635,-2.3623,-2.3848,-2.4035,0.0,-2.3985,-2.4287,0.0,0.0,0.0,0.0,-3.6794,-3.9204,-4.1668,-4.1885,-4.1422,-4.047,-4.0059,0.0,0.0,0.0,0.0,-3.1893,-2.9846,-2.8422,-2.763,-2.5635,0.0,-2.4823,0.0,0.0,-2.3741,-2.3289,-2.2817,-2.2389,0.0,0.0,-2.2325,-2.2765,-2.3442,-2.4268,-2.4971,-2.5094,0.0,0.0,-2.5108,-2.4808,-2.5341,-2.543,-2.5312,-2.5312,-2.5047,-2.4723,-2.4723,-2.4723,-2.4723,-2.4723,-2.4903,-2.5047,-2.4795,-2.3869,-2.3047,-2.318,-2.239,-2.174,0.0,0.0,0.0,0.0,0.0,0.0,0.0,0.0,0.0,0.0,-1.972,0.0,0.0,0.0,0.0,0.0,0.0,0.0,0.0,0.0,-1.6307,-1.6583,-1.7484,-1.8229,-1.8758,0.0,0.0,-2.1187,-2.2221,-2.3132,-2.3794,-2.4266,-2.4458,-2.4409,-2.3463,-2.2697,-2.2059,-2.1049,-2.0605,-2.0605,-2.0605,-2.0605,-2.0605,-2.0605,-2.0605,-2.0605,-2.0605,-2.0771,-2.1025,-2.0723,-2.0781,-2.1016,-2.3797,0.0,0.0,-2.4578,0.0,0.0,-2.736,-2.9107,0.0,-3.5356,-3.7903,0.0,-4.1806,-4.2585,-4.2534,-4.1376,-4.0614,0.0,-3.6877,0.0,0.0,-3.3039,-3.139,-2.997,-2.8762,-2.6673,0.0,-2.5099,0.0,0.0,-2.353,-2.2998,-2.2618,-2.242,0.0,-2.2554,0.0,-2.3137,-2.361,-2.4067,-2.4845,0.0,0.0,-2.545,-2.549,-2.5424,-2.5531,-2.5465,-2.5312,-2.5312,-2.5107,-2.4831,-2.4556,-2.4484,-2.447,-2.4254,-2.4398,-2.4614,-2.4542,-2.3941,-2.336,-2.336,-2.2702,-2.2173,-2.2474,-2.2534,-2.265,0.0,0.0,0.0,0.0,0.0,0.0,0.0,0.0,0.0,0.0,0.0,0.0,0.0,0.0,0.0,0.0,0.0,-1.6787,-1.7255,-1.7869,-1.8434,0.0,0.0,0.0,-2.1392,-2.2209,-2.3035,-2.3794,-2.4049,-2.395,-2.3465,-2.2931,-2.2236,-2.1466,-2.0893,-2.0605,-2.0605,-2.0605,-2.0605,-2.0605,-2.0605,-2.0605,-2.0605,-2.0605,-2.084,-2.1161,-2.0947,-2.1016,-2.1161,0.0,0.0,0.0,0.0,0.0,0.0,0.0,-3.1094,0.0,-3.5746,0.0,-3.9622,-4.0174,-4.1869,-4.2534,-4.1376,0.0,-3.883,-3.6495,-3.6473,-3.5483,-3.3146,-3.2657,-3.1637,-2.9942,-2.7688,0.0,0.0,0.0,0.0,-2.314,-2.2618,-2.2389,0.0,0.0,0.0,0.0,-2.3585,-2.3929,-2.4092,-2.5172,-2.5598,-2.5628,-2.6012,-2.6166,-2.6097,-2.5723,-2.5465,-2.5347,-2.5312,-2.5216,-2.5023,-2.4566,-2.4374,-2.423,-2.383,-2.3746,-2.3902,-2.4302,-2.4097,-2.3806,-2.3806,-2.3457,-2.3095,-2.3035,-2.3011,-2.2999,-2.2927,-2.2855,-2.2522,0.0,0.0,0.0,0.0,0.0,0.0,0.0,0.0,0.0,0.0,0.0,0.0,0.0,0.0,-1.7219,-1.8229,-1.8374,-1.8614,0.0,0.0,0.0,-2.1392,-2.1993,-2.283,-2.389,0.0,-2.3305,-2.2628,-2.2253,-2.1658,-2.0946,-2.0697,-2.0605,-2.0605,-2.0605,-2.0605,-2.0605,-2.0605,-2.0605,-2.0605,-2.0605,-2.084,-2.119,-2.119,-2.1229,-2.1278,0.0,0.0,0.0,0.0,0.0,-3.1793,-3.4141,-3.5628,-3.7205,-3.9332,-4.1166,-4.2472,-4.3024,-4.3024,-4.2534,-4.1376,-4.0752,0.0,0.0,0.0,0.0,-3.4467,-3.3865,-3.2616,-3.052,-2.9126,-2.7851,0.0,0.0,0.0,-2.3789,-2.2839,-2.2389,0.0,0.0,0.0,-2.2751,-2.3099,0.0,-2.4092,-2.5172,-2.5598,-2.5628,-2.5862,-2.5945,-2.591,-2.55,-2.543,-2.5535,-2.5347,-2.4747,-2.4059,-2.3962,-2.3604,-2.3232,-2.318,-2.3457,-2.383,-2.3914,-2.3866,-2.3806,-2.3806,-2.3734,-2.3553,-2.3119,-2.3011,-2.2859,-2.2426,-2.1993,-2.1765,-2.2005,0.0,0.0,0.0,0.0,0.0,0.0,0.0,0.0,0.0,0.0,0.0,0.0,0.0,0.0,0.0,0.0,0.0,0.0,0.0,0.0,0.0,-2.2342,0.0,0.0,0.0,-2.2731,-2.2355,-2.1652,-2.0888,-2.011,-2.0438,-2.0605,-2.0605,-2.0605,-2.0605,-2.0605,-2.0605,-2.0605,-2.0605,-2.0605,-2.084,-2.119,-2.119,-2.1465,-2.1777,0.0,0.0,0.0,0.0,0.0,0.0,0.0,-3.8667,0.0,-4.0099,-4.0789,-4.1266,-4.1241,-4.202,-4.2108,-4.1003,-4.0149,-3.9182,-3.8078,-3.7224,-3.6144,-3.4776,-3.4198,0.0,-3.067,-2.9465,-2.8275,-2.7007,0.0,0.0,-2.4001,-2.3587,0.0,-2.242,0.0,-2.2917,0.0,0.0,0.0,-2.487,-2.5385,-2.5774,-2.6076,-2.6055,-2.6062,-2.598,-2.5606,-2.5535,-2.5571,-2.5382,-2.4975,-2.4482,-2.3974,-2.3625,-2.3312,-2.2739,-2.2782,-2.3047,-2.3324,-2.3396,-2.3396,-2.3396,-2.3601,-2.3589,-2.2782,-2.2787,-2.2867,-2.2306,-2.1993,-2.1969,-2.251,-2.239,0.0,0.0,0.0,0.0,0.0,0.0,0.0,0.0,0.0,0.0,0.0,0.0,0.0,0.0,0.0,0.0,0.0,0.0,0.0,0.0,0.0,0.0,0.0,0.0,0.0,-2.125,-2.1105,-2.0639,-1.9932,-2.04,-2.0605,-2.0605,-2.0605,-2.0605,-2.0605,-2.0605,-2.0605,-2.0605,-2.0605,-2.084,-2.119,-2.119,-2.165,-2.2178,0.0,-2.9252,0.0,0.0,-3.3583,0.0,-3.804,-4.0614,-4.1923,-4.0563,-4.0287,-4.0049,-3.9673,-4.0968,-4.1404,-4.0425,-3.9333,-3.8442,-3.7864,-3.691,-3.5868,-3.4731,-3.4311,-3.3043,-3.0834,-2.9691,-2.845,0.0,0.0,0.0,0.0,-2.4333,0.0,0.0,0.0,0.0,0.0,0.0,-2.482,-2.5598,-2.5737,-2.6084,-2.6465,-2.6236,-2.6131,-2.6097,-2.5688,-2.5535,-2.55,-2.5347,-2.524,-2.4999,-2.4194,-2.3818,-2.3469,-2.2606,-2.2282,-2.2282,-2.2734,-2.2927,-2.3011,-2.3011,-2.3408,-2.3553,-2.2582,-2.271,-2.2867,-2.2306,-2.2197,-2.2354,-2.2883,-2.2927,0.0,0.0,0.0,0.0,0.0,0.0,0.0,0.0,0.0,0.0,0.0,0.0,0.0,0.0,0.0,0.0,0.0,0.0,0.0,0.0,0.0,-2.2824,-2.2914,0.0,-2.1605,-2.0473,-2.0661,-2.0464,-1.9932,-2.04,-2.0605,-2.0605,-2.0605,-2.0605,-2.0605,-2.0605,-2.0605,-2.0605,-2.0605,-2.084,-2.119,-2.119,-2.1736,-2.2461,0.0,0.0,0.0,0.0,0.0,0.0,-3.9496,-4.1455,-4.2848,-4.2685,-4.2288,-4.1961,-4.1911,-4.1141,-4.0425,-3.9823,-3.8743,-3.7852,-3.7299,-3.6744,-3.5868,-3.4731,-3.4675,-3.3596,-3.1361,-3.0269,-2.9075,0.0,0.0,0.0,0.0,0.0,0.0,0.0,0.0,0.0,0.0,-2.5181,-2.5498,-2.5636,-2.6197,-2.6449,-2.6465,-2.6084,-2.5945,-2.5875,-2.5465,-2.5347,-2.5347,-2.5312,-2.4987,-2.4578,-2.4448,-2.3809,-2.3071,-2.2963,-2.257,-2.2197,-2.2258,-2.2618,-2.3011,-2.3011,-2.3408,-2.3649,-2.3071,-2.2975,-2.2867,-2.2306,-2.2197,-2.2354,-2.2883,-2.2582,-2.257,0.0,0.0,0.0,0.0,0.0,0.0,0.0,0.0,0.0,0.0,0.0,0.0,0.0,0.0,0.0,0.0,0.0,0.0,-2.283,0.0,-2.2626,-2.3959,-2.1775,-2.0822,-2.101,-2.0332,-1.995,-1.9932,-2.04,-2.0605,-2.0605,-2.0605,-2.0605,-2.0605,-2.0605,-2.0605,-2.0605,-2.0605,-2.084,-2.119,-2.119,-2.1736,-2.251,0.0,0.0,0.0,0.0,0.0,0.0,0.0,-4.2195,-4.2974,-4.2974,-4.2552,-4.2087,-4.1706,-4.0689,-3.9798,-3.9245,-3.8165,-3.7425,-3.7199,-3.6358,-3.5529,-3.4705,-3.4399,-3.3495,-3.1913,-3.0834,-2.9866,0.0,0.0,0.0,0.0,0.0,0.0,0.0,0.0,-2.5252,-2.5236,-2.5875,-2.6147,-2.6172,-2.6399,-2.643,-2.6305,-2.6015,-2.584,-2.5676,-2.5382,-2.5312,-2.5312,-2.5312,-2.5168,-2.4939,-2.4592,-2.423,-2.3785,-2.3171,-2.2867,-2.2594,-2.2282,-2.2354,-2.251,-2.251,-2.2939,-2.3192,-2.263,-2.3035,-2.3252,-2.2366,-2.2197,-2.2258,-2.2474,-2.2594,-2.2594,0.0,0.0,0.0,0.0,0.0,0.0,0.0,0.0,0.0,0.0,0.0,0.0,0.0,0.0,0.0,0.0,0.0,0.0,-2.1786,0.0,-2.1677,-2.2243,-2.0999,-2.0518,-2.0789,-2.0456,-2.0303,-2.0312,-2.0527,-2.0605,-2.0605,-2.0605,-2.0605,-2.0605,-2.0605,-2.0605,-2.0635,-2.0859,-2.1074,-2.122,-2.1533,-2.2002,-2.251,-3.5705,0.0,-3.6772,0.0,-3.9258,-4.0136,-4.215,-4.2791,-4.2974,-4.2974,-4.2359,-4.1769,-4.1326,-4.0212,-3.9233,-3.8668,-3.7739,-3.7111,-3.7008,-3.6207,-3.5542,-3.4944,-3.4437,0.0,-3.2491,-3.1248,-3.0344,-2.9792,-2.8273,0.0,0.0,0.0,0.0,0.0,-2.5653,-2.585,-2.5875,-2.6323,-2.6499,-2.6499,-2.643,-2.6339,-2.6166,-2.591,-2.5723,-2.5571,-2.5382,-2.5312,-2.5312,-2.5312,-2.5312,-2.524,-2.4867,-2.465,-2.4374,-2.3652,-2.322,-2.2939,-2.2522,-2.2306,-2.2197,-2.2197,-2.2474,-2.2686,-2.2282,-2.2927,-2.3396,-2.2775,-2.2654,-2.2606,-2.245,-2.2727,-2.2739,-2.1993,0.0,0.0,0.0,0.0,0.0,0.0,0.0,-1.9468,-1.8313,0.0,0.0,0.0,0.0,0.0,0.0,0.0,0.0,0.0,0.0,0.0,0.0,-2.0277,-2.0146,-2.0419,-2.0546,-2.0605,-2.0605,-2.0605,-2.0605,-2.0605,-2.0605,-2.0605,-2.0605,-2.0605,-2.0683,-2.0791,-2.1073,-2.1356,-2.1609,-2.1953,-2.2334,-2.2695,-3.7751,-3.8868,-3.9986,-4.105,-4.2195,-4.2924,-4.2961,-4.2974,-4.2974,-4.2974,-4.2032,-4.13,-4.1288,-3.9873,-3.8642,-3.8065,-3.75,-3.7008,-3.6455,-3.6405,-3.6107,0.0,0.0,-3.4198,-3.3093,-3.1449,-3.0344,-2.9792,0.0,0.0,-2.8059,0.0,-2.6909,-2.6188,-2.6383,-2.6487,-2.6487,-2.6499,-2.6499,-2.6499,-2.627,-2.6213,-2.6166,-2.5758,-2.5606,-2.5571,-2.5382,-2.5312,-2.5312,-2.5312,-2.5312,-2.5312,-2.53,-2.4939,-2.4484,-2.4506,-2.3785,-2.3011,-2.2999,-2.2582,-2.2197,-2.2197,-2.2197,-2.2197,-2.2197,-2.2606,-2.3168,-2.3673,-2.3782,-2.3625,-2.3095,-2.3011,-2.3011,-2.2999,0.0,0.0,0.0,0.0,0.0,0.0,-2.1524,-2.1115,-1.8458,0.0,0.0,0.0,0.0,0.0,0.0,0.0,0.0,-2.1858,-2.0039,0.0,-2.0517,-1.9713,-1.9502,-1.9922,-2.04,-2.0605,-2.0605,-2.0605,-2.0605,-2.0605,-2.0605,-2.0605,-2.0605,-2.0605,-2.083,-2.119,-2.119,-2.1707,-2.249,-2.25,-2.2773,-2.3091,-3.9082,-4.035,-4.1534,-4.1831,-4.2497,-4.2974,-4.2974,-4.2974,-4.2848,-4.2527,-4.1794,-4.115,-4.0761,-3.9634,-3.8642,0.0,-3.75,-3.6948,0.0,-3.6006,-3.5567,-3.4969,-3.4462,-3.3822,-3.3136,-3.1813,-3.106,-3.0884,0.0,0.0,0.0,-2.6402,-2.6017,-2.5845,-2.6678,-2.6851,-2.6512,-2.6901,-2.6746,-2.6305,-2.6236,-2.6027,-2.5793,-2.5653,-2.55,-2.5382,-2.5312,-2.5312,-2.5312,-2.5312,-2.554,-2.5781,-2.542,-2.5192,-2.4987,-2.4626,-2.4256,-2.3869,-2.3171,-2.2891,-2.2674,-2.2282,-2.2197,-2.2197,-2.2197,-2.2606,-2.3168,-2.3697,-2.3806,-2.3746,-2.3589,-2.3553,-2.3553,-2.3553,-2.3107,0.0,0.0,0.0,0.0,0.0,-2.0198,-1.9762,0.0,-1.9018,0.0,0.0,0.0,0.0,0.0,0.0,0.0,0.0,-1.9484,0.0,-1.9667,-1.9423,-1.9502,-1.9922,-2.04,-2.0723,-2.1025,-2.1025,-2.1025,-2.1045,-2.1338,-2.1299,-2.1045,-2.1338,-2.1553,-2.1709,-2.1992,-2.2275,-2.2549,-2.2789,-2.2984,-2.3091,-3.9961,-4.1003,-4.1907,-4.2175,-4.2665,-4.2974,-4.2974,-4.2974,-4.2841,-4.2288,-4.1681,-4.1075,-4.0576,-3.9534,0.0,-3.8052,-3.75,-3.6948,-3.6443,-3.6044,-3.5604,-3.5006,-3.45,-3.3947,-3.3395,-3.2277,0.0,-3.1386,-2.9741,-2.8398,-2.7369,-2.659,-2.6226,-2.6251,-2.6788,-2.6813,-2.6512,-2.6771,-2.6617,-2.6179,-2.6027,-2.5828,-2.5571,-2.5535,-2.5418,-2.5312,-2.5312,-2.5432,-2.5576,-2.5372,-2.5805,-2.6322,-2.5769,-2.5612,-2.5504,-2.4975,-2.464,-2.434,-2.3737,-2.3424,-2.3228,-2.2871,-2.263,-2.2486,-2.2486,-2.2751,-2.3216,-2.3905,-2.4049,-2.4049,-2.4049,-2.4049,-2.4023,-2.383,-2.336,-2.3011,-2.3011,0.0,0.0,0.0,0.0,0.0,0.0,-1.9783,-2.0093,0.0,0.0,0.0,0.0,0.0,0.0,-1.9906,-1.9406,0.0,-1.9287,-1.9443,-1.9648,-1.9922,-2.0527,-2.1055,-2.1475,-2.1475,-2.1475,-2.1494,-2.1768,-2.1728,-2.1504,-2.1777,-2.1982,-2.2148,-2.2412,-2.2607,-2.2783,-2.3003,-2.3091,-2.3091,-4.0475,-4.0987,-4.1618,0.0,-4.269,0.0,-4.2974,-4.2949,-4.2778,-4.2225,-4.163,-4.1012,-4.0463,-3.9446,-3.858,-3.8002,0.0,0.0,0.0,-3.6405,-3.6119,-3.552,-3.4969,-3.4462,-3.3909,-3.2754,-3.1863,-3.1286,-2.9704,-2.8888,-2.8863,-2.7846,-2.7354,-2.7291,-2.6788,-2.6537,-2.6465,-2.627,-2.6166,-2.6131,-2.5758,-2.5571,-2.5571,-2.5382,-2.5312,-2.5312,-2.5348,-2.5685,-2.6021,-2.5576,-2.6081,-2.6849,-2.6334,-2.6178,-2.6093,-2.5528,-2.4987,-2.4532,-2.4496,-2.4206,-2.389,-2.3782,-2.3372,-2.3011,-2.3011,-2.3047,-2.3304,-2.4266,-2.446,-2.4496,-2.4532,-2.4578,-2.4422,-2.3986,-2.3469,-2.3075,-2.3007,0.0,0.0,0.0,0.0,0.0,0.0,-2.1075,-2.1196,0.0,0.0,0.0,0.0,0.0,-2.0436,-2.0221,-1.966,-1.9336,-1.9336,-1.9775,-2.0019,-2.0059,-2.0849,-2.1504,-2.1934,-2.1934,-2.1934,-2.1934,-2.1934,-2.1914,-2.1885,-2.1924,-2.2158,-2.2519,-2.2549,-2.275,-2.3091,-2.3091,-2.3091,-2.3091,0.0,0.0,-4.2635,-4.276,-4.2942,-4.2974,-4.2974,-4.2678,-4.22,-4.1605,-4.1053,-4.0337,-3.9371,-3.863,-3.799,-3.7425,-3.7262,-3.6948,-3.6443,-3.6405,-3.6119,-3.552,-3.4969,-3.4462,-3.3909,-3.2378,-3.1122,-3.0168,-2.934,-2.8888,-2.8875,-2.8235,-2.7682,-2.7268,-2.7178,-2.6784,-2.627,-2.6201,-2.6015,-2.5723,-2.5641,-2.55,-2.5382,-2.5312,-2.5312,-2.536,-2.5769,-2.5997,-2.6142,-2.6417,-2.6946,-2.7402,-2.6873,-2.697,-2.7152,-2.619,-2.554,-2.5035,-2.4592,-2.4735,-2.4662,-2.346,-2.3107,-2.3011,-2.3011,-2.3324,-2.3685,-2.3926,-2.4254,-2.465,-2.5047,-2.5119,-2.5083,-2.4963,-2.4494,-2.38,-2.2894,-2.2169,0.0,0.0,-1.9917,-2.0062,-1.9855,-2.0318,-2.0656,0.0,0.0,0.0,0.0,-2.05,-2.0252,-1.9551,-1.9674,-1.9766,-1.9766,-2.0498,-2.1094,-2.1426,-2.1631,-2.1953,-2.2363,-2.2363,-2.2363,-2.2363,-2.2363,-2.2178,-2.1904,-2.2236,-2.2422,-2.2549,-2.2818,-2.3013,-2.3091,-2.3091,-2.3091,-2.3091,-4.1238,-4.202,-4.274,-4.2936,-4.2974,-4.2898,-4.269,-4.2401,-4.1923,-4.1065,-4.0701,-4.0187,-3.9346,-3.8504,-3.7889,-3.7588,-3.7098,-3.6732,-3.643,-3.6405,-3.6119,-3.552,-3.4969,-3.4462,-3.3909,-3.2754,-3.1625,-3.052,-2.9967,-2.9527,-2.9315,-2.875,-2.8323,-2.8021,-2.7674,-2.719,-2.6574,-2.6644,-2.6381,-2.5995,-2.6142,-2.613,-2.6009,-2.6009,-2.6009,-2.6057,-2.637,-2.6635,-2.6851,-2.6873,-2.7402,-2.7993,-2.7426,-2.745,-2.7609,-2.7007,-2.6466,-2.5949,-2.5673,-2.5648,-2.5348,-2.4013,-2.3869,-2.3917,-2.3481,-2.3408,-2.3577,-2.4013,-2.4145,-2.441,-2.5168,-2.5312,-2.5312,-2.5312,-2.4576,-2.3757,-2.3121,-2.2004,0.0,-1.9857,-2.0091,-2.0237,-1.9978,-2.0566,-2.094,-2.082,-2.0581,0.0,-2.0869,-2.0869,-2.0654,-2.0195,-2.0596,-2.081,-2.081,-2.1289,-2.1748,-2.2168,-2.2168,-2.2393,-2.275,-2.275,-2.275,-2.275,-2.275,-2.2676,-2.248,-2.2662,-2.275,-2.2822,-2.3003,-2.3091,-2.3091,-2.3091,-2.3091,-2.3091,-4.1075,-4.1656,-4.2238,-4.2647,-4.2723,-4.2572,-4.215,-4.2024,-4.1622,-4.0639,-4.0438,-4.0174,-3.9634,-3.863,-3.7977,-3.7889,-3.6948,-3.6405,-3.6405,-3.6405,-3.6119,-3.552,-3.4969,-3.4462,-3.3909,-3.3269,-3.2403,-3.1273,-3.0834,-3.0331,-2.9779,-2.9289,-2.8976,-2.8825,-2.8102,-2.7519,-2.7012,-2.7066,-2.6833,-2.6493,-2.678,-2.6898,-2.6898,-2.6898,-2.6898,-2.691,-2.6982,-2.7306,-2.763,-2.7258,-2.7726,-2.8426,-2.7942,-2.7798,-2.7798,-2.7798,-2.7486,-2.7078,-2.6837,-2.6346,-2.5685,-2.4939,-2.4975,-2.4963,-2.4119,-2.3637,-2.358,-2.4424,-2.4302,-2.43,-2.5143,-2.5312,-2.5288,-2.5204,-2.4202,-2.3361,-2.3244,0.0,-2.0647,-2.0618,-2.1069,-2.1138,-2.0533,-2.1264,-2.1521,-2.084,-2.0811,-2.0937,-2.1278,-2.1356,-2.1385,-2.1385,-2.1787,-2.2012,-2.207,-2.207,-2.2256,-2.2607,-2.2607,-2.275,-2.3091,-2.3091,-2.3091,-2.3091,-2.3033,-2.3003,-2.3003,-2.3003,-2.3003,-2.3013,-2.3071,-2.3091,-2.3091,-2.3091,-2.3091,-2.3091,-4.0626,-4.1037,-4.1492,-4.1526,-4.1539,-4.1568,-4.1426,-4.1078,-4.0701,-4.0538,-4.0111,-3.9609,-3.9057,-3.8404,-3.7814,-3.7349,-3.6782,-3.6405,-3.6405,-3.6405,-3.6119,-3.552,-3.4969,-3.4462,-3.3909,-3.288,-3.1825,-3.0733,-3.0658,-3.0331,-2.9792,-2.9691,-2.9313,-2.8624,-2.804,-2.757,-2.7127,-2.6724,-2.6638,-2.6815,-2.6861,-2.6898,-2.6898,-2.6898,-2.6898,-2.6958,-2.7402,-2.7618,-2.7777,-2.8138,-2.8378,-2.8498,-2.8414,-2.839,-2.839,-2.839,-2.833,-2.7969,-2.6598,-2.5516,-2.4939,-2.5673,-2.524,-2.4568,-2.4446,-2.4687,-2.4987,-2.5155,-2.5119,-2.5119,-2.5276,-2.5312,-2.5155,-2.4723,-2.3967,-2.3233,-2.2559,0.0,-2.0937,-2.0633,-2.0966,-2.1342,-2.1607,-2.1805,-2.1833,-2.1721,-2.168,-2.1709,-2.1777,-2.2119,-2.2314,-2.2314,-2.2383,-2.2588,-2.2896,-2.2896,-2.2935,-2.3003,-2.3003,-2.3033,-2.3091,-2.3091,-2.3091,-2.3081,-2.2721,-2.2607,-2.2607,-2.2607,-2.2607,-2.2646,-2.2955,-2.3091,-2.3091,-2.3091,-2.3091,-2.3091,-4.0513,-4.0912,-4.1288,-4.1288,-4.1288,-4.1188,-4.0887,-4.0676,-4.0413,-4.0111,-3.9848,-3.9484,-3.8982,-3.8354,-3.7789,-3.7236,-3.6732,-3.6405,-3.6405,-3.6405,-3.6119,-3.552,-3.4969,-3.4324,-3.347,-3.2943,-3.2139,-3.1035,-3.1035,-3.0608,-2.9792,-2.9792,-2.9513,-2.9033,-2.8671,-2.8171,-2.7636,-2.7571,-2.7456,-2.7342,-2.7669,-2.775,-2.775,-2.775,-2.775,-2.7774,-2.8026,-2.815,-2.8186,-2.8426,-2.851,-2.851,-2.851,-2.851,-2.851,-2.851,-2.851,-2.8222,-2.6911,-2.6394,-2.6117,-2.5769,-2.5516,-2.53,-2.5011,-2.5131,-2.5384,-2.5673,-2.5733,-2.5733,-2.5733,-2.5733,-2.5661,-2.5408,-2.4507,0.0,0.0,-2.2338,-2.1566,-2.0977,-2.1318,-2.167,-2.1865,-2.1885,-2.1885,-2.1885,-2.1885,-2.1982,-2.2207,-2.2412,-2.2617,-2.2799,-2.2808,-2.2896,-2.3091,-2.3091,-2.3091,-2.3091,-2.3091,-2.3091,-2.3091,-2.3091,-2.3091,-2.3081,-2.2886,-2.2808,-2.2808,-2.2808,-2.2808,-2.2828,-2.3023,-2.3091,-2.3091,-2.3091,-2.3091,-2.3091,-4.0325,-4.0664,-4.0912,-4.0912,-4.0912,-4.0814,-4.0388,-4.0325,-4.0174,-3.9747,-3.9584,-3.9346,-3.8919,-3.8241,-3.7651,-3.7224,-3.6732,-3.6405,-3.6405,-3.6405,-3.6056,-3.5345,-3.4655,-3.3935,-3.3136,-3.3124,-3.2579,-3.1587,-3.1449,-3.0909,-2.998,-2.9854,-2.9611,-2.9302,-2.9034,-2.8619,-2.813,-2.8237,-2.8162,-2.7933,-2.821,-2.833,-2.833,-2.833,-2.833,-2.8342,-2.8462,-2.851,-2.851,-2.851,-2.851,-2.851,-2.851,-2.851,-2.851,-2.851,-2.8426,-2.8126,-2.715,-2.7006,-2.6863,-2.5624,-2.5612,-2.5805,-2.5396,-2.5504,-2.5805,-2.6202,-2.6394,-2.643,-2.631,-2.6139,-2.5896,-2.5683,0.0,0.0,0.0,-2.2673,-2.1969,-2.1544,-2.1826,-2.207,-2.2168,-2.2178,-2.2178,-2.2178,-2.2178,-2.2314,-2.2604,-2.2656,-2.2769,-2.3081,-2.3091,-2.3091,-2.3091,-2.3091,-2.3091,-2.3091,-2.3091,-2.3091,-2.3091,-2.3091,-2.3091,-2.3091,-2.3091,-2.3091,-2.3091,-2.3091,-2.3091,-2.3091,-2.3091,-2.3091,-2.3091,-2.3091,-2.3091,-2.3091,-3.9747,-3.9785,-3.9823,-3.9823,-3.9823,-3.9798,-3.976,-3.9747,-3.9735,-3.9697,-3.9245,-3.8957,-3.8881,-3.7902,-3.7224,-3.7186,-3.6732,-3.6405,-3.6405,-3.6405,-3.5893,-3.4826,-3.3771,-3.3156,-3.3124,-3.3124,-3.278,-3.2152,-3.1637,-3.111,-3.0545,-3.003,-2.9546,-2.9106,-2.8602,-2.8407,-2.8426,-2.7969,-2.8041,-2.8414,-2.7957,-2.7777,-2.7777,-2.7777,-2.7777,-2.781,-2.833,-2.851,-2.851,-2.851,-2.851,-2.851,-2.851,-2.851,-2.851,-2.851,-2.8162,-2.7618,-2.7054,-2.6189,-2.5456,-2.5336,-2.5336,-2.536,-2.5312,-2.6057,-2.6789,-2.6825,-2.7222,-2.7414,-2.6922,-2.6171,-2.534,-2.4399,0.0,0.0,-2.2499,-2.1809,-2.1564,-2.2324,-2.2451,-2.2617,-2.2964,-2.3003,-2.3003,-2.3003,-2.3003,-2.3013,-2.3052,-2.3052,-2.3062,-2.3091,-2.3091,-2.3091,-2.3091,-2.3091,-2.3091,-2.3091,-2.3091,-2.3091,-2.3091,-2.3091,-2.3091,-2.3091,-2.3091,-2.3091,-2.3091,-2.3091,-2.3091,-2.3091,-2.3091,-2.3091,-2.3091,-2.3091,-2.3091,-2.3091,-3.9697,-3.9697,-3.9697,-3.9697,-3.9697,-3.9697,-3.9697,-3.9697,-3.9572,-3.9233,-3.9057,-3.8655,-3.7902,-3.745,-3.7048,-3.6757,-3.6531,-3.6405,-3.6405,-3.6405,-3.5868,-3.4731,-3.3671,-3.3124,-3.3124,-3.3124,-3.2792,-3.2215,-3.1662,-3.1122,-3.0568,-2.9861,-2.9404,-2.9079,-2.8753,-2.8582,-2.8498,-2.8294,-2.833,-2.8498,-2.8294,-2.821,-2.821,-2.821,-2.821,-2.8234,-2.8438,-2.851,-2.851,-2.851,-2.8294,-2.7978,-2.7978,-2.7801,-2.7498,-2.7498,-2.7354,-2.7078,-2.6562,-2.6117,-2.5721,-2.5384,-2.5312,-2.548,-2.6129,-2.6597,-2.709,-2.7777,-2.8065,-2.8014,-2.7486,-2.666,-2.5975,-2.5574,0.0,-2.3446,-2.3297,-2.3175,-2.287,-2.2232,-2.2822,-2.3164,-2.2783,-2.2945,-2.3091,-2.3091,-2.3091,-2.3091,-2.3091,-2.3091,-2.3218,-2.3535,-2.3237,-2.3091,-2.3091,-2.3091,-2.3227,-2.3545,-2.3227,-2.3374,-2.3881,-2.3662,-2.3682,-2.3871,-2.3652,-2.3545,-2.3525,-2.3208,-2.3091,-2.3091,-2.3091,-2.3257,-2.3516,-2.3198,-2.3266,-2.3506,-3.9697,-3.9697,-3.9697,-3.9697,-3.9697,-3.9634,-3.9459,-3.9584,-3.9433,-3.8693,-3.8605,-3.8241,-3.7287,-3.7023,-3.682,-3.6443,-3.6405,-3.6405,-3.6405,-3.6044,-3.5504,-3.4705,-3.3671,-3.3124,-3.3124,-3.3124,-3.288,-3.2478,-3.1913,-3.1373,-3.0846,-3.0111,-2.9526,-2.9091,-2.8973,-2.8736,-2.851,-2.851,-2.851,-2.8498,-2.833,-2.827,-2.827,-2.827,-2.827,-2.8282,-2.845,-2.851,-2.851,-2.851,-2.827,-2.7906,-2.7738,-2.7318,-2.6958,-2.7294,-2.727,-2.7102,-2.6911,-2.6731,-2.6394,-2.5528,-2.5312,-2.5588,-2.6645,-2.7018,-2.7438,-2.8546,-2.8895,-2.8895,-2.8534,-2.7464,-2.6621,-2.6504,-2.525,-2.4158,-2.3837,-2.3882,-2.3606,-2.2624,-2.3018,-2.3213,-2.2711,-2.2925,-2.3091,-2.3091,-2.3091,-2.3149,-2.3286,-2.3422,-2.3682,-2.3975,-2.3691,-2.35,-2.35,-2.3227,-2.3247,-2.3584,-2.3418,-2.3608,-2.4219,-2.4062,-2.4141,-2.4394,-2.3975,-2.3867,-2.3955,-2.3516,-2.3374,-2.35,-2.35,-2.3721,-2.3945,-2.3608,-2.373,-2.3945,-3.9697,-3.9697,-3.9697,-3.9697,-3.9697,-3.9496,-3.9007,-3.9333,-3.9283,-3.8153,-3.8002,-3.7789,-3.7249,-3.6732,-3.6405,-3.6405,-3.6405,-3.6405,-3.6405,-3.5341,-3.468,-3.468,-3.3671,-3.3124,-3.3124,-3.3124,-3.3124,-3.3124,-3.2503,-3.1938,-3.1386,-3.0859,-3.0069,-2.9104,-2.9091,-2.8855,-2.851,-2.851,-2.851,-2.8462,-2.7906,-2.769,-2.769,-2.769,-2.769,-2.7801,-2.8318,-2.851,-2.851,-2.851,-2.851,-2.8414,-2.7846,-2.7318,-2.7102,-2.8198,-2.8086,-2.7837,-2.8354,-2.8114,-2.7294,-2.5721,-2.5324,-2.5612,-2.6669,-2.7318,-2.799,-2.91,-2.9725,-3.0086,-3.0086,-2.8537,-2.7152,-2.667,-2.5365,-2.4268,-2.3857,-2.3482,-2.3374,-2.374,-2.3037,-2.2685,-2.3062,-2.3101,-2.311,-2.311,-2.311,-2.334,-2.3779,-2.4199,-2.4414,-2.4424,-2.4414,-2.4414,-2.4414,-2.353,-2.311,-2.311,-2.3584,-2.3799,-2.3818,-2.4228,-2.4424,-2.4404,-2.3984,-2.4033,-2.4385,-2.3965,-2.4043,-2.4414,-2.4414,-2.4414,-2.4424,-2.4414,-2.4414,-2.4424,-4.0199,-3.9961,-3.9697,-3.9697,-3.9371,-3.9057,-3.8944,-3.8668,-3.8391,-3.8052,-3.7663,-3.7362,-3.7199,-3.6732,-3.6405,-3.6405,-3.6405,-3.6405,-3.6405,-3.5692,-3.5082,-3.4738,-3.3671,-3.3124,-3.3124,-3.3124,-3.3124,-3.3124,-3.2503,-3.2127,-3.1951,-3.0751,-3.0013,-2.9708,-2.8998,-2.863,-2.851,-2.851,-2.851,-2.8498,-2.8342,-2.827,-2.827,-2.827,-2.827,-2.8294,-2.845,-2.851,-2.851,-2.851,-2.827,-2.7861,-2.7294,-2.7282,-2.7438,-2.7378,-2.7522,-2.763,-2.7426,-2.7246,-2.7018,-2.6537,-2.6693,-2.7284,-2.8342,-2.8167,-2.805,-2.9157,-2.863,-2.7994,-2.7994,-2.704,-2.6196,-2.6059,-2.5128,-2.4375,-2.4248,-2.4121,-2.3975,-2.3809,-2.3828,-2.3779,-2.3613,-2.3867,-2.3988,-2.3988,-2.3988,-2.4228,-2.4705,-2.4512,-2.456,-2.4863,-2.458,-2.4414,-2.4414,-2.416,-2.4189,-2.4492,-2.4316,-2.4551,-2.5146,-2.4961,-2.5049,-2.5274,-2.4873,-2.4756,-2.4844,-2.4414,-2.4307,-2.4414,-2.4414,-2.4609,-2.4834,-2.4531,-2.4609,-2.4834,-4.0086,-3.9747,-3.9371,-3.9371,-3.8906,-3.8454,-3.8241,-3.809,-3.7852,-3.7412,-3.7262,-3.7098,-3.6933,-3.6606,-3.6405,-3.6405,-3.6405,-3.6405,-3.6405,-3.5855,-3.5257,-3.4705,-3.3872,-3.3307,-3.3081,-3.3124,-3.3124,-3.3124,-3.2717,-3.2441,-3.2202,-3.1232,-3.0618,-3.0286,-2.9577,-2.9096,-2.8823,-2.8823,-2.8703,-2.851,-2.851,-2.851,-2.8534,-2.8739,-2.8823,-2.8823,-2.8823,-2.8955,-2.9076,-2.8655,-2.7978,-2.7354,-2.7246,-2.7126,-2.714,-2.7426,-2.775,-2.8005,-2.7897,-2.7834,-2.7834,-2.7834,-2.775,-2.7993,-2.9051,-2.8982,-2.8901,-2.9593,-2.8969,-2.8221,-2.7818,-2.6968,-2.6336,-2.6336,-2.5521,-2.4894,-2.4894,-2.4639,-2.4385,-2.4307,-2.4219,-2.4131,-2.4043,-2.4268,-2.4414,-2.4414,-2.458,-2.4785,-2.5106,-2.499,-2.5059,-2.5322,-2.5078,-2.4894,-2.4894,-2.4894,-2.4893,-2.4805,-2.4717,-2.4951,-2.5469,-2.5371,-2.5478,-2.5664,-2.5264,-2.5166,-2.5303,-2.4853,-2.4775,-2.4894,-2.4894,-2.5098,-2.5303,-2.5039,-2.5107,-2.5293,-3.9509,-3.917,-3.8844,-3.8844,-3.8316,-3.7764,-3.7262,-3.7563,-3.7513,-3.6606,-3.6883,-3.6935,-3.6531,-3.6443,-3.6405,-3.6405,-3.6405,-3.6405,-3.6405,-3.5893,-3.532,-3.4781,-3.4274,-3.3721,-3.3156,-3.3106,-3.3124,-3.3124,-3.3124,-3.2805,-3.229,-3.2,-3.1517,-3.0851,-3.0499,-2.9999,-2.9364,-2.9364,-2.9088,-2.8655,-2.8655,-2.8619,-2.8631,-2.9112,-2.9304,-2.9304,-2.9304,-2.9641,-2.9941,-2.8979,-2.7942,-2.7186,-2.7678,-2.7176,-2.6659,-2.8089,-2.851,-2.8579,-2.9006,-2.9179,-2.9244,-2.9198,-2.8563,-2.8258,-2.922,-2.972,-3.0,-3.0065,-2.9932,-2.9521,-2.8588,-2.7652,-2.7057,-2.7057,-2.6284,-2.5674,-2.5635,-2.498,-2.4619,-2.5067,-2.4375,-2.4072,-2.4492,-2.4541,-2.4541,-2.4541,-2.4902,-2.5127,-2.5127,-2.5518,-2.5693,-2.5693,-2.5693,-2.5693,-2.5693,-2.5693,-2.5284,-2.4541,-2.4941,-2.5127,-2.5184,-2.5557,-2.5693,-2.5664,-2.5303,-2.5361,-2.5654,-2.5293,-2.5371,-2.5693,-2.5693,-2.5693,-2.5693,-2.5693,-2.5693,-2.5693,-3.8944,-3.8592,-3.8203,-3.8203,-3.7726,-3.7324,-3.7199,-3.6923,-3.6784,-3.6973,-3.6782,-3.6707,-3.6973,-3.6669,-3.6405,-3.6405,-3.6405,-3.6405,-3.6405,-3.6304,-3.5943,-3.5345,-3.4793,-3.4286,-3.3734,-3.3294,-3.3124,-3.3124,-3.3124,-3.3018,-3.288,-3.2029,-3.157,-3.1392,-3.0531,-3.0067,-2.9917,-2.9917,-2.9845,-2.9749,-2.9749,-2.9496,-2.9136,-2.9256,-2.9304,-2.9304,-2.9304,-2.9641,-3.005,-2.9821,-2.9316,-2.8811,-2.8919,-2.8799,-2.8595,-2.8522,-2.851,-2.8363,-2.7813,-2.8143,-2.8614,-2.835,-2.9266,-3.0254,-3.0482,-2.9758,-2.9024,-2.9006,-2.7767,-2.661,-2.638,-2.6197,-2.6004,-2.6004,-2.583,-2.5567,-2.5264,-2.5049,-2.5008,-2.5106,-2.4949,-2.4961,-2.5362,-2.5401,-2.5401,-2.5401,-2.5489,-2.5596,-2.5596,-2.5635,-2.5693,-2.5693,-2.5693,-2.5693,-2.5693,-2.5693,-2.5596,-2.5401,-2.5499,-2.5596,-2.5547,-2.5645,-2.5693,-2.5684,-2.5586,-2.5596,-2.5684,-2.5635,-2.5596,-2.5693,-2.5693,-2.5693,-2.5693,-2.5693,-2.5693,-2.5693,-3.8341,-3.8002,-3.7613,-3.7613,-3.7374,-3.7098,-3.6883,-3.6998,-3.7061,-3.687,-3.682,-3.6807,-3.6832,-3.6581,-3.6405,-3.6405,-3.6405,-3.6405,-3.6405,-3.6405,-3.6119,-3.552,-3.5219,-3.4806,-3.4299,-3.3759,-3.3345,-3.3124,-3.3124,-3.3124,-3.3068,-3.2308,-3.197,-3.1958,-3.1191,-3.0699,-3.0458,-3.0458,-3.0314,-3.0086,-3.0086,-2.9917,-2.9701,-2.9953,-2.9893,-2.9713,-2.9965,-3.0062,-3.0122,-3.0386,-2.9785,-2.9015,-2.952,-2.8862,-2.8049,-2.869,-2.8409,-2.7765,-2.7307,-2.7685,-2.8251,-2.8618,-2.9249,-2.9857,-3.0358,-3.0262,-2.9806,-2.8807,-2.7775,-2.6873,-2.6397,-2.6298,-2.6298,-2.6298,-2.6298,-2.6123,-2.5478,-2.5566,-2.5585,-2.5165,-2.5254,-2.5478,-2.5664,-2.5693,-2.5771,-2.6035,-2.6045,-2.6133,-2.6288,-2.6162,-2.6045,-2.6045,-2.5801,-2.5791,-2.6045,-2.6045,-2.6152,-2.6338,-2.5888,-2.5693,-2.5693,-2.5693,-2.5693,-2.5693,-2.5693,-2.5693,-2.5693,-2.5693,-2.5693,-2.5693,-2.5693,-2.5693,-2.5693,-2.5693,-2.5693,-2.5693,-3.7776,-3.7425,-3.7048,-3.7048,-3.7048,-3.6885,-3.648,-3.7136,-3.74,-3.6531,-3.6807,-3.6872,-3.6455,-3.6405,-3.6405,-3.6405,-3.6405,-3.6405,-3.6405,-3.6405,-3.6157,-3.5658,-3.5558,-3.5282,-3.4831,-3.4223,-3.3671,-3.3262,-3.3119,-3.3124,-3.3081,-3.2649,-3.2431,-3.2431,-3.1981,-3.1508,-3.1098,-3.1055,-3.0802,-3.035,-3.035,-3.0302,-3.0266,-3.0711,-3.0603,-3.0278,-3.0766,-3.0591,-3.0302,-3.0874,-3.0013,-2.8931,-2.9809,-2.8527,-2.6961,-2.8473,-2.8093,-2.7144,-2.6805,-2.7307,-2.8094,-2.882,-2.8898,-2.8932,-2.9673,-3.0476,-3.063,-2.9073,-2.8487,-2.7995,-2.7165,-2.7012,-2.7012,-2.7012,-2.7012,-2.6738,-2.5908,-2.6221,-2.6201,-2.5439,-2.5684,-2.5908,-2.5908,-2.5908,-2.6054,-2.6465,-2.6494,-2.665,-2.6992,-2.668,-2.6494,-2.6494,-2.6143,-2.6133,-2.6494,-2.6494,-2.667,-2.7012,-2.6249,-2.5908,-2.5908,-2.5908,-2.5869,-2.5801,-2.5801,-2.5762,-2.5693,-2.5693,-2.5693,-2.5693,-2.5693,-2.5693,-2.5693,-2.5693,-2.5693,-2.5693,-3.7274,-3.6908,-3.6518,-3.6518,-3.6518,-3.6493,-3.6417,-3.6531,-3.6581,-3.643,-3.6468,-3.6493,-3.6417,-3.6405,-3.6405,-3.6405,-3.6405,-3.6405,-3.6405,-3.6405,-3.6367,-3.6304,-3.5805,-3.547,-3.5395,-3.4424,-3.3859,-3.3784,-3.3307,-3.3124,-3.3068,-3.281,-3.268,-3.2636,-3.2157,-3.1901,-3.184,-3.1653,-3.156,-3.1488,-3.1488,-3.1223,-3.0814,-3.0855,-3.0874,-3.0783,-3.0855,-3.0874,-3.0855,-3.1428,-3.085,-2.9893,-3.0037,-2.9022,-2.7762,-2.7533,-2.7365,-2.6846,-2.5295,-2.6614,-2.8181,-2.7251,-2.8411,-2.9715,-2.9329,-2.9063,-2.9123,-2.9742,-2.8426,-2.7165,-2.7012,-2.7012,-2.7012,-2.7012,-2.7012,-2.6846,-2.6367,-2.667,-2.6758,-2.6269,-2.6582,-2.6836,-2.6836,-2.6836,-2.6865,-2.6924,-2.6934,-2.6953,-2.7012,-2.6963,-2.6934,-2.6934,-2.6875,-2.6865,-2.6934,-2.6934,-2.6963,-2.7012,-2.6894,-2.6836,-2.6836,-2.6836,-2.6641,-2.6299,-2.6299,-2.6084,-2.5693,-2.5693,-2.5693,-2.5693,-2.5693,-2.5693,-2.5693,-2.5693,-2.5693,-2.5693,-3.7249,-3.6985,-3.6769,-3.6468,-3.6669,-3.687,-3.687,-3.7086,-3.7174,-3.6908,-3.687,-3.6757,-3.6443,-3.6405,-3.6405,-3.6405,-3.6405,-3.6405,-3.6405,-3.6405,-3.6405,-3.6405,-3.6119,-3.5994,-3.5994,-3.5228,-3.4768,-3.4768,-3.3658,-3.3124,-3.3068,-3.281,-3.2711,-3.268,-3.2201,-3.1994,-3.1994,-3.1805,-3.1705,-3.1705,-3.1705,-3.1573,-3.1356,-3.1356,-3.1175,-3.0922,-3.0922,-3.1103,-3.1392,-3.1633,-3.1199,-3.0445,-2.9938,-2.8594,-2.7189,-2.6934,-2.63,-2.5613,-2.5328,-2.6256,-2.7407,-2.7656,-2.8229,-2.9043,-3.0236,-2.9374,-2.8538,-2.8983,-2.8383,-2.7734,-2.7734,-2.7734,-2.7734,-2.7734,-2.7734,-2.75,-2.6836,-2.7109,-2.7217,-2.6787,-2.6904,-2.7012,-2.7012,-2.7012,-2.7119,-2.7363,-2.7373,-2.748,-2.7715,-2.751,-2.7373,-2.7373,-2.7139,-2.7139,-2.7373,-2.7373,-2.749,-2.7734,-2.7734,-2.748,-2.7012,-2.7012,-2.6914,-2.6738,-2.6738,-2.6494,-2.6103,-2.6103,-2.5957,-2.5693,-2.5693,-2.5693,-2.5693,-2.5693,-2.5693,-2.5693]},{"header":{"parameterUnit":"m.s-1","parameterCategory":1,"la1":30.6,"la2":28.766,"lo1":-90.7593,"lo2":-88.6598,"dy":0.0162,"dx":0.0183,"nx":116,"ny":114,"refTime":"2023-05-09T00:00:00:Z","depth":0,"parameterNumber":3,"parameterNumberName":"V-component_of_WINDS"},"data":[0.0,0.0,0.0,0.0,0.0,0.0,0.0,0.0,0.0,0.0,0.0,0.0,0.0,0.0,0.0,0.0,0.0,0.0,0.0,0.0,0.0,0.0,0.0,0.0,0.0,0.0,0.0,0.0,0.0,0.0,0.0,0.0,0.0,0.0,0.0,0.0,0.0,0.0,0.0,0.0,0.0,0.0,0.0,0.0,0.0,0.0,0.0,0.0,0.0,0.0,0.0,0.0,0.0,0.0,0.0,0.0,0.0,0.0,0.0,0.0,0.0,0.0,0.0,0.0,0.0,0.0,0.0,0.0,0.0,0.0,0.0,0.0,0.0,0.0,0.0,0.0,0.0,0.0,0.0,0.0,0.0,0.0,0.0,0.0,0.0,0.0,0.0,0.0,0.0,0.0,0.0,0.0,0.0,0.0,0.0,0.0,0.0,0.0,0.0,0.0,0.0,0.0,0.0,0.0,0.0,0.0,0.0,0.0,0.0,0.0,0.0,0.0,0.0,0.0,0.0,0.0,0.0,0.0,0.0,0.0,0.0,0.0,0.0,0.0,0.0,0.0,0.0,0.0,0.0,0.0,0.0,0.0,0.0,0.0,0.0,0.0,0.0,0.0,0.0,0.0,0.0,0.0,0.0,0.0,0.0,0.0,0.0,0.0,0.0,0.0,0.0,0.0,0.0,0.0,0.0,0.0,0.0,0.0,0.0,0.0,0.0,0.0,0.0,0.0,0.0,0.0,0.0,0.0,0.0,0.0,0.0,0.0,0.0,0.0,0.0,0.0,0.0,0.0,0.0,0.0,0.0,0.0,0.0,0.0,0.0,0.0,0.0,0.0,0.0,0.0,0.0,0.0,0.0,0.0,0.0,0.0,0.0,0.0,0.0,0.0,0.0,0.0,0.0,0.0,0.0,0.0,0.0,0.0,0.0,0.0,0.0,0.0,0.0,0.0,0.0,0.0,0.0,0.0,0.0,0.0,0.0,0.0,0.0,0.0,0.0,0.0,0.0,0.0,0.0,0.0,0.0,0.0,0.0,0.0,0.0,0.0,0.0,0.0,0.0,0.0,0.0,0.0,0.0,0.0,0.0,0.0,0.0,0.0,0.0,0.0,0.0,0.0,0.0,0.0,0.0,0.0,0.0,0.0,0.0,0.0,0.0,0.0,0.0,0.0,0.0,0.0,0.0,0.0,0.0,0.0,0.0,0.0,0.0,0.0,0.0,0.0,0.0,0.0,0.0,0.0,0.0,0.0,0.0,0.0,0.0,0.0,0.0,0.0,0.0,0.0,0.0,0.0,0.0,0.0,0.0,0.0,0.0,0.0,0.0,0.0,0.0,0.0,0.0,0.0,0.0,0.0,0.0,0.0,0.0,0.0,0.0,0.0,0.0,0.0,0.0,0.0,0.0,0.0,0.0,0.0,0.0,0.0,0.0,0.0,0.0,0.0,0.0,0.0,0.0,0.0,0.0,0.0,0.0,0.0,0.0,0.0,0.0,0.0,0.0,0.0,0.0,0.0,0.0,0.0,0.0,0.0,0.0,0.0,0.0,0.0,0.0,0.0,0.0,0.0,0.0,0.0,0.0,0.0,0.0,0.0,0.0,0.0,0.0,0.0,0.0,0.0,0.0,0.0,0.0,0.0,0.0,0.0,0.0,0.0,0.0,0.0,0.0,0.0,0.0,0.0,0.0,0.0,0.0,0.0,0.0,0.0,0.0,0.0,0.0,0.0,0.0,0.0,0.0,0.0,0.0,0.0,0.0,0.0,0.0,0.0,0.0,0.0,0.0,0.0,0.0,0.0,0.0,0.0,0.0,0.0,0.0,0.0,0.0,0.0,0.0,0.0,0.0,0.0,0.0,0.0,0.0,0.0,0.0,0.0,0.0,0.0,0.0,0.0,0.0,0.0,0.0,0.0,0.0,0.0,0.0,0.0,0.0,0.0,0.0,0.0,0.0,0.0,0.0,0.0,0.0,0.0,0.0,0.0,0.0,0.0,0.0,0.0,0.0,0.0,0.0,0.0,0.0,0.0,0.0,0.0,0.0,0.0,0.0,0.0,0.0,0.0,0.0,0.0,0.0,0.0,0.0,0.0,0.0,0.0,0.0,0.0,0.0,0.0,0.0,0.0,0.0,0.0,0.0,0.0,0.0,0.0,0.0,0.0,0.0,0.0,0.0,0.0,0.0,0.0,0.0,0.0,0.0,0.0,0.0,0.0,0.0,0.0,0.0,0.0,0.0,0.0,0.0,0.0,0.0,0.0,0.0,0.0,0.0,0.0,0.0,0.0,0.0,0.0,0.0,0.0,0.0,0.0,0.0,0.0,0.0,0.0,0.0,0.0,0.0,0.0,0.0,0.0,0.0,0.0,0.0,0.0,0.0,0.0,0.0,0.0,0.0,0.0,0.0,0.0,0.0,0.0,0.0,0.0,0.0,0.0,0.0,0.0,0.0,0.0,0.0,0.0,0.0,0.0,0.0,0.0,0.0,0.0,0.0,0.0,0.0,0.0,0.0,0.0,0.0,0.0,0.0,0.0,0.0,0.0,0.0,0.0,0.0,0.0,0.0,0.0,0.0,0.0,0.0,0.0,0.0,0.0,0.0,0.0,0.0,0.0,0.0,0.0,0.0,0.0,0.0,0.0,0.0,0.0,0.0,0.0,0.0,0.0,0.0,0.0,0.0,0.0,0.0,0.0,0.0,0.0,0.0,0.0,0.0,0.0,0.0,0.0,0.0,0.0,0.0,0.0,0.0,0.0,0.0,0.0,0.0,0.0,0.0,0.0,0.0,0.0,0.0,0.0,0.0,0.0,0.0,0.0,0.0,0.0,0.0,0.0,0.0,0.0,0.0,0.0,0.0,0.0,0.0,0.0,0.0,0.0,0.0,0.0,0.0,0.0,0.0,0.0,0.0,0.0,0.0,0.0,0.0,0.0,0.0,0.0,0.0,0.0,0.0,0.0,0.0,0.0,0.0,0.0,0.0,0.0,0.0,0.0,0.0,0.0,0.0,0.0,0.0,0.0,0.0,0.0,0.0,0.0,0.0,0.0,0.0,0.0,0.0,0.0,0.0,0.0,0.0,0.0,0.0,0.0,0.0,0.0,0.0,0.0,0.0,0.0,0.0,0.0,0.0,0.0,0.0,0.0,0.0,0.0,0.0,0.0,0.0,0.0,0.0,0.0,0.0,0.0,0.0,0.0,0.0,0.0,0.0,0.0,0.0,0.0,0.0,0.0,0.0,0.0,0.0,0.0,0.0,0.0,0.0,0.0,0.0,0.0,0.0,0.0,0.0,0.0,0.0,0.0,0.0,0.0,0.0,0.0,0.0,0.0,0.0,0.0,0.0,0.0,0.0,0.0,0.0,0.0,0.0,0.0,0.0,0.0,0.0,0.0,0.0,0.0,0.0,0.0,0.0,0.0,0.0,0.0,0.0,0.0,0.0,0.0,0.0,0.0,0.0,0.0,0.0,0.0,0.0,0.0,0.0,0.0,0.0,0.0,0.0,0.0,0.0,0.0,0.0,0.0,0.0,0.0,0.0,0.0,0.0,0.0,0.0,0.0,0.0,0.0,0.0,0.0,0.0,0.0,0.0,0.0,0.0,0.0,0.0,0.0,0.0,0.0,0.0,0.0,0.0,0.0,0.0,0.0,0.0,0.0,0.0,0.0,0.0,0.0,0.0,0.0,0.0,0.0,0.0,0.0,0.0,0.0,0.0,0.0,0.0,0.0,0.0,0.0,0.0,0.0,0.0,0.0,0.0,0.0,0.0,0.0,0.0,0.0,0.0,0.0,0.0,0.0,0.0,0.0,0.0,0.0,0.0,0.0,0.0,0.0,0.0,0.0,0.0,0.0,0.0,0.0,0.0,0.0,0.0,0.0,0.0,0.0,0.0,0.0,0.0,0.0,0.0,0.0,0.0,0.0,0.0,0.0,0.0,0.0,0.0,0.0,0.0,0.0,0.0,0.0,0.0,0.0,0.0,0.0,0.0,0.0,0.0,0.0,0.0,0.0,0.0,0.0,0.0,0.0,0.0,0.0,0.0,0.0,0.0,0.0,0.0,0.0,0.0,0.0,0.0,0.0,0.0,0.0,0.0,0.0,0.0,0.0,0.0,0.0,0.0,0.0,0.0,0.0,0.0,0.0,0.0,0.0,0.0,0.0,0.0,0.0,0.0,0.0,0.0,0.0,0.0,0.0,0.0,0.0,0.0,0.0,0.0,0.0,0.0,0.0,0.0,0.0,0.0,0.0,0.0,0.0,0.0,0.0,0.0,0.0,0.0,0.0,0.0,0.0,0.0,0.0,0.0,0.0,0.0,0.0,0.0,0.0,0.0,0.0,0.0,0.0,0.0,0.0,0.0,0.0,0.0,0.0,0.0,0.0,0.0,0.0,0.0,0.0,0.0,0.0,0.0,0.0,0.0,0.0,0.0,0.0,0.0,0.0,0.0,0.0,0.0,0.0,0.0,0.0,0.0,0.0,0.0,0.0,0.0,0.0,0.0,0.0,0.0,0.0,0.0,0.0,0.0,0.0,0.0,0.0,0.0,0.0,0.0,0.0,0.0,0.0,0.0,0.0,0.0,0.0,0.0,0.0,0.0,0.0,0.0,0.0,0.0,0.0,0.0,0.0,0.0,0.0,0.0,0.0,0.0,0.0,0.0,0.0,0.0,0.0,0.0,0.0,0.0,0.0,0.0,0.0,0.0,0.0,0.0,0.0,0.0,0.0,0.0,0.0,0.0,0.0,0.0,0.0,0.0,0.0,0.0,0.0,0.0,0.0,0.0,0.0,0.0,0.0,0.0,0.0,0.0,0.0,0.0,0.0,0.0,0.0,0.0,0.0,0.0,0.0,0.0,0.0,0.0,0.0,0.0,0.0,0.0,0.0,0.0,0.0,0.0,0.0,0.0,0.0,0.0,0.0,0.0,0.0,0.0,0.0,0.0,0.0,0.0,0.0,0.0,0.0,0.0,0.0,0.0,0.0,0.0,0.0,0.0,0.0,0.0,0.0,0.0,0.0,0.0,0.0,0.0,0.0,0.0,0.0,0.0,0.0,0.0,0.0,0.0,0.0,0.0,0.0,0.0,0.0,0.0,0.0,0.0,0.0,0.0,0.0,0.0,0.0,0.0,0.0,0.0,0.0,0.0,0.0,0.0,0.0,0.0,0.0,0.0,0.0,0.0,0.0,0.0,0.0,0.0,0.0,0.0,0.0,0.0,0.0,0.0,0.0,0.0,0.0,0.0,0.0,0.0,0.0,0.0,0.0,0.0,0.0,0.0,0.0,0.0,0.0,0.0,0.0,0.0,0.0,0.0,0.0,0.0,0.0,0.0,0.0,0.0,0.0,0.0,0.0,0.0,0.0,0.0,0.0,0.0,0.0,0.0,0.0,0.0,0.0,0.0,0.0,0.0,0.0,0.0,0.0,0.0,0.0,0.0,0.0,0.0,0.0,0.0,0.0,0.0,0.0,0.0,0.0,0.0,0.0,0.0,0.0,0.0,0.0,0.0,0.0,0.0,0.0,0.0,0.0,0.0,0.0,0.0,0.0,0.0,0.0,0.0,0.0,0.0,0.0,0.0,0.0,0.0,0.0,0.0,0.0,0.0,0.0,0.0,0.0,0.0,0.0,0.0,0.0,0.0,0.0,0.0,0.0,0.0,0.0,0.0,0.0,0.0,0.0,0.0,0.0,0.0,0.0,0.0,0.0,0.0,0.0,0.0,0.0,0.0,0.0,0.0,0.0,0.0,0.0,0.0,0.0,0.0,0.0,0.0,0.0,0.0,0.0,0.0,0.0,0.0,0.0,0.0,0.0,0.0,0.0,0.0,0.0,0.0,0.0,0.0,0.0,0.0,0.0,0.0,0.0,0.0,0.0,0.0,0.0,0.0,0.0,0.0,0.0,0.0,0.0,0.0,0.0,0.0,0.0,0.0,0.0,0.0,0.0,0.0,0.0,0.0,0.0,0.0,0.0,0.0,0.0,0.0,0.0,0.0,0.0,0.0,0.0,0.0,0.0,0.0,0.0,0.0,0.0,0.0,0.0,0.0,0.0,0.0,0.0,0.0,0.0,0.0,0.0,0.0,0.0,0.0,0.0,0.0,0.0,1.7209,0.0,0.0,0.0,0.0,0.0,0.0,0.0,0.0,0.0,0.0,0.0,0.0,0.0,0.0,0.0,0.0,0.0,0.0,0.0,0.0,0.0,0.0,0.0,0.0,0.0,0.0,0.0,0.0,0.0,0.0,0.0,0.0,0.0,0.0,0.0,0.0,0.0,0.0,1.6194,1.6517,1.7208,1.8223,1.8406,1.783,1.6648,0.0,0.0,0.0,0.0,0.0,0.0,0.0,0.0,0.0,0.0,0.0,0.0,0.0,0.0,0.0,0.0,0.0,0.0,0.0,0.0,0.0,0.0,0.0,0.0,0.0,0.0,0.0,0.0,0.0,0.0,0.0,0.0,0.0,0.0,0.0,0.0,0.0,0.0,0.0,0.0,0.0,0.0,0.0,0.0,0.0,0.0,0.0,0.0,0.0,0.0,0.0,0.0,0.0,0.0,0.0,0.0,0.0,0.0,0.0,0.0,0.0,0.0,0.0,0.0,0.0,0.0,0.0,0.0,0.0,0.0,0.0,1.7808,0.0,0.0,0.0,0.0,0.0,0.0,0.0,0.0,0.0,0.0,0.0,0.0,0.0,0.0,0.0,0.0,0.0,0.0,0.0,0.0,0.0,0.0,0.0,1.6194,1.6194,1.6194,1.6194,1.6194,0.0,0.0,0.0,0.0,0.0,0.0,0.0,1.6256,1.6377,1.6731,1.7761,1.8992,2.0366,2.1042,2.0537,1.9012,1.7619,0.0,0.0,0.0,0.0,0.0,0.0,0.0,0.0,0.0,0.0,0.0,0.0,0.0,0.0,0.0,0.0,0.0,0.0,0.0,0.0,0.0,0.0,0.0,0.0,0.0,0.0,0.0,0.0,0.0,0.0,0.0,0.0,0.0,0.0,0.0,0.0,0.0,0.0,0.0,0.0,0.0,0.0,0.0,0.0,0.0,0.0,0.0,0.0,0.0,0.0,0.0,0.0,0.0,0.0,0.0,0.0,0.0,0.0,0.0,0.0,0.0,0.0,0.0,2.1015,2.1416,2.2484,2.2429,2.2669,2.298,1.9791,1.8689,1.9177,0.0,0.0,0.0,0.0,0.0,0.0,0.0,0.0,0.0,0.0,0.0,0.0,0.0,0.0,0.0,0.0,0.0,0.0,0.0,0.0,0.0,0.0,1.6194,1.6194,1.6194,1.6194,1.6194,1.6194,0.0,0.0,0.0,0.0,0.0,1.7055,1.6502,1.7069,1.8901,2.1319,2.3194,2.4512,2.5241,2.5771,2.5894,2.1731,2.0514,2.1487,0.0,0.0,0.0,0.0,0.0,0.0,0.0,0.0,0.0,0.0,0.0,0.0,0.0,0.0,0.0,0.0,0.0,0.0,0.0,0.0,0.0,0.0,0.0,0.0,0.0,0.0,0.0,0.0,0.0,0.0,0.0,0.0,0.0,0.0,0.0,0.0,0.0,0.0,0.0,0.0,0.0,1.8656,1.8069,0.0,0.0,0.0,0.0,0.0,0.0,0.0,0.0,0.0,0.0,0.0,0.0,0.0,2.1547,2.3466,2.4015,2.4128,2.3839,2.4354,2.4405,2.4003,2.4003,2.4348,2.4911,2.4248,0.0,2.1827,2.114,0.0,0.0,0.0,0.0,0.0,0.0,0.0,0.0,0.0,0.0,0.0,0.0,0.0,0.0,0.0,0.0,0.0,0.0,0.0,0.0,0.0,1.6532,1.6763,1.6763,1.7838,1.8007,1.684,1.7499,0.0,0.0,0.0,1.6332,1.6624,1.7085,1.8899,2.212,2.404,2.5865,2.7618,2.8334,2.8812,2.9012,2.6941,2.4868,2.2817,2.1589,0.0,0.0,0.0,0.0,0.0,0.0,0.0,0.0,0.0,0.0,0.0,0.0,0.0,0.0,0.0,0.0,0.0,0.0,0.0,0.0,0.0,0.0,0.0,0.0,0.0,0.0,0.0,0.0,0.0,0.0,0.0,0.0,0.0,0.0,0.0,0.0,0.0,0.0,0.0,1.8516,1.9732,1.7854,1.9724,2.0393,0.0,0.0,0.0,0.0,0.0,0.0,0.0,0.0,0.0,2.2932,2.2978,2.3779,2.5404,2.5749,2.6149,2.6611,2.7265,2.7634,2.7726,2.7726,2.803,2.8545,2.8462,2.7656,2.6252,2.3781,2.2029,2.0747,0.0,0.0,0.0,0.0,1.7654,1.7865,0.0,0.0,0.0,0.0,0.0,0.0,0.0,0.0,0.0,0.0,0.0,0.0,1.6686,1.7484,1.8053,1.8238,1.9517,1.9486,1.7577,1.8284,1.793,1.6039,1.6102,1.6348,1.6701,1.8714,2.1436,2.4841,2.6511,2.831,3.0197,3.1201,3.1693,3.172,3.1863,2.952,2.5272,2.3902,2.2474,2.1,0.0,0.0,0.0,0.0,0.0,0.0,0.0,0.0,0.0,0.0,0.0,0.0,0.0,0.0,0.0,0.0,0.0,0.0,0.0,0.0,0.0,0.0,0.0,0.0,0.0,0.0,0.0,0.0,0.0,0.0,0.0,0.0,0.0,0.0,0.0,0.0,0.0,1.9546,2.0934,1.853,2.1101,2.2055,0.0,0.0,0.0,0.0,0.0,0.0,2.2074,2.2906,2.3948,2.5318,2.5364,2.5973,2.7342,2.7565,2.8165,2.9181,2.9858,3.0443,3.0894,3.0894,3.1114,3.1428,3.1366,3.0925,2.9957,2.6374,2.4232,2.3065,2.1572,2.0598,2.009,2.0344,2.0662,2.1159,0.0,0.0,0.0,0.0,0.0,0.0,0.0,0.0,0.0,0.0,0.0,1.7393,1.8038,1.9315,2.0395,2.1042,2.0595,1.9702,1.8253,1.7623,1.6686,1.5316,1.587,1.6793,1.8069,2.1975,2.4748,2.6287,2.8919,3.0894,3.229,3.4291,3.526,3.526,3.5907,3.4245,3.0792,2.7503,2.6087,2.5709,2.1784,0.0,0.0,0.0,0.0,0.0,0.0,0.0,0.0,0.0,0.0,0.0,0.0,0.0,0.0,0.0,0.0,0.0,0.0,0.0,0.0,0.0,0.0,0.0,0.0,0.0,0.0,0.0,0.0,0.0,0.0,0.0,0.0,0.0,0.0,0.0,0.0,0.0,0.0,2.1257,2.3486,0.0,0.0,0.0,0.0,2.3902,2.4604,2.561,2.6965,2.6488,2.6795,2.8165,2.8196,2.8842,3.0186,3.0828,3.1193,3.127,3.1921,3.2259,3.229,3.229,3.2317,3.2314,3.2139,3.2016,3.1719,2.8612,2.6701,2.558,2.4149,2.343,2.3272,2.4043,2.3903,2.3442,0.0,0.0,0.0,0.0,0.0,0.0,0.0,0.0,1.6194,1.6194,1.6778,1.7807,1.9377,2.078,2.2212,2.3748,2.4056,2.3225,2.0975,2.0208,1.8838,1.6593,1.6286,1.7654,2.0778,2.3548,2.6488,2.9637,3.1012,3.2613,3.4398,3.5167,3.5953,3.6769,3.6584,3.6061,3.5091,3.1674,2.8996,2.6826,2.4471,2.2351,0.0,0.0,0.0,0.0,0.0,0.0,0.0,0.0,0.0,0.0,0.0,0.0,0.0,0.0,0.0,0.0,0.0,0.0,0.0,0.0,0.0,0.0,0.0,0.0,0.0,0.0,0.0,0.0,0.0,0.0,0.0,0.0,0.0,0.0,0.0,0.0,0.0,2.3394,2.6388,0.0,2.5112,2.4902,2.5118,2.5542,2.6257,2.7057,2.7996,2.8642,2.9396,3.0289,3.0735,3.1197,3.169,3.1921,3.2028,3.2044,3.2275,3.2398,3.2398,3.2398,3.2398,3.241,3.2311,3.2284,3.216,3.0651,2.9252,2.7987,2.6998,2.6179,2.5676,2.6962,2.7555,2.791,0.0,0.0,0.0,0.0,0.0,0.0,0.0,0.0,1.6285,1.6502,1.7531,1.9038,2.1088,2.2936,2.4641,2.6226,2.6111,2.4733,2.1827,2.0762,1.9146,1.6624,1.7638,1.9837,2.324,2.5764,2.8581,3.1747,3.2644,3.3696,3.482,3.5508,3.6045,3.6468,3.672,3.7076,3.7353,3.5076,3.229,2.9227,2.6934,2.5226,2.3768,0.0,0.0,0.0,0.0,0.0,0.0,0.0,0.0,0.0,0.0,0.0,0.0,0.0,0.0,0.0,0.0,0.0,0.0,0.0,0.0,0.0,0.0,0.0,0.0,0.0,0.0,0.0,0.0,0.0,0.0,0.0,0.0,0.0,0.0,0.0,2.668,2.5795,2.8889,3.0171,2.7895,2.7934,2.815,2.8326,2.9027,2.9612,3.0074,3.0936,3.152,3.172,3.2151,3.2398,3.2398,3.2398,3.2398,3.2398,3.2398,3.2398,3.2398,3.2398,3.2398,3.2398,3.2398,3.2398,3.2367,3.1905,3.1143,3.0167,2.9453,2.8968,2.8818,2.9844,3.0648,3.1393,0.0,0.0,0.0,0.0,0.0,0.0,0.0,1.6194,1.6425,1.7085,1.8992,2.1073,2.3102,2.5764,2.7688,2.8411,2.6511,2.3902,2.0595,1.9038,1.7362,1.5439,1.9837,2.3297,2.5342,2.8695,3.1052,3.2432,3.3814,3.4134,3.3499,3.5538,3.5811,3.4655,3.6638,3.7538,3.7569,3.7523,3.5968,3.3213,2.9227,2.835,2.8879,0.0,0.0,0.0,0.0,0.0,0.0,0.0,0.0,0.0,0.0,0.0,0.0,0.0,0.0,0.0,0.0,0.0,0.0,0.0,0.0,0.0,0.0,0.0,0.0,0.0,0.0,0.0,0.0,0.0,0.0,0.0,0.0,0.0,2.2582,2.5964,2.8519,2.855,3.0889,3.1982,3.0648,3.112,3.1778,3.2413,3.3059,3.3429,3.3429,3.3429,3.3136,3.249,3.2459,3.2444,3.2428,3.2428,3.2428,3.2428,3.2398,3.2398,3.2428,3.2398,3.2398,3.2398,3.2398,3.2398,3.2398,3.2398,3.2295,3.2037,3.1385,3.1726,3.2618,3.2646,3.3028,3.3609,0.0,0.0,0.0,0.0,0.0,0.0,0.0,1.6194,1.627,1.644,1.8716,2.1242,2.3748,2.6041,2.8057,2.971,2.7049,2.4502,2.2594,2.0287,1.8962,1.8901,2.1609,2.448,2.748,2.9477,3.1347,3.3141,3.4055,3.4607,3.4861,3.598,3.7074,3.8121,3.8179,3.8508,3.8908,3.7923,3.7338,3.683,3.3796,3.1274,2.9166,0.0,0.0,0.0,0.0,0.0,0.0,0.0,0.0,0.0,0.0,0.0,0.0,0.0,0.0,0.0,0.0,0.0,0.0,0.0,0.0,0.0,0.0,0.0,0.0,0.0,0.0,0.0,0.0,0.0,0.0,0.0,0.0,2.638,2.6688,2.8935,3.0936,3.1921,3.3567,3.4291,3.3473,3.355,3.3719,3.3919,3.4104,3.4212,3.4212,3.4212,3.412,3.3935,3.3935,3.3688,3.3121,3.3121,3.3121,3.3121,3.2628,3.2644,3.3106,3.2613,3.2398,3.2398,3.2398,3.2398,3.2398,3.2398,3.2357,3.2272,3.194,3.2136,3.2728,3.3793,3.4904,3.5791,0.0,0.0,0.0,0.0,0.0,0.0,0.0,1.6194,1.6286,1.6578,1.9254,2.1951,2.4071,2.6411,2.8057,2.8673,2.5857,2.3348,2.1735,2.0428,2.0379,2.192,2.4483,2.6928,2.9158,3.1369,3.308,3.4231,3.5211,3.5876,3.6256,3.6632,3.7466,3.861,3.8181,3.8562,3.9428,3.8677,3.8739,3.9216,3.7646,3.5491,3.2921,3.012,2.8919,2.8411,2.6226,2.601,2.6296,2.3379,0.0,0.0,0.0,0.0,0.0,0.0,0.0,0.0,0.0,0.0,0.0,0.0,0.0,0.0,0.0,0.0,0.0,0.0,0.0,0.0,0.0,0.0,0.0,0.0,2.7765,2.9704,3.1536,3.2333,3.3211,3.4537,3.5414,3.5891,3.5783,3.5506,3.5352,3.5352,3.5352,3.5229,3.4936,3.4936,3.4797,3.452,3.4505,3.4166,3.3413,3.3398,3.326,3.2982,3.2582,3.2598,3.2982,3.2859,3.2659,0.0,3.269,3.2659,3.2398,3.2398,3.2398,0.0,0.0,0.0,0.0,0.0,3.5074,3.5874,0.0,0.0,0.0,0.0,0.0,0.0,0.0,1.6194,1.644,1.7116,1.9977,2.2455,2.3825,2.6211,2.7288,2.6241,2.3599,2.1242,1.9518,2.0258,2.1951,2.4656,2.7817,2.9939,3.0866,3.3781,3.5362,3.5478,3.6709,3.7321,3.7361,3.7396,3.7543,3.7755,3.7687,3.8345,3.949,3.949,3.9828,4.0382,4.0459,3.9721,3.8138,3.3752,3.2767,3.3321,3.0027,2.8627,2.8042,2.6349,0.0,0.0,0.0,0.0,0.0,0.0,0.0,0.0,0.0,0.0,0.0,0.0,0.0,0.0,0.0,0.0,0.0,0.0,0.0,0.0,0.0,0.0,0.0,0.0,3.1732,3.3072,3.6168,3.5737,3.5491,3.6584,3.6722,3.6953,3.7554,3.7076,3.6722,3.6722,3.6645,3.6338,3.5753,0.0,0.0,0.0,0.0,3.4397,3.3644,3.3567,3.326,3.2736,3.2582,3.2552,3.2644,3.3167,3.3029,3.2428,3.3029,3.2952,3.2398,3.2398,3.2398,3.2425,3.2465,3.2834,3.3388,3.3947,3.4448,3.4844,0.0,0.0,0.0,0.0,0.0,0.0,0.0,1.6194,1.644,1.7116,1.8761,2.0397,2.1735,2.2844,2.381,2.4641,2.175,1.995,2.0104,2.2259,2.4748,2.7503,2.9319,3.1624,3.4436,3.5133,3.5644,3.6047,3.6902,3.7267,3.7258,3.7842,3.8752,3.9918,3.9883,3.9722,3.949,3.949,3.9551,3.9721,4.0274,4.0013,3.9108,3.7092,3.6138,3.5522,3.2644,3.2613,3.3383,2.9812,2.915,2.9329,2.6356,2.3979,0.0,0.0,0.0,0.0,0.0,0.0,0.0,0.0,0.0,0.0,0.0,0.0,0.0,0.0,0.0,0.0,0.0,0.0,0.0,3.1043,3.3706,3.5922,3.7138,3.8015,3.8431,3.8154,3.8123,3.8169,3.8308,3.82,3.8123,3.8123,3.7615,3.7246,3.7123,3.6599,3.6245,3.6107,3.6107,3.5799,3.5091,3.4566,3.4505,3.4876,0.0,0.0,3.4089,3.3598,3.3029,3.2398,3.2536,3.2521,3.2398,3.2398,3.2398,3.2437,3.2868,3.3466,3.4143,3.4681,3.5233,3.5644,0.0,0.0,0.0,0.0,0.0,0.0,0.0,1.6289,1.6317,1.6669,1.8223,1.9549,2.0227,2.1196,2.1797,2.1797,2.0273,1.9734,2.0718,2.3963,2.7057,2.9781,3.1891,3.3577,3.4829,3.6193,3.6837,3.6714,3.7766,3.827,3.8258,3.8222,3.8811,3.9884,3.9463,3.9546,3.9982,3.9982,4.0397,4.1063,4.1063,4.1463,4.1832,3.9785,3.88,3.8246,3.6199,3.5676,3.563,3.3244,3.2198,3.1536,2.9545,2.7257,2.4948,0.0,0.0,0.0,0.0,0.0,0.0,0.0,0.0,0.0,0.0,0.0,0.0,0.0,0.0,2.8157,0.0,0.0,3.3229,3.5568,3.74,3.8754,3.9447,4.0139,4.017,3.9105,3.9016,3.9016,3.9016,3.8708,3.8369,3.8031,3.7692,3.7353,3.7015,3.6676,3.6492,3.6492,3.6492,3.6168,3.5521,3.5183,3.4799,3.4429,3.3737,3.3413,3.3457,3.3413,3.3029,3.2413,3.2752,3.2906,3.2906,3.2906,3.269,3.2425,3.2695,3.3236,3.3826,3.3765,3.409,3.4496,0.0,0.0,0.0,0.0,0.0,0.0,0.0,1.6425,1.631,1.6377,1.773,1.8747,1.8886,1.9748,1.9871,1.8793,1.9549,2.0551,2.1612,2.5641,2.9119,3.1686,3.4291,3.5487,3.5033,3.7346,3.8216,3.7602,3.8748,3.9305,3.9284,3.8635,3.8782,3.9499,3.8855,3.9269,4.0489,4.0489,4.1135,4.2171,4.1755,4.2556,4.3756,4.1571,4.0782,4.0705,3.9247,3.7754,3.6415,3.5891,3.4398,3.2749,3.2348,3.052,2.8104,2.578,2.4425,0.0,0.0,0.0,0.0,0.0,0.0,0.0,0.0,0.0,2.7987,2.915,3.0674,3.2351,3.4166,3.5383,3.7015,3.9844,4.0413,4.0751,4.1494,4.1478,4.0924,3.9644,3.9598,3.9628,3.949,3.9031,3.8431,3.7754,3.7569,3.7261,3.6722,3.6569,3.6492,3.6492,3.6492,3.623,3.5722,3.5583,3.4983,3.3998,3.3875,3.3521,3.3013,3.3429,3.3229,3.2613,3.3029,3.3213,3.3213,3.3213,3.289,3.2398,3.2398,3.2721,3.3136,3.2598,3.2776,3.3293,0.0,0.0,0.0,0.0,0.0,0.0,0.0,0.0,1.6669,1.7038,1.6763,1.6777,1.7362,1.7038,1.6716,1.6562,2.0408,2.2917,2.3055,2.7449,3.0986,3.309,3.523,3.6906,3.8002,3.891,3.9256,3.9056,3.9239,3.9305,3.9305,3.9196,3.9621,4.037,4.0266,4.0335,4.0489,4.0489,4.0582,4.0782,4.137,4.1724,4.1894,4.1586,4.1863,4.2109,4.009,3.8138,3.6476,3.6399,3.543,3.4366,3.489,3.3967,3.2105,2.8889,2.6573,2.4887,2.3994,2.4348,2.5558,2.8104,2.7488,2.7365,0.0,0.0,3.2659,3.2813,3.4906,3.6245,3.4782,3.6507,3.8492,3.9428,4.0105,4.0751,4.1494,4.1047,4.0336,3.9582,4.0013,4.0136,3.9551,3.9413,3.9123,3.8446,3.7846,3.7461,3.7384,3.6815,3.6492,3.6492,3.6492,3.6445,3.6384,3.5784,3.5707,3.6138,3.5537,3.5244,3.5152,3.4613,3.3967,3.326,3.2736,3.2505,3.2505,3.2505,3.2459,3.2398,3.2398,3.2444,3.249,3.2428,3.3044,3.3894,0.0,0.0,0.0,0.0,0.0,0.0,0.0,0.0,0.0,1.6827,1.6475,1.6302,1.6578,1.6377,1.6194,1.6194,1.9485,2.2228,2.3779,2.7957,3.1505,3.3921,3.6368,3.7713,3.7815,3.9302,3.9836,3.9305,3.9763,3.9763,3.9305,3.9305,3.9463,3.9814,3.9814,4.0076,4.0489,4.0489,4.0735,4.114,4.1032,4.1463,4.2094,4.1278,4.0662,3.9955,3.7908,3.6107,0.0,3.3783,3.3165,3.2887,3.3937,3.3075,3.1243,2.9042,2.778,0.0,2.7695,2.835,2.9304,0.0,3.2013,3.2982,3.5737,3.6384,3.6707,3.7923,3.9093,3.9631,3.8785,4.017,4.1294,0.0,4.1617,4.214,4.1663,4.0986,4.0105,3.9029,3.8831,3.8816,3.8923,3.8923,3.8816,3.8539,3.7877,3.7677,3.8061,3.7076,3.6676,3.7076,3.6692,3.6492,3.6492,3.6215,3.6014,3.5891,3.5614,3.5306,3.4905,3.4168,3.3475,3.2813,3.2936,3.2752,3.2428,3.2813,3.2752,3.2398,3.2398,3.2398,3.2398,3.2398,3.2668,3.3108,0.0,0.0,0.0,0.0,0.0,0.0,0.0,0.0,0.0,0.0,1.6371,1.6194,1.6194,1.6194,1.6194,1.6194,1.8531,2.1073,2.3579,2.7741,3.1182,3.355,3.6584,3.7938,3.7375,3.9219,4.0032,3.9621,4.043,4.0414,3.9657,3.9853,3.9838,3.9621,3.9621,3.9955,4.0489,4.0489,4.0689,4.097,4.0428,4.0705,4.1324,3.9939,3.8446,3.6938,3.566,3.3952,3.2121,3.0951,3.032,3.0269,3.1597,3.1028,2.9679,2.8919,2.8688,2.8904,2.9848,3.0889,0.0,3.4044,3.5938,3.7738,3.9293,3.977,4.0278,4.1601,4.1878,4.1709,4.114,4.1801,4.2202,4.1432,4.1955,4.2186,4.1417,4.0539,3.9428,3.8123,3.7353,3.7061,3.7369,3.7738,3.8031,3.8215,3.76,3.76,3.8462,3.74,3.7076,3.7754,3.7123,3.6861,3.7046,3.6676,3.6338,3.6045,3.5845,3.5537,3.5028,3.4106,3.3229,3.2428,3.2906,3.2844,3.2428,3.2921,3.2844,3.2398,3.2398,3.2398,3.2398,3.2398,3.2602,3.2911,0.0,0.0,0.0,0.0,0.0,0.0,0.0,0.0,0.0,0.0,0.0,0.0,0.0,1.6194,1.6194,1.6194,1.8115,2.0196,2.2228,2.6811,3.0058,3.1413,3.5368,3.7538,3.7491,3.8829,3.9844,4.0455,4.1181,4.1166,4.047,4.1197,4.1166,4.0455,4.0455,4.0489,4.0489,4.0489,4.0136,3.9551,3.9521,3.9185,3.8492,3.7138,3.5337,3.3644,3.4305,3.2367,2.9427,2.8735,2.7626,2.678,2.8134,2.8519,2.8581,2.9196,2.9356,2.9371,2.9417,0.0,3.3167,3.6538,3.8415,3.997,4.2017,4.2971,4.33,4.2694,4.2586,4.1955,3.992,3.9616,3.9797,4.0428,4.0013,3.9828,4.0443,3.9367,3.8061,3.6722,3.5953,3.5321,0.0,3.5784,3.683,3.7477,3.6907,3.7107,3.8431,3.7846,3.7784,3.8462,3.7831,3.7784,3.8446,3.7153,3.6815,3.743,3.6769,3.6445,3.6384,3.5075,3.3719,3.2398,3.2413,3.2413,3.2398,3.2413,3.2413,3.2398,3.2398,3.2398,3.2398,3.2398,3.3055,3.396,0.0,0.0,0.0,0.0,0.0,0.0,0.0,0.0,0.0,0.0,0.0,0.0,0.0,0.0,0.0,0.0,1.7654,1.9254,2.0872,2.4995,2.8011,2.935,3.3349,3.5521,3.5521,3.6815,3.7846,3.8523,3.8769,3.8985,3.92,3.9431,3.9416,3.9152,3.9152,3.9152,3.9152,3.9152,3.9046,3.8816,3.8354,3.8046,3.7492,3.4306,3.2413,3.1043,0.0,2.6611,2.5857,2.4733,2.4348,2.4579,2.5933,2.5733,2.5231,2.6415,2.73,2.8666,3.1888,0.0,3.5847,3.9327,4.0893,4.2094,4.4125,4.4101,4.3547,4.3294,4.1817,4.0078,3.8477,3.8185,3.8262,3.8477,3.9077,3.9567,3.9782,3.9077,3.7846,3.6045,3.526,0.0,0.0,0.0,0.0,3.6738,3.6615,3.7277,3.9077,3.8539,3.8477,3.9154,3.8523,3.8277,3.8508,3.7615,3.7277,3.7492,3.6815,3.6261,3.5829,3.4921,3.3981,3.3044,3.2582,3.2398,3.2398,3.2398,3.2398,3.2398,3.2398,3.2398,3.2398,3.2398,3.2841,3.3537,0.0,0.0,0.0,0.0,0.0,0.0,0.0,0.0,0.0,0.0,0.0,0.0,0.0,0.0,0.0,0.0,0.0,1.8069,1.9454,2.2721,2.5185,2.6518,3.0027,3.2086,3.2333,3.3398,3.4168,3.4614,3.5568,3.6014,3.5984,3.6969,3.743,3.7446,3.7677,3.7923,3.8138,3.8138,3.7446,3.6261,3.5584,3.4752,3.3552,3.0412,2.8812,0.0,2.421,2.2902,2.2732,2.1889,2.1915,2.2568,2.3825,2.4478,2.4805,2.497,2.6901,2.9767,3.3282,3.5744,3.8072,4.1094,4.2766,4.3879,4.4679,4.4225,4.3331,4.2325,4.0155,3.7954,3.6338,3.5645,3.5476,3.5953,3.6769,3.7645,3.8547,3.7967,3.6999,3.5876,3.5,0.0,0.0,0.0,0.0,3.6384,3.6722,3.7631,3.9431,3.9108,3.9136,3.9828,3.9198,3.8985,3.9198,3.8077,3.7384,3.7138,3.6707,3.6138,3.5491,3.4813,3.412,3.3367,3.269,3.2398,3.2398,3.2398,3.2398,3.2398,3.2398,3.2398,3.2398,3.2398,3.2749,3.3261,0.0,0.0,0.0,0.0,0.0,0.0,0.0,0.0,0.0,0.0,0.0,0.0,0.0,0.0,0.0,0.0,0.0,0.0,1.8023,2.0039,2.1766,2.304,2.5764,2.7534,2.8181,2.8864,2.9248,2.9294,3.1859,3.2459,3.1289,3.3935,3.5152,3.5153,3.5784,3.643,3.703,3.703,3.5153,3.2136,3.1459,2.9658,2.7226,2.5711,2.4758,2.4071,2.264,2.135,2.0304,2.035,2.0555,2.0976,2.2045,2.47,2.7007,2.5088,2.8183,3.2475,3.365,3.6543,3.9735,4.1786,4.3834,4.501,4.3727,4.3396,4.2565,3.9936,3.766,3.5568,0.0,0.0,3.1628,3.3013,3.337,3.4341,3.6838,3.6321,3.5845,0.0,0.0,0.0,0.0,0.0,0.0,3.6445,0.0,3.8092,3.9447,3.9521,3.9828,4.0474,3.9874,3.9844,4.0489,3.8554,3.7215,3.6538,3.6507,3.6153,3.5537,3.4828,3.4135,3.3413,3.2705,3.2398,3.2398,3.2398,3.2398,3.2398,3.2398,3.2398,3.2398,3.2398,3.2722,3.3251,0.0,0.0,0.0,0.0,0.0,0.0,0.0,0.0,0.0,0.0,0.0,0.0,0.0,0.0,0.0,0.0,0.0,0.0,1.6686,1.867,1.9965,2.0304,2.3379,2.5179,2.5349,2.6534,2.7411,2.7919,2.8596,2.9012,2.9181,2.9889,3.0212,3.0212,3.0397,3.0566,3.072,3.072,3.0228,2.9366,2.8688,2.7996,2.7072,2.4164,2.3271,2.324,2.0888,2.0165,2.0381,2.0872,0.0,0.0,0.0,2.5268,2.7266,2.7612,3.0058,3.3185,3.5577,3.7873,3.996,4.166,4.2005,4.1907,4.1705,4.0412,3.8957,3.7843,3.4529,3.1493,0.0,0.0,0.0,3.07,3.3033,0.0,3.7006,3.7833,0.0,3.7258,0.0,3.6538,3.603,3.643,0.0,0.0,3.74,3.8092,3.9447,3.9967,4.032,4.0489,4.032,4.032,4.0489,3.9016,3.7923,3.723,3.6738,3.6399,3.6199,3.5044,3.4412,3.4166,3.2921,3.2398,3.2398,3.2398,3.2398,3.2398,3.2398,3.2398,3.2398,3.2398,3.2492,3.2668,0.0,0.0,0.0,0.0,0.0,0.0,0.0,0.0,0.0,0.0,0.0,0.0,0.0,0.0,0.0,0.0,0.0,0.0,0.0,1.7284,1.8084,1.8377,2.0193,2.147,2.2089,2.2875,2.3322,2.3359,2.4579,2.5041,2.4856,2.6041,2.6765,2.7034,2.738,2.7688,2.7934,2.7642,2.6826,0.0,0.0,2.4179,2.3174,2.1596,2.1396,2.1797,2.0289,2.0411,0.0,0.0,0.0,2.5655,2.5841,2.7833,3.0093,3.0235,0.0,3.4821,3.6575,3.8533,4.0294,4.1168,4.1058,4.0557,3.9913,3.8077,3.6022,3.4379,3.1063,0.0,0.0,0.0,0.0,0.0,0.0,0.0,3.636,3.7481,3.8085,0.0,3.8058,0.0,3.7415,3.7723,3.8185,0.0,3.8554,3.8723,3.9444,4.0136,4.0489,4.0489,4.0489,4.0351,4.0043,3.9031,3.8169,3.7492,3.6815,3.6492,3.6445,3.5429,3.4951,3.4874,0.0,3.2844,3.2813,3.2521,3.2398,3.2398,3.2398,3.2398,3.2398,3.2398,3.2398,3.2465,0.0,0.0,0.0,0.0,0.0,0.0,0.0,0.0,0.0,0.0,0.0,0.0,0.0,0.0,0.0,0.0,0.0,0.0,0.0,0.0,1.6455,1.7039,1.7147,1.7807,1.9132,1.9256,1.9039,1.8484,2.087,2.1442,2.035,2.2671,2.4087,2.465,2.5302,2.5925,2.6411,2.5848,2.4215,2.1981,2.1396,2.0085,1.8561,0.0,1.9795,2.0304,2.0304,2.1106,0.0,0.0,2.6914,2.7839,2.866,3.1346,3.401,3.2863,3.4634,3.6954,3.708,3.8792,4.0544,4.0403,4.0209,3.9635,3.7971,3.5829,3.3402,3.0536,0.0,2.5504,2.411,0.0,2.4698,2.654,0.0,3.1591,3.5412,3.6303,3.7273,3.9115,3.899,3.8785,3.8785,3.8785,3.9228,4.0397,4.0043,3.9831,3.9924,4.0366,4.0597,4.0489,4.0489,4.0213,3.9628,3.8893,3.8215,3.7631,3.6861,3.6492,3.6476,3.5829,3.5506,3.5444,3.4106,0.0,3.349,3.2813,3.2521,3.2521,3.2521,3.2521,3.2536,3.2628,3.2613,3.2604,0.0,0.0,0.0,0.0,0.0,0.0,0.0,0.0,0.0,0.0,1.7142,1.6879,0.0,0.0,0.0,0.0,0.0,0.0,0.0,0.0,0.0,1.6377,1.6901,1.7577,1.8361,1.8993,1.9518,1.9933,2.041,2.0535,2.032,2.0782,2.1057,2.1165,2.1288,2.1411,2.1519,2.1414,2.1073,2.0643,2.0518,2.0256,1.9948,2.0088,0.0,0.0,2.0304,0.0,0.0,2.5469,2.8161,3.0044,3.2078,3.4199,3.5818,3.5421,3.6815,3.8478,3.8359,3.9285,4.0082,3.9356,3.7998,3.6401,3.4847,3.2716,0.0,0.0,0.0,2.4167,2.3196,2.3608,0.0,2.5787,0.0,0.0,0.0,0.0,3.7717,0.0,0.0,0.0,0.0,0.0,0.0,0.0,0.0,4.1478,4.2048,4.1648,4.114,4.0505,4.0489,4.0443,4.032,3.9123,3.8446,3.8323,3.7092,3.6492,3.6476,3.5829,3.5506,3.5475,3.4659,0.0,3.4258,3.3521,3.3229,3.3229,3.3229,3.3229,3.329,3.3919,3.3737,3.3257,0.0,0.0,0.0,0.0,0.0,0.0,0.0,1.78,1.7755,1.7624,1.7372,1.7055,1.6633,1.649,1.6357,0.0,0.0,0.0,0.0,0.0,0.0,0.0,0.0,0.0,1.8192,1.8545,0.0,0.0,0.0,2.0119,1.9795,0.0,0.0,2.0304,2.0304,2.0304,2.0289,1.9934,1.978,1.978,1.978,1.978,1.9811,0.0,0.0,0.0,0.0,0.0,0.0,0.0,2.7442,2.9785,3.3084,3.5547,3.7088,3.6412,3.7599,3.9039,3.852,3.9093,3.9615,3.9024,3.7417,3.548,3.3649,0.0,0.0,0.0,2.4095,2.2691,2.1465,0.0,0.0,0.0,0.0,0.0,0.0,0.0,0.0,0.0,0.0,0.0,0.0,0.0,0.0,0.0,0.0,4.2109,4.2078,4.1771,4.1263,4.052,4.0489,4.0489,4.0489,3.9539,3.8862,3.8492,3.7861,3.7169,3.6492,3.6522,3.6338,3.5968,3.5321,0.0,3.4474,3.4135,3.3737,3.3444,3.3814,3.3967,3.3998,3.4382,3.4289,3.401,0.0,0.0,0.0,0.0,0.0,0.0,0.0,1.78,1.78,1.78,1.7612,1.7301,1.6828,1.6675,1.649,0.0,0.0,0.0,0.0,0.0,0.0,0.0,0.0,0.0,0.0,0.0,0.0,0.0,0.0,0.0,0.0,0.0,0.0,0.0,0.0,0.0,2.0273,1.9734,1.9502,0.0,0.0,0.0,0.0,0.0,0.0,0.0,0.0,0.0,0.0,0.0,2.5676,2.761,3.146,3.4781,3.7072,3.6045,3.7277,3.8851,3.8305,3.8773,3.9281,3.8876,3.7237,3.5103,3.2694,3.0224,0.0,0.0,2.2367,2.1667,2.0074,0.0,0.0,0.0,0.0,0.0,0.0,0.0,0.0,0.0,0.0,0.0,0.0,0.0,0.0,0.0,0.0,0.0,4.1832,4.1678,4.1263,4.052,4.0489,4.0489,4.0489,3.9828,3.9136,3.8508,3.8508,3.78,3.6507,3.7184,3.7138,3.6461,3.5922,0.0,0.0,3.4782,3.4382,3.3906,3.4505,3.472,3.4736,3.489,3.4932,3.4953,0.0,0.0,0.0,0.0,0.0,0.0,0.0,1.78,1.78,1.78,1.7789,1.7647,1.7361,1.6892,1.649,0.0,0.0,0.0,0.0,0.0,0.0,0.0,0.0,0.0,0.0,0.0,0.0,0.0,0.0,0.0,0.0,0.0,0.0,0.0,0.0,0.0,0.0,2.0243,0.0,0.0,0.0,0.0,0.0,0.0,0.0,0.0,0.0,0.0,0.0,0.0,0.0,2.2964,2.5797,3.0296,3.442,3.3794,0.0,0.0,3.7848,3.8675,3.9275,3.8495,3.6728,3.4285,3.087,0.0,0.0,2.2351,2.1892,2.1758,2.002,2.1169,2.2707,0.0,0.0,2.7673,0.0,0.0,0.0,0.0,0.0,0.0,0.0,0.0,0.0,0.0,0.0,0.0,4.2479,4.1925,4.1263,4.052,4.0489,4.0489,4.0489,3.9828,3.9136,3.8508,3.8508,3.78,3.6507,3.7184,3.7138,3.6492,3.643,0.0,0.0,3.5645,3.5383,3.5291,3.5398,3.5429,3.546,3.6076,3.6285,3.6222,0.0,0.0,0.0,0.0,0.0,0.0,1.78,1.78,1.78,1.78,1.78,1.7692,1.742,1.7068,1.6725,1.6463,0.0,0.0,0.0,0.0,0.0,0.0,0.0,0.0,0.0,0.0,0.0,0.0,0.0,0.0,0.0,0.0,0.0,0.0,0.0,0.0,0.0,0.0,0.0,0.0,0.0,0.0,0.0,0.0,0.0,0.0,0.0,0.0,0.0,0.0,0.0,0.0,2.3114,2.5779,0.0,0.0,3.3569,3.6358,3.6703,3.788,3.8952,3.8554,3.6465,3.3882,3.1547,0.0,2.6438,2.2527,2.2037,2.1796,2.0179,2.0877,2.2075,2.3203,2.3512,0.0,0.0,0.0,0.0,0.0,0.0,0.0,0.0,0.0,0.0,0.0,0.0,0.0,4.254,4.1971,4.1263,4.052,4.0489,4.0489,4.0489,4.0228,3.9751,3.9123,3.949,3.88,3.7123,3.78,3.7523,3.6492,3.6492,0.0,0.0,3.6045,3.5845,3.5552,3.5938,3.6091,3.6122,3.6384,3.6492,3.6577,0.0,0.0,0.0,0.0,0.0,1.7833,1.7833,1.7811,1.78,1.78,1.78,1.7692,1.742,1.7167,1.6892,1.662,1.6357,0.0,0.0,0.0,0.0,0.0,0.0,0.0,0.0,0.0,1.9626,2.0304,2.0304,0.0,0.0,0.0,0.0,0.0,0.0,0.0,0.0,0.0,0.0,0.0,0.0,0.0,0.0,0.0,0.0,0.0,0.0,0.0,0.0,0.0,0.0,0.0,0.0,0.0,2.4345,0.0,3.1177,3.4327,3.4936,3.6488,3.79,3.774,3.5626,3.3091,0.0,0.0,2.6006,2.2282,2.1919,2.1814,2.0212,2.0513,2.1387,2.2578,2.2651,2.4122,0.0,0.0,0.0,0.0,0.0,0.0,0.0,0.0,0.0,0.0,0.0,0.0,0.0,4.1648,4.1047,4.0505,4.0489,4.0489,4.0489,4.0489,4.0151,3.9524,3.9967,3.9228,3.7523,3.8,3.7584,3.6492,0.0,0.0,0.0,3.6292,3.6091,3.5583,3.623,3.6368,3.6215,3.6415,3.66,3.6922,0.0,0.0,0.0,0.0,0.0,0.0,1.7894,1.7828,1.78,1.78,1.78,1.7692,1.742,1.7167,1.6892,1.662,1.6357,0.0,0.0,0.0,0.0,0.0,0.0,0.0,0.0,0.0,1.9626,2.0304,2.0304,2.0304,2.0304,2.0304,0.0,0.0,0.0,0.0,0.0,0.0,0.0,0.0,0.0,0.0,0.0,0.0,0.0,0.0,0.0,0.0,0.0,0.0,0.0,0.0,0.0,2.0877,2.1972,2.466,2.8199,3.1463,3.245,3.4397,3.6048,3.57,3.4032,3.1629,0.0,0.0,2.5333,2.1173,2.1374,2.1777,2.002,2.0043,2.0678,2.182,2.3061,0.0,0.0,0.0,0.0,0.0,0.0,0.0,0.0,0.0,0.0,0.0,0.0,0.0,0.0,4.0889,4.0505,4.0489,4.0489,4.0489,4.0489,4.0489,4.0151,3.949,3.949,3.8816,3.7507,3.7507,3.7138,0.0,0.0,0.0,0.0,3.6492,3.6091,3.5583,3.623,3.6076,3.5598,3.6245,3.6861,3.746,0.0,0.0,0.0,0.0,0.0,0.0,0.0,1.7872,1.7856,1.7811,1.7635,1.7479,1.7408,1.7005,1.6686,1.661,1.6357,0.0,0.0,0.0,0.0,0.0,0.0,0.0,0.0,1.9362,2.0088,2.0304,2.0749,2.0749,2.032,2.0764,2.0734,2.0304,0.0,0.0,0.0,0.0,0.0,0.0,0.0,0.0,0.0,0.0,0.0,0.0,0.0,0.0,0.0,0.0,0.0,0.0,0.0,0.0,0.0,2.2565,2.5037,0.0,2.8019,2.9315,3.0507,3.0525,2.9302,2.7752,2.6498,0.0,2.3703,2.1343,2.1255,2.128,2.018,2.015,2.1024,2.3222,2.3756,2.5075,0.0,0.0,0.0,0.0,0.0,0.0,0.0,0.0,0.0,0.0,0.0,0.0,0.0,4.1386,4.1032,4.0505,4.0489,4.0489,4.0489,4.0489,4.0151,3.949,3.949,3.8816,3.7507,3.7507,0.0,0.0,0.0,0.0,0.0,3.6492,3.6368,3.6184,3.6415,3.6615,3.682,3.7055,3.749,3.8096,0.0,0.0,0.0,0.0,0.0,0.0,0.0,1.7872,1.7856,1.7811,1.7566,1.7396,1.7396,1.6917,1.661,1.661,1.6357,0.0,0.0,0.0,0.0,0.0,0.0,0.0,1.8638,1.9717,2.0428,2.069,2.1103,2.1211,2.1057,2.1488,2.1319,2.069,2.069,2.0551,0.0,0.0,0.0,0.0,0.0,0.0,2.0335,0.0,0.0,0.0,0.0,0.0,0.0,0.0,0.0,0.0,0.0,0.0,0.0,0.0,2.2259,2.3594,0.0,2.6162,2.7232,2.7202,2.6318,0.0,0.0,0.0,2.262,2.1048,2.1231,2.136,2.0264,2.04,2.1304,2.32,2.3987,0.0,0.0,0.0,0.0,0.0,0.0,0.0,0.0,0.0,0.0,0.0,0.0,0.0,0.0,4.1601,4.1263,4.052,4.0489,4.0489,4.0489,4.0489,4.0151,3.949,3.9262,3.8708,3.7877,3.7615,0.0,0.0,0.0,0.0,0.0,3.6599,3.6338,3.6168,3.6646,3.6766,3.6773,3.7483,3.7825,3.8067,0.0,0.0,0.0,0.0,0.0,0.0,0.0,1.7856,1.7811,1.78,1.7566,1.7384,1.7372,1.6904,1.6596,1.657,0.0,0.0,0.0,0.0,0.0,0.0,0.0,0.0,1.9225,1.9934,2.0613,2.1227,2.1319,2.1642,2.2166,2.2259,2.192,2.1227,2.1227,2.0872,2.0304,2.0304,2.0304,2.0304,2.0304,2.0304,0.0,0.0,0.0,0.0,0.0,0.0,0.0,0.0,0.0,0.0,0.0,0.0,0.0,0.0,0.0,0.0,0.0,2.4385,0.0,0.0,0.0,0.0,0.0,0.0,0.0,2.0411,2.1246,2.1818,2.0424,2.0824,2.1624,2.2374,2.4028,0.0,0.0,0.0,0.0,0.0,0.0,0.0,0.0,0.0,0.0,0.0,0.0,0.0,0.0,4.1571,4.1263,4.052,4.0489,4.0489,4.0489,4.0443,4.0074,3.9413,3.8816,3.8462,3.8354,3.7769,0.0,0.0,0.0,0.0,0.0,3.6892,3.6245,3.5767,3.6946,3.6699,3.5856,3.7719,3.803,3.7695,0.0,0.0,0.0,0.0,0.0,0.0,0.0,0.0,0.0,0.0,1.7566,1.7325,1.7117,1.6802,1.6517,0.0,0.0,0.0,0.0,0.0,0.0,0.0,0.0,0.0,1.8484,1.9671,2.0381,2.0551,2.1565,2.1627,2.078,2.1827,2.1673,2.0551,2.0551,2.0458,2.0304,2.0304,2.0304,2.0304,2.0304,2.0304,0.0,0.0,0.0,0.0,2.2074,2.2212,0.0,0.0,0.0,0.0,0.0,0.0,0.0,0.0,2.0007,1.9121,1.9562,0.0,2.0348,2.0578,2.0728,2.0724,0.0,0.0,0.0,0.0,0.0,0.0,0.0,2.1929,2.2778,2.4983,0.0,0.0,0.0,0.0,0.0,0.0,0.0,0.0,0.0,0.0,0.0,0.0,0.0,0.0,0.0,4.1294,4.1263,4.052,4.0489,4.0489,4.0489,3.9982,3.9382,3.8739,3.8585,3.7969,3.6984,3.7338,0.0,0.0,0.0,0.0,3.8262,3.8108,3.7631,3.7077,3.7342,3.725,3.714,3.8602,3.9007,3.8865,0.0,0.0,0.0,0.0,0.0,0.0,0.0,0.0,0.0,0.0,0.0,0.0,0.0,0.0,0.0,0.0,0.0,0.0,0.0,0.0,0.0,0.0,0.0,1.9948,1.9192,1.9917,2.0613,2.1211,2.1951,2.2089,2.1704,2.2732,2.2351,2.0749,2.0443,2.0304,2.0304,2.0304,2.0304,2.0304,2.0304,0.0,0.0,0.0,0.0,0.0,2.2855,2.2609,0.0,2.2963,2.2575,2.1909,0.0,0.0,0.0,0.0,2.0396,1.9343,1.934,1.9378,1.9506,1.9933,2.0321,2.0625,2.0625,0.0,0.0,0.0,0.0,0.0,0.0,0.0,0.0,0.0,0.0,0.0,0.0,0.0,0.0,0.0,0.0,0.0,0.0,0.0,0.0,0.0,0.0,0.0,0.0,4.1386,4.1263,4.052,4.0489,4.0489,4.0489,3.9828,3.9136,3.8508,3.82,3.7661,3.6969,3.7338,3.7677,0.0,0.0,0.0,3.8015,3.7707,3.7184,3.663,3.7235,3.7077,3.6756,3.8618,3.9296,3.9364,0.0,0.0,0.0,0.0,0.0,0.0,0.0,0.0,0.0,0.0,0.0,0.0,0.0,0.0,0.0,0.0,0.0,0.0,0.0,0.0,0.0,0.0,1.9609,2.0258,2.015,2.0258,2.0903,2.2151,2.2259,2.2578,2.3163,2.3733,2.2978,2.1119,2.0657,2.0412,2.0304,2.0304,2.0366,2.0458,2.0458,0.0,0.0,0.0,0.0,0.0,0.0,0.0,0.0,2.304,2.2376,2.1214,2.2344,0.0,0.0,0.0,0.0,0.0,2.0266,2.0611,2.0883,2.0962,2.1382,2.1758,2.1652,0.0,0.0,0.0,0.0,0.0,0.0,0.0,0.0,0.0,0.0,0.0,0.0,0.0,0.0,0.0,0.0,0.0,0.0,0.0,0.0,0.0,0.0,0.0,0.0,4.1432,4.1155,4.0505,4.0397,4.0336,4.0336,3.9674,3.9077,3.8492,3.7831,3.7446,3.7353,3.7446,3.7877,3.8477,0.0,0.0,3.7754,3.7076,3.6399,3.5891,3.6886,3.6594,3.5918,3.8093,3.9116,3.9467,0.0,0.0,0.0,0.0,0.0,0.0,0.0,0.0,0.0,0.0,0.0,0.0,0.0,0.0,0.0,0.0,0.0,0.0,0.0,0.0,0.0,1.9148,1.9871,2.0042,1.9456,2.0011,2.069,2.1442,2.2028,2.2351,2.2459,2.2548,2.1843,2.0456,2.0934,2.0826,2.0304,2.0304,2.0643,2.115,2.115,0.0,0.0,0.0,0.0,0.0,0.0,0.0,0.0,2.3887,2.3585,2.2926,2.3125,0.0,0.0,0.0,0.0,0.0,2.0374,2.1571,2.2185,2.0766,2.1329,2.2056,2.1489,0.0,0.0,0.0,0.0,0.0,0.0,0.0,0.0,0.0,0.0,0.0,0.0,0.0,0.0,0.0,0.0,0.0,0.0,0.0,0.0,0.0,0.0,0.0,0.0,4.0659,4.0612,4.0489,3.9936,3.9644,3.9644,3.9,3.8616,3.8492,3.7831,3.72,3.6661,3.723,3.7877,3.8477,0.0,3.8154,3.9154,3.8477,3.78,3.7138,3.6786,3.6508,3.6445,3.7275,3.837,3.9467,0.0,0.0,0.0,0.0,0.0,0.0,0.0,0.0,0.0,0.0,0.0,0.0,0.0,0.0,0.0,0.0,0.0,0.0,0.0,0.0,1.9842,1.9842,2.015,2.0335,2.0381,2.0672,2.135,2.2382,2.2686,2.284,2.2825,2.2398,2.1891,2.1381,2.1246,2.0865,2.0304,2.0304,2.0705,2.1304,0.0,0.0,0.0,0.0,0.0,0.0,0.0,0.0,0.0,0.0,2.2763,2.2228,2.2228,0.0,0.0,0.0,0.0,0.0,2.0354,2.1243,2.1843,2.1044,2.2186,2.3299,2.2551,2.2105,0.0,0.0,0.0,0.0,0.0,0.0,0.0,0.0,0.0,0.0,0.0,0.0,0.0,0.0,0.0,0.0,0.0,0.0,0.0,0.0,0.0,0.0,0.0,0.0,4.0489,4.0489,3.9844,3.949,3.949,3.8492,3.7969,3.7954,3.7277,3.6799,3.6507,3.6815,3.7123,3.74,0.0,3.7307,3.7861,3.7554,3.7015,3.6415,3.6476,3.6261,3.6167,3.7831,3.9001,3.9864,0.0,0.0,0.0,0.0,0.0,0.0,0.0,0.0,0.0,0.0,0.0,0.0,0.0,0.0,0.0,0.0,0.0,0.0,0.0,1.9609,2.0304,2.0304,2.0458,2.0764,2.1288,2.1304,2.1966,2.3302,2.3302,2.3282,2.3247,2.265,2.2252,2.1987,2.1562,2.0985,2.032,2.0474,2.0919,2.155,0.0,0.0,0.0,0.0,0.0,0.0,0.0,0.0,0.0,0.0,0.0,0.0,0.0,0.0,0.0,2.1103,2.0687,2.0335,2.0489,2.0921,2.1387,2.1498,2.2778,2.3939,2.3805,2.3363,2.324,0.0,0.0,0.0,0.0,0.0,0.0,0.0,0.0,0.0,0.0,0.0,0.0,0.0,0.0,0.0,0.0,0.0,0.0,0.0,0.0,0.0,0.0,0.0,4.0259,4.0259,3.9444,3.9013,3.9013,3.7861,3.7338,3.7492,3.6815,3.6492,3.6492,3.6492,3.6584,3.6722,3.6553,3.6584,3.6707,3.6384,3.5953,3.5552,3.6059,3.6004,3.5886,3.8087,3.9197,3.9706,0.0,0.0,0.0,0.0,0.0,0.0,0.0,0.0,0.0,0.0,0.0,0.0,0.0,0.0,0.0,0.0,0.0,0.0,0.0,1.9903,2.0304,2.0304,2.0888,2.1242,2.1304,2.1304,2.1966,2.3302,2.3302,2.3227,2.3111,2.3181,2.249,2.1234,2.191,2.1486,2.035,2.0949,2.1612,2.227,2.2902,0.0,0.0,0.0,0.0,0.0,0.0,0.0,0.0,0.0,0.0,0.0,0.0,0.0,2.118,2.0551,2.035,2.0443,2.1057,2.1345,2.1605,2.2095,2.2344,2.2939,2.4743,2.5112,2.5487,2.6826,0.0,0.0,0.0,0.0,0.0,0.0,0.0,0.0,0.0,0.0,0.0,0.0,0.0,0.0,0.0,0.0,0.0,0.0,0.0,0.0,0.0,0.0,0.0,3.9551,3.8323,3.7646,3.7646,3.6923,3.6876,3.7492,3.6815,3.6492,3.6492,3.6492,3.683,3.7384,3.6769,3.6846,3.7338,3.6076,3.5552,3.5505,3.547,3.5675,3.6075,3.7069,3.7711,3.8159,0.0,0.0,0.0,0.0,0.0,0.0,0.0,0.0,0.0,0.0,0.0,0.0,0.0,0.0,0.0,0.0,0.0,0.0,0.0,1.9934,2.0304,2.0304,2.0934,2.1504,2.192,2.2336,2.2778,2.3302,2.3717,2.3682,2.3227,2.3651,2.336,2.2474,2.2696,2.2336,2.1565,2.1812,2.232,2.2932,2.3194,2.3702,0.0,0.0,0.0,0.0,0.0,0.0,0.0,0.0,2.2074,2.1227,2.0811,2.0949,2.1165,2.0505,2.0304,2.0366,2.0595,2.1326,2.2037,2.2248,2.2917,2.4087,2.6149,2.6934,2.7734,2.952,3.0212,0.0,0.0,0.0,0.0,0.0,0.0,0.0,0.0,0.0,0.0,0.0,0.0,0.0,0.0,0.0,0.0,0.0,0.0,0.0,0.0,0.0,0.0,3.8908,3.7984,3.7507,3.7507,3.683,3.6615,3.6876,3.6615,3.6492,3.6492,3.6492,3.663,3.6861,3.6599,3.663,3.6799,3.5891,3.5737,3.6091,3.6003,3.6227,3.6663,3.7004,3.7436,3.7939,0.0,0.0,0.0,0.0,0.0,0.0,0.0,0.0,0.0,0.0,0.0,0.0,0.0,0.0,0.0,0.0,0.0,0.0,1.961,2.0243,2.0628,2.0628,2.1458,2.2058,2.2286,2.3163,2.3517,2.3302,2.3548,2.3615,2.3524,2.3784,2.3539,2.2896,2.3075,2.2735,2.2012,2.2443,2.2871,2.3317,2.3533,2.3887,0.0,0.0,0.0,0.0,0.0,0.0,0.0,0.0,2.1673,2.118,2.052,2.0595,2.0888,2.0426,2.0304,2.0304,2.0304,2.0965,2.1827,2.2455,2.3302,2.4918,2.8473,2.9319,3.0043,3.249,3.3029,3.2982,0.0,0.0,0.0,0.0,0.0,0.0,0.0,0.0,0.0,0.0,0.0,0.0,0.0,0.0,0.0,0.0,0.0,0.0,0.0,0.0,0.0,0.0,3.7538,3.7076,3.6861,3.6399,3.6061,3.5891,3.5891,3.6076,3.6492,3.6492,3.6368,3.6168,3.6168,3.6045,3.5799,3.5106,3.5483,3.6397,3.5878,3.6476,3.7561,3.692,3.7193,3.7838,0.0,0.0,0.0,0.0,0.0,0.0,0.0,0.0,0.0,0.0,0.0,0.0,0.0,0.0,0.0,0.0,0.0,0.0,2.032,2.0919,2.1304,2.1304,2.2578,2.2978,2.2317,2.3609,2.3979,2.3302,2.2624,2.2896,2.3973,2.3524,2.285,2.2059,2.2915,2.2548,2.1411,2.2732,2.3302,2.3363,2.404,2.4302,2.4302,0.0,0.0,0.0,0.0,0.0,0.0,0.0,2.1304,2.1165,2.052,2.0304,2.032,2.0304,2.0304,2.032,2.0304,2.032,2.0828,2.2809,0.0,0.0,3.1874,3.2351,3.2379,3.5799,3.5475,3.432,3.3567,0.0,0.0,0.0,0.0,0.0,0.0,0.0,0.0,0.0,0.0,0.0,0.0,0.0,0.0,0.0,0.0,0.0,0.0,0.0,0.0,0.0,3.683,3.6168,3.5506,3.5506,3.5167,3.4505,3.4505,3.5213,3.6476,3.6476,3.6122,3.5521,3.5521,3.5136,3.4459,3.3706,3.453,3.6145,3.4835,3.6225,3.8736,3.6752,3.6807,3.7686,0.0,0.0,0.0,0.0,0.0,0.0,0.0,0.0,0.0,0.0,0.0,0.0,0.0,0.0,0.0,0.0,0.0,0.0,2.0965,2.118,2.1504,2.1981,2.284,2.3209,2.3009,2.3394,2.3502,2.3302,2.3579,2.3631,2.3509,2.3846,2.36,2.2931,2.319,2.3071,2.2732,2.3117,2.3579,2.4025,2.4225,2.4302,2.4302,0.0,0.0,0.0,0.0,0.0,0.0,0.0,0.0,0.0,2.0366,2.061,2.0903,2.0443,2.0626,2.0888,2.0428,2.1673,0.0,2.3856,0.0,0.0,0.0,3.2351,0.0,0.0,3.7215,3.6538,0.0,0.0,0.0,0.0,0.0,0.0,0.0,0.0,0.0,0.0,0.0,0.0,0.0,0.0,0.0,0.0,0.0,0.0,0.0,0.0,0.0,0.0,3.6353,3.5938,3.4813,3.5275,3.5167,3.4505,3.4505,3.4967,3.5784,3.5784,3.5938,3.6184,3.6184,3.5814,3.5152,3.4474,3.4423,3.4872,3.5417,3.6104,3.6861,3.7205,3.7246,3.7043,0.0,0.0,0.0,0.0,0.0,0.0,0.0,0.0,0.0,0.0,2.0304,2.0304,0.0,0.0,0.0,0.0,0.0,0.0,0.0,2.1797,2.2255,2.2671,2.3332,2.3702,2.3702,2.3702,2.3702,2.3702,2.384,2.382,2.3656,2.4097,2.3912,2.3227,2.3282,2.3302,2.3286,2.3009,2.3286,2.3887,2.3609,2.3502,2.3502,0.0,0.0,0.0,0.0,0.0,0.0,0.0,0.0,0.0,2.0379,2.0749,2.1227,2.0828,2.098,2.1273,2.1134,2.2455,0.0,2.5256,2.7596,3.0263,3.2829,0.0,0.0,0.0,0.0,0.0,0.0,0.0,0.0,0.0,0.0,0.0,0.0,0.0,0.0,0.0,0.0,0.0,0.0,0.0,0.0,0.0,0.0,0.0,0.0,0.0,0.0,0.0,3.5614,3.5198,3.406,3.4445,3.4321,3.3673,3.3673,3.3998,3.4675,3.4982,3.5337,3.5691,3.5358,3.4949,3.4558,3.4154,3.4356,3.4965,3.5548,3.6137,3.6792,3.76,3.7432,3.6795,0.0,0.0,0.0,0.0,0.0,0.0,0.0,0.0,0.0,0.0,2.0441,2.0472,0.0,0.0,0.0,0.0,0.0,0.0,0.0,2.2609,2.3332,2.3394,2.3979,2.4333,2.4394,2.4333,2.4364,2.4502,2.381,2.3738,2.4208,2.4337,2.3933,2.3111,2.3247,2.3302,2.3255,2.264,2.2778,2.3332,2.2655,2.2443,2.249,2.2394,0.0,0.0,0.0,0.0,0.0,0.0,0.0,0.0,2.0489,2.0795,2.1381,2.1319,2.1334,2.1535,2.2212,2.2917,0.0,2.6903,2.8411,0.0,3.3167,0.0,0.0,0.0,0.0,0.0,0.0,0.0,0.0,0.0,0.0,0.0,0.0,0.0,0.0,0.0,0.0,0.0,0.0,0.0,0.0,0.0,0.0,0.0,0.0,0.0,0.0,3.5291,3.4782,3.4135,3.3321,3.3367,3.3059,3.2398,3.2398,3.2752,3.3429,3.4104,3.4443,3.4457,3.3595,3.3266,3.3277,3.3214,3.4262,3.5869,3.537,3.6224,3.7732,3.7848,3.7432,3.6795,0.0,0.0,0.0,0.0,0.0,0.0,0.0,0.0,0.0,0.0,0.0,0.0,0.0,0.0,0.0,0.0,0.0,0.0,0.0,2.3132,2.3533,2.4071,2.4225,2.4564,2.5066,2.4558,2.4841,2.5949,2.5226,2.4666,2.4291,2.4835,2.4435,2.3247,2.3302,2.3302,2.3286,2.3148,2.3471,2.4025,2.3348,2.3394,2.381,2.3286,2.2748,0.0,0.0,0.0,0.0,0.0,0.0,0.0,2.035,2.1119,2.1981,2.1442,2.1673,2.2224,2.2902,2.3963,0.0,0.0,3.229,3.5876,3.7123,0.0,0.0,0.0,0.0,0.0,0.0,0.0,0.0,0.0,0.0,0.0,0.0,0.0,0.0,0.0,0.0,0.0,0.0,0.0,0.0,0.0,0.0,0.0,0.0,0.0,3.4459,3.3875,3.4289,3.3904,3.2628,3.3136,3.3059,0.0,3.2398,3.2752,3.3413,3.3567,3.3937,3.4459,3.3694,3.3599,3.393,3.3419,3.4004,3.5242,3.5654,3.6017,3.6463,3.7518,3.7432,3.6795,0.0,0.0,0.0,0.0,0.0,0.0,0.0,0.0,0.0,0.0,0.0,0.0,0.0,0.0,0.0,0.0,0.0,0.0,0.0,0.0,2.3933,2.4287,2.4302,2.4604,2.5281,2.4958,2.5318,2.6402,2.6334,2.5795,2.4773,2.5127,2.4764,2.3779,2.3779,2.3963,2.4194,2.3225,2.3209,2.3733,2.2732,2.2347,2.2378,2.2351,2.1935,2.1334,2.1334,0.0,0.0,0.0,0.0,0.0,0.0,0.0,2.175,2.1396,2.155,2.212,2.3425,0.0,0.0,3.0397,0.0,3.72,3.7877,0.0,0.0,0.0,0.0,0.0,0.0,0.0,0.0,0.0,0.0,0.0,0.0,0.0,0.0,0.0,0.0,0.0,0.0,0.0,0.0,0.0,0.0,0.0,0.0,3.4366,3.3798,3.3413,3.3444,3.3136,3.2398,3.2752,3.2752,3.2398,3.2398,3.2582,3.2936,3.3244,3.3429,3.3488,3.3367,3.3617,3.4074,3.3732,3.4255,3.5299,3.5388,3.5573,3.5904,3.6983,3.6891,3.6282,0.0,0.0,0.0,0.0,0.0,0.0,0.0,0.0,0.0,0.0,0.0,0.0,0.0,0.0,0.0,0.0,0.0,0.0,0.0,0.0,0.0,2.4302,2.4302,2.4604,2.5281,2.5296,2.5733,2.6565,2.7242,2.698,2.5819,2.561,2.5072,2.4317,2.4425,2.4795,2.5189,2.3656,2.324,2.3533,2.232,2.1488,2.1026,2.135,2.1119,2.0643,2.052,2.0412,2.0304,2.0304,0.0,0.0,0.0,0.0,2.1304,2.1304,2.1304,2.1735,2.3748,0.0,2.8073,3.2198,3.4876,0.0,0.0,0.0,0.0,0.0,0.0,0.0,0.0,0.0,0.0,0.0,0.0,0.0,0.0,0.0,0.0,0.0,0.0,0.0,0.0,0.0,0.0,0.0,0.0,0.0,3.432,3.3614,3.3229,3.3229,3.269,3.2398,3.2398,3.2398,3.2398,3.2398,3.2398,3.2398,3.2413,3.2967,3.2921,3.241,3.2868,3.3433,3.4011,3.4011,3.4625,3.5554,3.5115,3.5201,3.5667,3.6349,3.618,3.5701,0.0,0.0,0.0,0.0,0.0,0.0,0.0,0.0,0.0,0.0,2.3671,0.0,0.0,0.0,0.0,0.0,0.0,0.0,0.0,0.0,0.0,2.4302,2.4302,2.4604,2.5281,2.5296,2.5964,2.7257,2.7934,2.8181,2.7965,2.6795,2.5549,2.4333,2.4896,2.5204,2.5312,2.5703,2.5533,2.4979,2.421,2.3856,2.3656,2.2563,2.212,2.1966,2.1365,2.078,2.0304,2.0304,2.0304,0.0,0.0,0.0,2.1304,2.1304,2.1304,2.1735,0.0,0.0,3.0294,0.0,3.4522,3.6507,0.0,0.0,0.0,0.0,0.0,0.0,0.0,0.0,0.0,0.0,0.0,0.0,0.0,0.0,0.0,0.0,0.0,0.0,0.0,0.0,0.0,0.0,0.0,0.0,3.3552,3.2906,3.2521,3.2521,3.2444,3.2398,3.2398,3.2398,3.2398,3.2398,3.2398,3.2398,3.2398,3.249,3.2475,3.2382,3.2465,3.3082,3.4011,3.4011,3.4625,3.56,3.5515,3.5554,3.5616,3.5718,3.5684,3.5616,0.0,0.0,0.0,0.0,0.0,0.0,0.0,0.0,0.0,0.0,0.0,2.4302,0.0,0.0,0.0,0.0,0.0,0.0,0.0,0.0,0.0,2.485,2.5256,2.5795,2.6457,2.6488,2.6965,2.7965,2.8642,2.8781,2.8396,2.7796,2.698,2.6072,2.6749,2.6842,2.6503,2.6811,2.6318,2.5235,2.4558,2.3856,2.3148,2.2932,2.2644,2.2274,2.1966,2.1673,2.1427,0.0,2.1427,2.1427,2.1427,0.0,0.0,0.0,2.1026,2.1334,2.4117,2.7295,3.0248,0.0,3.3306,0.0,0.0,0.0,0.0,0.0,0.0,0.0,0.0,0.0,0.0,0.0,0.0,0.0,0.0,0.0,0.0,0.0,0.0,0.0,0.0,0.0,0.0,0.0,0.0,3.2844,3.2844,3.2552,3.2398,3.2398,3.2398,3.2398,3.2398,3.2398,3.2398,3.2398,3.2398,3.2398,3.2398,3.2398,3.2398,3.2398,3.2398,3.3018,3.4011,3.4011,3.4625,3.56,3.56,3.56,3.56,3.56,3.56,3.56,0.0,0.0,0.0,0.0,0.0,0.0,0.0,0.0,0.0,0.0,0.0,0.0,0.0,0.0,0.0,0.0,0.0,0.0,0.0,0.0,0.0,2.5558,2.6103,2.6626,2.7134,2.7303,2.7642,2.815,2.8827,2.8996,2.8658,2.8488,2.8227,2.7919,2.8073,2.7873,2.7411,2.758,2.6857,2.5527,2.5004,2.401,2.284,2.3163,2.3102,2.2778,2.2628,2.2548,0.0,0.0,0.0,0.0,0.0,0.0,0.0,0.0,0.0,0.0,0.0,0.0,2.9042,3.0705,0.0,0.0,0.0,0.0,0.0,0.0,0.0,0.0,0.0,0.0,0.0,0.0,0.0,0.0,0.0,0.0,0.0,0.0,0.0,0.0,0.0,0.0,0.0,0.0,0.0,3.2398,3.2398,3.2398,3.2398,3.2398,3.2398,3.2398,3.2398,3.2398,3.2398,3.2398,3.2398,3.2398,3.2398,3.2398,3.2398,3.2398,3.2398,3.2922,3.3793,3.3944,3.4553,3.5424,3.5554,3.56,3.56,3.56,3.56,3.56,0.0,0.0,0.0,0.0,0.0,0.0,0.0,0.0,0.0,0.0,0.0,0.0,2.4302,2.4302,2.4302,2.4302,2.4302,0.0,0.0,0.0,0.0,2.6303,2.6364,0.0,2.6464,2.7072,2.7411,2.7442,2.8119,2.8765,2.9325,2.8704,2.8735,2.9258,2.7996,2.7426,2.7442,2.8088,2.7565,2.6318,2.6234,2.5389,2.4133,2.3533,2.3671,2.4117,2.3471,0.0,0.0,0.0,0.0,0.0,0.0,2.2289,2.2259,0.0,0.0,0.0,0.0,2.5426,0.0,2.7473,0.0,0.0,0.0,0.0,0.0,0.0,0.0,0.0,0.0,0.0,0.0,0.0,0.0,0.0,0.0,0.0,0.0,0.0,0.0,0.0,0.0,0.0,0.0,0.0,0.0,3.2398,3.2398,3.2398,3.2398,3.2398,3.2398,3.2398,3.2398,3.2398,3.2398,3.2398,3.2398,3.2398,3.2398,3.2398,3.2398,3.2398,3.2398,3.2722,3.3261,3.3793,3.4333,3.4904,3.5402,3.56,3.56,3.56,3.56,3.56,0.0,0.0,0.0,0.0,0.0,0.0,0.0,0.0,0.0,0.0,0.0,0.0,0.0,2.5189,2.5112,2.5542,2.5626,0.0,0.0,0.0,0.0,2.7026,2.7442,2.7688,2.7688,2.7919,2.8042,2.8042,2.8719,2.9156,2.9387,2.9166,2.9156,2.9387,2.9341,2.8858,2.8119,2.9227,2.8673,2.7026,2.7026,2.6457,2.5656,2.5857,2.581,0.0,0.0,0.0,0.0,0.0,0.0,0.0,2.3579,2.3286,2.2855,2.2443,2.3071,0.0,0.0,0.0,0.0,0.0,0.0,0.0,0.0,0.0,0.0,0.0,0.0,0.0,0.0,0.0,0.0,0.0,0.0,0.0,0.0,0.0,0.0,0.0,0.0,0.0,0.0,0.0,0.0,0.0,0.0,0.0,3.2398,3.2398,3.2398,3.2398,3.2398,3.2398,3.2398,3.2398,3.2398,3.2398,3.2398,3.2398,3.2398,3.2398,3.2602,3.2922,3.2922,3.3224,3.3767,3.4292,3.4833,3.5316,3.5515,3.56,3.56,3.56,3.56,3.56,0.0,0.0,0.0,0.0,0.0,0.0,0.0,0.0,0.0,2.5542,0.0,0.0,0.0,0.0,2.5857,2.628,2.6364,2.6472,2.665,2.7134,2.7503,2.7734,2.8165,2.8411,2.8411,2.8181,2.8181,2.8411,2.8627,2.8965,2.9387,2.9387,2.951,2.9756,3.0432,2.9997,2.8781,2.9433,2.8965,2.7719,2.7488,2.6995,2.6464,0.0,0.0,0.0,0.0,0.0,0.0,0.0,0.0,0.0,0.0,2.4179,2.3548,2.3102,2.3594,0.0,2.4302,0.0,0.0,0.0,0.0,0.0,0.0,0.0,0.0,0.0,0.0,0.0,0.0,0.0,0.0,0.0,0.0,0.0,0.0,0.0,0.0,0.0,0.0,0.0,0.0,0.0,0.0,0.0,0.0,0.0,3.2398,3.2398,3.229,3.2059,3.2275,3.2275,3.2059,3.2275,3.2398,3.2398,3.2398,3.2398,3.2425,3.2602,3.2868,3.3209,3.3572,3.3843,3.4036,3.4577,3.4998,3.5356,3.5532,3.56,3.56,3.56,3.56,3.56,0.0,0.0,0.0,0.0,0.0,0.0,0.0,0.0,2.5573,2.6234,0.0,0.0,0.0,0.0,0.0,2.6495,2.6495,2.6765,2.7442,2.7488,2.778,2.8427,0.0,0.0,2.8473,2.7827,2.7811,2.8473,2.7811,2.815,2.9417,2.9417,2.9771,3.0432,3.1074,3.0643,2.9371,2.875,2.8458,2.8381,0.0,2.7026,2.6441,0.0,0.0,0.0,2.8704,2.8873,0.0,0.0,0.0,0.0,0.0,2.4835,2.4302,2.4302,2.4302,0.0,0.0,0.0,0.0,0.0,0.0,0.0,0.0,0.0,0.0,0.0,0.0,0.0,0.0,0.0,0.0,0.0,0.0,0.0,0.0,0.0,0.0,0.0,0.0,0.0,0.0,0.0,0.0,0.0,3.2382,3.2367,3.2398,3.2398,3.2074,3.1382,3.2028,3.2074,3.1424,3.2044,3.2398,3.2398,3.2398,3.2398,3.2425,3.2949,3.3182,3.3287,3.4317,3.4504,3.4086,3.4601,3.4816,3.488,3.5402,3.56,3.56,3.56,3.56,3.56,0.0,0.0,0.0,0.0,0.0,0.0,2.6072,2.6087,2.6334,0.0,0.0,0.0,2.8473,2.8581,2.8581,2.8581,2.8581,2.8858,2.9525,2.9556,2.9648,2.9833,2.9848,2.9848,2.9848,2.9648,2.9648,2.9848,2.9648,2.9756,3.0125,3.0125,3.0217,3.0402,3.0586,3.0463,3.0109,2.9925,2.9556,2.9048,2.8396,2.8011,0.0,0.0,0.0,0.0,0.0,2.975,2.8812,0.0,2.8356,2.6395,0.0,0.0,2.4302,2.4302,2.4302,0.0,2.4302,0.0,0.0,0.0,0.0,0.0,0.0,0.0,0.0,0.0,0.0,0.0,0.0,0.0,0.0,0.0,0.0,0.0,0.0,0.0,0.0,0.0,0.0,0.0,0.0,0.0,0.0,0.0,3.1936,3.1874,3.2367,3.2398,3.1874,3.072,3.1797,3.2074,3.1424,3.2044,3.2398,3.2398,3.2398,3.2398,3.2425,3.2547,3.3055,3.3793,3.4095,3.4577,3.5178,3.5316,3.5379,3.5402,3.5554,3.56,3.56,3.56,3.56,3.56,0.0,0.0,0.0,0.0,0.0,2.6603,2.7149,2.7226,2.758,0.0,0.0,0.0,2.9341,2.9166,2.9119,2.9371,2.9387,2.9679,3.0356,3.0402,3.0402,3.0402,3.0402,3.0402,3.0402,3.0125,3.0125,3.0402,3.0402,3.054,3.0828,3.1105,3.1217,3.1217,3.1217,3.1217,3.1213,3.0632,0.0,0.0,2.8673,0.0,0.0,2.8818,2.9104,0.0,0.0,0.0,2.9766,3.0551,2.9489,0.0,0.0,0.0,0.0,0.0,0.0,0.0,0.0,0.0,0.0,0.0,0.0,0.0,2.3594,2.4533,0.0,0.0,0.0,0.0,0.0,0.0,0.0,0.0,0.0,0.0,0.0,0.0,0.0,0.0,0.0,0.0,0.0,0.0,0.0,3.1567,3.1197,3.1151,3.1551,3.1567,3.1089,3.0017,3.1274,3.1659,3.0982,3.1921,3.2398,3.2398,3.2398,3.2398,3.2425,3.2857,3.3423,3.402,3.448,3.5021,3.56,3.56,3.56,3.56,3.56,3.56,3.56,3.56,3.56,3.56,0.0,0.0,2.5711,2.6327,2.6534,2.7011,2.8227,2.8473,2.8919,0.0,3.0233,3.0063,2.9489,2.8873,2.8765,2.9341,2.9489,2.9787,3.0463,3.0571,3.0617,3.0617,3.0617,3.0617,3.0617,3.0033,3.0017,3.0617,3.0617,3.0936,3.1505,3.2105,3.2398,3.2398,3.2398,3.2321,3.209,0.0,0.0,2.9341,2.8725,2.8541,0.0,0.0,2.9341,0.0,3.0479,3.0905,3.1409,3.1409,3.0104,0.0,0.0,0.0,0.0,0.0,2.5419,0.0,0.0,0.0,0.0,0.0,0.0,0.0,2.2917,2.3625,2.4179,0.0,0.0,0.0,0.0,0.0,0.0,0.0,0.0,0.0,0.0,0.0,0.0,0.0,0.0,0.0,0.0,3.0402,3.0402,3.0402,3.0402,3.034,3.0186,3.0325,3.0063,2.9294,3.0658,3.1074,3.0402,3.1736,3.2398,3.2398,3.2398,3.2398,3.2437,3.3449,3.3944,3.4061,3.5068,3.5538,3.56,3.56,3.56,3.56,3.56,3.56,3.56,3.56,3.56,3.56,0.0,0.0,2.7026,2.7165,2.7642,2.8104,2.8365,2.8873,2.9119,2.8842,2.9248,2.9541,2.9402,2.9279,2.9248,2.9371,2.9879,3.0479,3.1151,3.1705,3.2013,3.2013,3.2013,3.2013,3.2013,3.1874,3.1874,3.2013,3.2013,3.2074,3.2198,3.2336,3.2398,3.2398,3.2398,3.1797,3.0755,0.0,0.0,2.923,2.9108,0.0,2.9858,2.9858,3.0011,3.0317,3.0986,3.1274,3.1409,0.0,3.0412,2.9058,0.0,0.0,0.0,0.0,0.0,0.0,0.0,0.0,0.0,0.0,0.0,0.0,2.4918,2.5379,2.5749,0.0,0.0,0.0,0.0,0.0,0.0,0.0,0.0,0.0,0.0,0.0,0.0,0.0,0.0,0.0,0.0,3.0402,3.0402,3.0402,3.0402,2.9925,2.8858,2.9802,2.9848,2.8642,3.0412,3.1074,3.0402,3.1736,3.2398,3.2398,3.2398,3.2398,3.2425,3.3066,3.3588,3.4036,3.4673,3.5201,3.56,3.56,3.56,3.56,3.56,3.56,3.56,3.56,3.56,3.56,0.0,2.6919,2.7503,2.7842,2.8181,2.8519,2.8858,2.9171,2.9387,2.9387,2.9387,2.9387,2.9387,2.9119,2.9058,2.9356,3.0002,3.0663,3.1378,3.2013,3.2398,3.2398,3.2398,3.2398,3.2398,3.2398,3.2398,3.2398,3.2398,3.2398,3.2398,3.2342,3.1934,3.1305,3.1561,3.098,2.9802,0.0,2.9751,2.9653,2.9317,0.0,3.0188,3.0188,3.0241,3.0385,3.1124,3.1597,3.1844,3.1516,3.0951,0.0,0.0,2.8442,2.7765,0.0,2.6872,2.6795,0.0,0.0,0.0,2.6349,0.0,0.0,0.0,2.5595,2.5656,0.0,0.0,0.0,0.0,0.0,0.0,0.0,0.0,0.0,0.0,0.0,0.0,0.0,0.0,0.0,0.0,2.9387,2.9387,2.9387,2.9387,2.9095,2.8442,2.9058,2.9233,2.8919,3.0212,3.0905,3.0905,3.189,3.2398,3.2398,3.2398,3.2398,3.2425,3.3224,3.3742,3.4045,3.4857,3.5339,3.56,3.56,3.56,3.56,3.56,3.56,3.56,3.56,3.56,3.56,2.7334,2.7611,2.7965,2.8504,2.8596,2.8781,2.9335,2.9387,2.9633,3.0309,2.9817,2.9433,2.9571,2.9095,2.9119,2.992,3.034,3.0889,3.1563,3.209,3.2336,3.2198,3.2321,3.2398,3.2398,3.2398,3.2398,3.2398,3.2398,3.2398,3.2382,3.2164,3.1438,3.0387,3.0586,3.0114,2.917,0.0,0.0,2.9881,0.0,2.977,3.0162,3.0188,3.0359,3.0652,3.1336,3.1844,3.2105,3.1567,0.0,3.1012,2.9935,2.9494,0.0,0.0,0.0,0.0,0.0,0.0,0.0,0.0,0.0,2.6595,0.0,0.0,0.0,2.4841,0.0,0.0,0.0,0.0,0.0,0.0,0.0,0.0,0.0,0.0,0.0,0.0,0.0,0.0,0.0,2.8211,2.8211,2.8211,2.8211,2.8211,2.8211,2.8334,2.8658,2.9196,2.9971,3.0674,3.1197,3.1997,3.2398,3.2398,3.2398,3.2437,3.2602,3.3563,3.4061,3.421,3.5178,3.56,3.56,3.56,3.56,3.56,3.56,3.56,3.56,3.56,3.56,3.56,2.7611,2.8365,2.9187,2.9264,2.9279,2.9294,2.9371,2.9387,2.9633,3.0309,2.9817,2.9617,3.0217,3.0217,3.0663,3.1951,3.1582,0.0,3.2228,0.0,3.2121,3.1547,3.2074,3.2398,3.2398,3.2398,3.2398,3.2398,3.2398,3.2398,3.2382,3.1782,3.1347,3.1029,2.9913,0.0,0.0,0.0,2.9557,0.0,3.0108,3.034,0.0,3.0136,3.0597,3.1221,3.2016,3.1936,3.1516,0.0,3.1012,3.0479,0.0,2.9879,0.0,0.0,0.0,0.0,0.0,0.0,0.0,0.0,2.8181,0.0,0.0,0.0,2.6965,2.6287,0.0,0.0,0.0,0.0,0.0,0.0,0.0,0.0,0.0,0.0,0.0,0.0,0.0,0.0,0.0,0.0,2.7503,2.7503,2.7503,2.7503,2.7503,2.8088,2.8442,2.8519,2.9725,3.0432,3.0509,3.1767,3.2398,3.2398,3.2398,3.2641,3.3119,3.3716,3.426,3.4745,3.5339,3.56,3.56,3.56,3.56,3.56,3.56,3.56,3.56,3.56,3.56,3.56,2.8673,2.9335,0.0,2.9971,2.9971,2.9848,2.9448,2.9387,2.9494,2.9771,2.991,3.0371,3.1443,0.0,0.0,0.0,0.0,3.2397,0.0,0.0,3.2011,3.1413,0.0,0.0,3.1797,3.1813,3.1997,3.2398,3.2398,3.2198,3.1797,3.144,3.0635,2.9439,2.9118,0.0,2.845,0.0,2.932,0.0,0.0,0.0,0.0,3.0019,3.0616,3.1409,3.2124,3.1967,3.147,0.0,3.152,0.0,0.0,0.0,0.0,0.0,0.0,0.0,0.0,0.0,0.0,0.0,0.0,0.0,0.0,0.0,2.7319,0.0,0.0,0.0,0.0,0.0,0.0,0.0,0.0,0.0,0.0,0.0,0.0,0.0,0.0,0.0,0.0,0.0,0.0,0.0,2.6795,2.6949,2.738,2.8042,2.8581,2.8981,2.9894,3.0586,3.0982,3.1921,3.2398,3.2398,3.2398,3.2668,3.3209,3.3742,3.4309,3.4833,3.5379,3.56,3.56,3.56,3.56,3.56,3.56,3.56,3.56,3.56,3.56,3.56,2.995,0.0,0.0,0.0,3.0637,3.0422,2.9771,2.951,2.9612,3.0166,3.0658,0.0,3.3075,3.3108,0.0,0.0,3.4637,3.4134,0.0,0.0,3.2326,0.0,0.0,0.0,0.0,0.0,3.1443,3.2121,3.2121,3.1859,3.1382,3.1106,3.0088,2.8461,0.0,2.8178,2.7976,0.0,0.0,2.9516,2.9969,2.9999,2.984,3.0179,3.0769,3.1501,3.2151,3.1967,3.1459,3.1951,3.1782,0.0,3.1409,0.0,0.0,0.0,0.0,0.0,2.8904,0.0,0.0,0.0,0.0,0.0,0.0,0.0,0.0,0.0,0.0,0.0,0.0,0.0,0.0,0.0,0.0,0.0,0.0,0.0,0.0,0.0,0.0,0.0,0.0,0.0,0.0,0.0,0.0,2.6173,2.6534,2.7734,2.855,2.8842,2.9848,3.0617,3.112,3.1967,3.2398,3.2398,3.2547,3.2895,3.3459,3.3969,3.4504,3.5045,3.5424,3.56,3.56,3.56,3.56,3.56,3.56,3.56,3.56,3.56,3.56,3.56,3.1347,3.1244,0.0,0.0,0.0,0.0,0.0,0.0,0.0,0.0,0.0,0.0,0.0,0.0,0.0,0.0,0.0,3.7279,3.6148,0.0,3.332,0.0,0.0,3.1393,0.0,0.0,0.0,3.1413,3.1413,3.1439,3.1393,3.0725,2.9997,2.9103,2.7683,2.7349,2.7836,2.8385,2.8607,2.8742,2.9983,3.0201,2.9912,0.0,3.1275,3.1501,3.2151,0.0,0.0,3.1439,3.1424,0.0,0.0,0.0,0.0,0.0,0.0,0.0,0.0,0.0,0.0,2.9212,0.0,0.0,0.0,0.0,2.8365,0.0,0.0,0.0,0.0,0.0,2.7503,2.481,0.0,0.0,0.0,0.0,0.0,0.0,0.0,0.0,0.0,0.0,0.0,0.0,0.0,0.0,2.4441,2.6949,2.8119,2.7473,2.9356,3.0402,3.0432,3.1751,3.2398,3.2425,3.2922,3.3459,3.3986,3.4529,3.5068,3.5577,3.56,3.56,3.56,3.56,3.56,3.56,3.56,3.56,3.56,3.56,3.56,3.56,0.0,0.0,0.0,0.0,0.0,0.0,0.0,3.0508,0.0,0.0,0.0,0.0,0.0,4.0973,4.1228,0.0,0.0,3.9611,3.7914,3.6228,0.0,0.0,0.0,3.0913,0.0,0.0,0.0,0.0,0.0,3.1166,3.0735,3.0494,2.9736,2.8507,0.0,2.796,0.0,0.0,0.0,0.0,0.0,3.0526,3.061,0.0,0.0,3.1355,3.2029,3.1885,0.0,3.1905,3.1778,3.1486,3.1905,3.1751,3.1409,3.1409,3.0766,0.0,0.0,0.0,2.8458,2.8688,0.0,0.0,0.0,0.0,0.0,0.0,0.0,0.0,0.0,0.0,2.7426,2.6503,2.5595,2.4841,0.0,0.0,0.0,0.0,0.0,0.0,0.0,0.0,0.0,0.0,2.3471,0.0,0.0,2.6734,2.7842,2.8057,2.9571,3.0402,3.0402,3.1736,3.2398,3.2425,3.2933,3.3469,3.4036,3.4553,3.5091,3.56,3.56,3.56,3.56,3.56,3.56,3.56,3.56,3.56,3.56,3.56,3.56,3.56,3.0278,0.0,0.0,0.0,0.0,0.0,0.0,0.0,0.0,0.0,3.8247,0.0,4.3895,0.0,4.4182,0.0,4.3452,4.1814,3.9229,3.7896,0.0,3.4455,3.2638,0.0,0.0,0.0,0.0,0.0,0.0,3.0474,3.0033,3.0007,2.9332,2.8186,0.0,2.8107,2.8439,0.0,2.8981,0.0,0.0,3.0844,0.0,0.0,3.1204,3.1355,0.0,3.2038,3.1813,3.2244,3.2105,3.184,3.2259,3.209,3.1778,3.1778,3.1274,3.072,3.052,2.9643,0.0,2.9058,2.8427,0.0,2.8611,0.0,0.0,0.0,0.0,0.0,0.0,0.0,0.0,2.6734,2.5533,2.4712,0.0,2.421,0.0,0.0,0.0,0.0,0.0,0.0,0.0,2.1843,2.2582,0.0,0.0,0.0,2.7226,2.7673,2.8996,2.991,3.0402,3.149,3.2151,3.2425,3.3135,3.3665,3.402,3.4745,3.527,3.56,3.56,3.56,3.56,3.56,3.56,3.56,3.56,3.56,3.56,3.56,3.56,3.56,0.0,0.0,0.0,0.0,2.9989,0.0,0.0,0.0,3.5773,0.0,4.0495,4.2947,4.5021,4.6188,4.6572,4.5823,4.5593,0.0,4.0353,3.9877,0.0,0.0,3.4486,3.3652,3.2956,0.0,0.0,0.0,0.0,0.0,2.9433,2.9286,2.8853,2.8186,2.794,0.0,2.7745,2.766,2.8364,2.9666,3.0898,3.1017,3.0565,3.1439,3.1597,3.1474,3.2151,3.2398,3.2398,3.2398,3.2367,3.2336,3.2336,3.2336,3.2336,3.2336,3.1905,3.1567,3.2182,3.0905,2.9541,3.0186,0.0,0.0,0.0,0.0,2.9356,0.0,0.0,0.0,0.0,0.0,0.0,2.5573,2.5296,2.5019,2.4394,0.0,0.0,0.0,0.0,0.0,0.0,0.0,1.9934,2.1196,2.1951,2.2624,0.0,0.0,2.6364,2.6464,2.775,2.9089,3.0386,3.1059,3.1747,3.2437,3.3501,3.4011,3.4086,3.5131,3.56,3.56,3.56,3.56,3.56,3.56,3.56,3.56,3.56,3.5616,3.565,3.5616,3.5616,3.565,2.8467,2.8737,2.8963,0.0,2.9685,3.0669,0.0,0.0,0.0,0.0,4.4339,4.7034,4.9989,5.0139,4.9584,4.8445,4.7847,0.0,0.0,0.0,0.0,3.8432,3.6449,3.4787,3.3517,3.1516,0.0,3.0791,0.0,0.0,2.998,2.9541,2.8943,2.821,0.0,0.0,2.7082,2.7555,2.8186,2.8921,2.9759,3.0038,0.0,0.0,3.1214,3.1328,3.2002,3.233,3.2398,3.2398,3.2059,3.1643,3.1643,3.1643,3.1643,3.1643,3.1874,3.2059,3.1736,3.0551,2.9433,2.9602,2.8658,2.7827,0.0,0.0,0.0,0.0,0.0,0.0,0.0,0.0,0.0,0.0,2.5241,0.0,0.0,0.0,0.0,0.0,0.0,0.0,0.0,0.0,2.0919,2.1273,2.2378,2.3332,2.401,0.0,0.0,2.7119,2.8442,2.9541,3.0386,3.1059,3.1947,3.2986,3.3665,3.421,3.4625,3.5293,3.56,3.56,3.56,3.56,3.56,3.56,3.56,3.56,3.56,3.5977,3.6417,3.5802,3.5994,3.64,2.8423,0.0,0.0,2.9552,0.0,0.0,3.3562,3.5388,0.0,4.2511,4.5271,0.0,4.9823,5.075,5.069,4.9419,4.8401,0.0,4.4143,0.0,0.0,3.9637,3.791,3.6195,3.4506,3.2357,0.0,3.0995,0.0,0.0,2.9848,2.9173,2.8627,2.8186,0.0,2.7728,0.0,2.7881,2.8325,2.8682,2.9609,0.0,0.0,3.1011,3.1407,3.1536,3.2025,3.2302,3.2398,3.2398,3.2136,3.1782,3.1501,3.1409,3.132,3.1043,3.1228,3.1505,3.1413,3.0643,2.9833,2.9833,2.9058,2.8381,2.8765,2.8842,2.8925,0.0,0.0,0.0,0.0,0.0,0.0,0.0,0.0,0.0,0.0,0.0,0.0,0.0,0.0,0.0,0.0,0.0,2.1535,2.2135,2.2871,2.3594,0.0,0.0,0.0,2.738,2.8427,2.9417,3.0386,3.0782,3.1425,3.2297,3.3132,3.3835,3.4352,3.5205,3.56,3.56,3.56,3.56,3.56,3.56,3.56,3.56,3.56,3.6096,3.6745,3.6282,3.64,3.6745,0.0,0.0,0.0,0.0,0.0,0.0,0.0,3.7139,0.0,4.2695,0.0,4.7219,4.7878,4.9898,5.069,4.9419,0.0,4.6379,4.3978,4.3564,4.2381,4.0031,3.9092,3.7704,3.5684,3.3291,0.0,0.0,0.0,0.0,2.9485,2.8627,2.821,0.0,0.0,0.0,0.0,2.8295,2.8517,2.8712,2.9998,3.0507,3.061,3.1485,3.1813,3.187,3.2122,3.2302,3.237,3.2398,3.2275,3.2028,3.1443,3.1197,3.1012,3.0432,3.0325,3.0525,3.1105,3.0843,3.0402,3.0402,2.9956,2.9494,2.9417,2.9387,2.9371,2.9279,2.9187,2.8827,0.0,0.0,0.0,0.0,0.0,0.0,0.0,0.0,0.0,0.0,0.0,0.0,0.0,0.0,2.2089,2.3332,2.3517,2.3825,0.0,0.0,0.0,2.738,2.815,2.9156,3.0509,0.0,3.0787,3.136,3.2531,3.335,3.3848,3.5048,3.56,3.56,3.56,3.56,3.56,3.56,3.56,3.56,3.56,3.6096,3.6795,3.6795,3.6863,3.6948,0.0,0.0,0.0,0.0,0.0,3.8057,4.0778,4.2743,4.4734,4.6978,4.906,5.0616,5.1274,5.1274,5.069,4.9419,4.8566,0.0,0.0,0.0,0.0,4.1168,4.0449,3.8871,3.6372,3.4788,3.3487,0.0,0.0,0.0,3.0042,2.8777,2.821,0.0,0.0,0.0,2.797,2.7836,0.0,2.8712,2.9998,3.0507,3.061,3.1583,3.1968,3.1996,3.2274,3.233,3.2247,3.237,3.1674,3.0725,3.0602,3.0212,2.9735,2.9602,2.9956,3.0432,3.054,3.0479,3.0402,3.0402,3.0309,3.0079,2.9525,2.9387,2.9258,2.8704,2.815,2.7857,2.8165,0.0,0.0,0.0,0.0,0.0,0.0,0.0,0.0,0.0,0.0,0.0,0.0,0.0,0.0,0.0,0.0,0.0,0.0,0.0,0.0,0.0,2.8596,0.0,0.0,0.0,3.1503,3.2603,3.3261,3.3838,3.4396,3.5222,3.56,3.56,3.56,3.56,3.56,3.56,3.56,3.56,3.56,3.6096,3.6795,3.6795,3.7178,3.7719,0.0,0.0,0.0,0.0,0.0,0.0,0.0,4.6184,0.0,4.7788,4.8611,4.9179,4.9149,5.0077,5.0182,4.8865,4.7848,4.6696,4.5379,4.4362,4.3075,4.1444,4.0756,0.0,3.6552,3.5192,3.3921,3.2689,0.0,0.0,3.0173,2.9454,0.0,2.8186,0.0,2.8112,0.0,0.0,0.0,2.9639,3.0253,3.0717,3.1076,3.1677,3.1898,3.194,3.2191,3.2247,3.2219,3.2342,3.1967,3.1336,3.0617,3.0171,2.9771,2.9104,2.9095,2.9433,2.9787,2.9879,2.9879,2.9879,3.014,3.0125,2.9095,2.9166,2.9202,2.855,2.815,2.8119,2.8812,2.8658,0.0,0.0,0.0,0.0,0.0,0.0,0.0,0.0,0.0,0.0,0.0,0.0,0.0,0.0,0.0,0.0,0.0,0.0,0.0,0.0,0.0,0.0,0.0,0.0,0.0,3.28,3.3449,3.4013,3.4523,3.5245,3.56,3.56,3.56,3.56,3.56,3.56,3.56,3.56,3.56,3.6096,3.6795,3.6795,3.7499,3.8413,0.0,3.4861,0.0,0.0,4.0023,0.0,4.5334,4.8401,4.9852,4.8341,4.8012,4.7728,4.7176,4.8716,4.9344,4.8177,4.6875,4.5813,4.5125,4.3988,4.2746,4.1482,4.0891,3.9379,3.6746,3.5385,3.4131,0.0,0.0,0.0,0.0,3.0183,0.0,0.0,0.0,0.0,0.0,0.0,2.9579,3.0507,3.0672,3.1017,3.1539,3.1756,3.1841,3.187,3.215,3.2247,3.2274,3.237,3.2305,3.1997,3.0966,3.0417,2.9971,2.8935,2.8519,2.8519,2.9033,2.9279,2.9387,2.9387,2.9894,3.0079,2.8904,2.9002,2.9202,2.855,2.8411,2.8611,2.9289,2.9279,0.0,0.0,0.0,0.0,0.0,0.0,0.0,0.0,0.0,0.0,0.0,0.0,0.0,0.0,0.0,0.0,0.0,0.0,0.0,0.0,0.0,3.022,3.1611,0.0,3.1956,3.2923,3.3633,3.4142,3.4523,3.5245,3.56,3.56,3.56,3.56,3.56,3.56,3.56,3.56,3.56,3.6096,3.6795,3.6795,3.7743,3.8903,0.0,0.0,0.0,0.0,0.0,0.0,4.707,4.9404,5.1065,5.087,5.0285,4.9897,4.9837,4.903,4.8177,4.7459,4.6172,4.511,4.4451,4.3693,4.2746,4.1482,4.1324,4.0038,3.7375,3.6073,3.4805,0.0,0.0,0.0,0.0,0.0,0.0,0.0,0.0,0.0,0.0,3.0143,3.0387,3.0552,3.1152,3.1451,3.1539,3.1855,3.1968,3.2025,3.2302,3.237,3.237,3.2398,3.1982,3.1459,3.1362,3.0474,2.9464,2.9325,2.8889,2.8411,2.8488,2.895,2.9387,2.9387,2.9894,3.0202,2.9464,2.9341,2.9202,2.855,2.8411,2.8611,2.9289,2.8904,2.8889,0.0,0.0,0.0,0.0,0.0,0.0,0.0,0.0,0.0,0.0,0.0,0.0,0.0,0.0,0.0,0.0,0.0,0.0,2.9156,0.0,3.1,3.2977,3.2665,3.2842,3.3624,3.4175,3.4467,3.4523,3.5245,3.56,3.56,3.56,3.56,3.56,3.56,3.56,3.56,3.56,3.6096,3.6795,3.6795,3.7743,3.8988,0.0,0.0,0.0,0.0,0.0,0.0,0.0,5.0287,5.1214,5.1214,5.0599,5.0046,4.9703,4.8491,4.7429,4.677,4.5484,4.4601,4.4332,4.3329,4.2342,4.1452,4.0995,3.9918,3.8033,3.6746,3.5672,0.0,0.0,0.0,0.0,0.0,0.0,0.0,0.0,3.0161,3.0276,3.0836,3.1092,3.1122,3.1391,3.1568,3.1698,3.1912,3.2053,3.2135,3.2342,3.2398,3.2398,3.2398,3.2213,3.1921,3.1547,3.1012,3.0443,2.9658,2.9202,2.8919,2.8519,2.8611,2.8812,2.8812,2.9294,2.9617,2.8965,2.9417,2.9694,2.8627,2.8411,2.8488,2.8765,2.8919,2.8919,0.0,0.0,0.0,0.0,0.0,0.0,0.0,0.0,0.0,0.0,0.0,0.0,0.0,0.0,0.0,0.0,0.0,0.0,2.9241,0.0,3.0815,3.3527,3.2961,3.34,3.4857,3.5076,3.5165,3.5182,3.5464,3.56,3.56,3.56,3.56,3.56,3.56,3.56,3.565,3.6129,3.6502,3.6846,3.7297,3.8108,3.8988,4.2551,0.0,4.3823,0.0,4.6785,4.7833,5.0121,5.0883,5.1214,5.1214,5.0481,4.9778,4.9359,4.7923,4.6756,4.6082,4.4975,4.4227,4.4007,4.315,4.2357,4.1737,4.104,0.0,3.8721,3.724,3.6163,3.5504,3.3694,0.0,0.0,0.0,0.0,0.0,3.064,3.0806,3.0836,3.1301,3.1511,3.1511,3.1568,3.167,3.1813,3.1996,3.2122,3.2219,3.2342,3.2398,3.2398,3.2398,3.2398,3.2305,3.1828,3.1551,3.1197,3.0274,2.972,2.9294,2.8827,2.855,2.8411,2.8411,2.8765,2.8972,2.8519,2.9279,2.9879,2.915,2.8996,2.8935,2.8735,2.9089,2.9104,2.815,0.0,0.0,0.0,0.0,0.0,0.0,0.0,2.4918,2.344,0.0,0.0,0.0,0.0,0.0,0.0,0.0,0.0,0.0,0.0,0.0,0.0,3.309,3.3694,3.5278,3.5498,3.56,3.56,3.56,3.56,3.56,3.56,3.56,3.56,3.56,3.5735,3.6011,3.6592,3.7083,3.7523,3.8024,3.8684,3.9309,4.499,4.6322,4.7653,4.903,5.0287,5.1154,5.1199,5.1214,5.1214,5.1214,5.0092,4.9329,4.9314,4.7519,4.6052,4.5364,4.4691,4.4007,4.3349,4.329,4.303,0.0,0.0,4.0756,3.9439,3.7479,3.6163,3.5504,0.0,0.0,3.344,0.0,3.2212,3.1769,3.1582,3.1496,3.1496,3.1511,3.1511,3.1511,3.1727,3.1799,3.1813,3.2094,3.2191,3.2219,3.2342,3.2398,3.2398,3.2398,3.2398,3.2398,3.2382,3.1921,3.1409,3.1366,3.0443,2.9387,2.9371,2.8904,2.8411,2.8411,2.8411,2.8411,2.8411,2.8935,2.9587,3.0233,3.0371,3.0171,2.9494,2.9387,2.9387,2.9371,0.0,0.0,0.0,0.0,0.0,0.0,2.755,2.7026,2.3625,0.0,0.0,0.0,0.0,0.0,0.0,0.0,0.0,3.0085,3.0348,0.0,3.2596,3.3134,3.3778,3.4506,3.5245,3.56,3.56,3.56,3.56,3.56,3.56,3.56,3.56,3.56,3.6079,3.6795,3.6795,3.7692,3.8954,3.8971,3.9445,4.0096,4.6576,4.8087,4.9388,4.9853,5.0646,5.1214,5.1214,5.1214,5.1065,5.0569,4.9808,4.9149,4.8685,4.7234,4.6052,0.0,4.4691,4.4032,0.0,4.291,4.2387,4.1767,4.107,4.0307,3.9403,3.7913,3.7015,3.6806,0.0,0.0,0.0,3.1465,3.1074,3.0938,3.1794,3.1929,3.1525,3.1989,3.2017,3.1698,3.1756,3.1927,3.2066,3.2178,3.2274,3.2342,3.2398,3.2398,3.2398,3.2398,3.269,3.2998,3.2536,3.2244,3.1982,3.152,3.1116,3.0551,2.9658,2.9233,2.8956,2.8519,2.8411,2.8411,2.8411,2.8935,2.9587,3.0263,3.0402,3.0325,3.0125,3.0079,3.0079,3.0079,2.951,0.0,0.0,0.0,0.0,0.0,2.7234,2.6706,0.0,2.5701,0.0,0.0,0.0,0.0,0.0,0.0,0.0,0.0,3.0731,0.0,3.3139,3.3305,3.3778,3.4506,3.5245,3.5893,3.6417,3.6417,3.6417,3.6451,3.6958,3.6891,3.6451,3.6958,3.733,3.7601,3.8091,3.8582,3.9056,3.9571,3.991,4.0096,4.7623,4.8865,4.9942,5.0151,5.0734,5.1214,5.1214,5.1214,5.0943,5.0285,4.9673,4.906,4.8356,4.7115,0.0,4.5349,4.4691,4.4032,4.3334,4.2955,4.2432,4.1811,4.1115,4.0457,3.9798,3.8467,0.0,3.7404,3.5444,3.3844,3.2617,3.1689,3.1255,3.1285,3.1854,3.1884,3.1525,3.2047,3.2074,3.1828,3.1927,3.2038,3.2219,3.2247,3.2315,3.2398,3.2398,3.2552,3.2736,3.2475,3.3029,3.369,3.2982,3.2782,3.2644,3.1967,3.1609,3.1224,3.0381,2.9981,2.9664,2.9273,2.8965,2.8781,2.8781,2.9119,2.9648,3.0597,3.0782,3.0782,3.0782,3.0782,3.0678,3.0432,2.9833,2.9387,2.9387,0.0,0.0,0.0,0.0,0.0,0.0,2.7417,2.8562,0.0,0.0,0.0,0.0,0.0,0.0,3.2011,3.1745,0.0,3.3406,3.3677,3.4032,3.4506,3.5554,3.6468,3.7195,3.7195,3.7195,3.7229,3.7702,3.7635,3.7246,3.7719,3.8075,3.8362,3.8819,3.9157,3.9462,3.9943,4.0096,4.0096,4.8237,4.8955,4.9598,0.0,5.0764,0.0,5.1214,5.1184,5.0868,5.0211,4.9613,4.8985,4.8222,4.701,4.5978,4.5289,0.0,0.0,0.0,4.329,4.3045,4.2425,4.1767,4.107,4.0412,3.9035,3.7973,3.7285,3.54,3.4503,3.4474,3.3185,3.2527,3.2452,3.1854,3.1555,3.1539,3.1727,3.1813,3.1841,3.2094,3.2219,3.2219,3.2342,3.2398,3.2398,3.2444,3.2875,3.3306,3.2736,3.3457,3.4443,3.3706,3.3506,3.3398,3.2675,3.1982,3.147,3.1424,3.0982,3.0509,3.0371,2.9848,2.9387,2.9387,2.9433,2.9827,3.1059,3.1378,3.1424,3.147,3.1459,3.1259,3.0632,2.9971,2.9535,2.9514,0.0,0.0,0.0,0.0,0.0,0.0,2.9614,3.0341,0.0,0.0,0.0,0.0,0.0,3.2785,3.2757,3.3211,3.3491,3.3491,3.4252,3.4675,3.4742,3.6203,3.7246,3.799,3.799,3.799,3.799,3.799,3.7956,3.7905,3.7973,3.8379,3.9005,3.9056,3.9503,4.0096,4.0096,4.0096,4.0096,0.0,0.0,5.081,5.096,5.1063,5.1214,5.1214,5.0749,5.0181,4.9583,4.8925,4.8072,4.692,4.6037,4.5274,4.4601,4.4407,4.4032,4.3334,4.329,4.3045,4.2425,4.1767,4.107,4.0412,3.8586,3.709,3.5953,3.4966,3.4503,3.4488,3.3649,3.2991,3.2497,3.2318,3.2062,3.1727,3.1784,3.1912,3.2122,3.2163,3.2274,3.2342,3.2398,3.2398,3.2459,3.2982,3.3275,3.346,3.3889,3.4566,3.5152,3.4474,3.4597,3.4752,3.3521,3.269,3.2044,3.1547,3.1659,3.1567,3.0027,2.951,2.9387,2.9387,2.9787,3.0248,3.0555,3.1043,3.1551,3.2059,3.2151,3.2105,3.1951,3.1351,3.0876,3.0729,3.0027,0.0,0.0,3.0451,3.0893,3.0794,3.1588,3.2346,0.0,0.0,0.0,0.0,3.4802,3.4381,3.3275,3.3905,3.4235,3.4235,3.5594,3.6535,3.711,3.7466,3.8024,3.8734,3.8734,3.8734,3.8734,3.8734,3.8413,3.7939,3.8514,3.8836,3.9056,3.9622,3.996,4.0096,4.0096,4.0096,4.0096,4.9254,5.0077,5.0823,5.1169,5.1214,5.1124,5.0764,5.042,4.9852,4.894,4.8506,4.7893,4.689,4.5888,4.5155,4.4796,4.4212,4.3678,4.3319,4.329,4.3045,4.2425,4.1767,4.107,4.0412,3.9035,3.7689,3.6372,3.5714,3.5267,3.4936,3.4262,3.3754,3.3395,3.3201,3.2765,3.2236,3.2684,3.2796,3.268,3.3087,3.3295,3.3365,3.3365,3.3365,3.3426,3.3752,3.4091,3.4368,3.4474,3.5152,3.583,3.5183,3.5213,3.5337,3.4568,3.3875,3.3288,3.2934,3.2829,3.2444,3.0735,3.0551,3.0612,2.9986,2.9894,3.0109,3.0735,3.0905,3.1243,3.2213,3.2398,3.2398,3.2398,3.2028,3.1742,3.1606,3.0991,0.0,3.0724,3.1386,3.1918,3.2127,3.3072,3.3921,3.4565,3.4253,0.0,3.6056,3.6146,3.5774,3.4979,3.5673,3.6045,3.6045,3.6874,3.7669,3.8396,3.8396,3.8785,3.9503,3.9503,3.9503,3.9503,3.9503,3.9276,3.8937,3.9351,3.9503,3.9529,3.9943,4.0096,4.0096,4.0096,4.0096,4.0096,4.906,4.9643,5.0226,5.0825,5.0915,5.0735,5.0121,4.9971,4.9493,4.8431,4.8192,4.7878,4.7234,4.6037,4.5259,4.5155,4.4032,4.329,4.329,4.329,4.3045,4.2425,4.1767,4.107,4.0412,3.9649,3.8616,3.727,3.6746,3.6148,3.5489,3.4906,3.4608,3.4505,3.4014,3.3457,3.2988,3.3724,3.381,3.3456,3.42,3.4505,3.4505,3.4505,3.4505,3.452,3.4613,3.5028,3.5444,3.4967,3.5568,3.6384,3.5845,3.566,3.566,3.566,3.526,3.4736,3.4428,3.3721,3.2875,3.1921,3.1967,3.1951,3.0801,3.0186,3.0181,3.1332,3.1105,3.1032,3.2182,3.2398,3.2367,3.2259,3.219,3.2228,3.2289,0.0,3.1491,3.1673,3.2289,3.2942,3.3506,3.4615,3.5465,3.5915,3.5955,3.6265,3.6948,3.7083,3.7134,3.7134,3.7736,3.8125,3.8227,3.8227,3.8548,3.9157,3.9157,3.9503,4.0096,4.0096,4.0096,4.0096,3.9994,3.9943,3.9943,3.9943,3.9943,3.996,4.0062,4.0096,4.0096,4.0096,4.0096,4.0096,4.8416,4.9015,4.9449,4.9599,4.9614,4.9538,4.9479,4.8955,4.8506,4.8312,4.7803,4.7204,4.6546,4.5768,4.5065,4.4511,4.3738,4.329,4.329,4.329,4.3045,4.2425,4.1767,4.107,4.0412,3.9185,3.7928,3.6626,3.6537,3.6148,3.5504,3.5385,3.509,3.4647,3.4015,3.3819,3.3951,3.3522,3.3715,3.4321,3.4459,3.4505,3.4505,3.4505,3.4505,3.4582,3.5152,3.5429,3.5553,3.6014,3.6322,3.6476,3.6368,3.6338,3.6338,3.6338,3.6261,3.5799,3.4044,3.2659,3.1921,3.2859,3.2305,3.1516,3.1289,3.1597,3.1982,3.2198,3.2151,3.2151,3.2351,3.2398,3.2198,3.1643,3.1878,3.2273,3.2747,0.0,3.3669,3.4768,3.5593,3.6323,3.705,3.7297,3.7438,3.7527,3.755,3.7601,3.7719,3.8311,3.865,3.865,3.8768,3.9123,3.9757,3.9757,3.9825,3.9943,3.9943,3.9994,4.0096,4.0096,4.0096,4.0079,3.9453,3.9157,3.9157,3.9157,3.9157,3.9225,3.9859,4.0096,4.0096,4.0096,4.0096,4.0096,4.8282,4.8865,4.9314,4.9314,4.9314,4.9194,4.8835,4.8476,4.8162,4.7803,4.7489,4.7055,4.6354,4.5708,4.5035,4.4377,4.3678,4.329,4.329,4.329,4.3045,4.2425,4.1767,4.0905,3.9888,3.926,3.8302,3.6985,3.6985,3.6477,3.5504,3.5504,3.5407,3.522,3.5013,3.4866,3.4743,3.4895,3.4985,3.5075,3.5414,3.5598,3.5598,3.5598,3.5598,3.5629,3.5953,3.603,3.6076,3.6384,3.6492,3.6492,3.6492,3.6492,3.6492,3.6492,3.6492,3.6122,3.4445,3.3783,3.3503,3.2982,3.2659,3.2382,3.2013,3.2167,3.249,3.2859,3.2936,3.2936,3.2936,3.2936,3.2844,3.2521,3.2596,0.0,0.0,3.4562,3.5278,3.6151,3.6924,3.7533,3.7872,3.7905,3.7905,3.7905,3.7905,3.8075,3.8464,3.8819,3.9174,3.9588,3.9605,3.9757,4.0096,4.0096,4.0096,4.0096,4.0096,4.0096,4.0096,4.0096,4.0096,4.0079,3.974,3.9605,3.9605,3.9605,3.9605,3.9639,3.9977,4.0096,4.0096,4.0096,4.0096,4.0096,4.8057,4.8461,4.8865,4.8865,4.8865,4.8641,4.8132,4.8057,4.7878,4.7369,4.7174,4.689,4.6381,4.5574,4.487,4.4362,4.3678,4.329,4.329,4.329,4.297,4.2216,4.1392,4.0442,3.9403,3.9388,3.8826,3.7644,3.7479,3.6836,3.5729,3.5579,3.5604,3.5784,3.5775,3.5658,3.5523,3.6061,3.6045,3.5753,3.6107,3.6261,3.6261,3.6261,3.6261,3.6276,3.643,3.6492,3.6492,3.6492,3.6492,3.6492,3.6492,3.6492,3.6492,3.6492,3.6384,3.5999,3.4828,3.4643,3.4383,3.2798,3.2782,3.3029,3.2505,3.2644,3.3029,3.3537,3.3783,3.3829,3.3675,3.3759,3.3748,3.3395,0.0,0.0,0.0,3.5762,3.6473,3.7222,3.7804,3.8227,3.8396,3.8413,3.8413,3.8413,3.8413,3.865,3.9249,3.9242,3.9537,4.0079,4.0096,4.0096,4.0096,4.0096,4.0096,4.0096,4.0096,4.0096,4.0096,4.0096,4.0096,4.0096,4.0096,4.0096,4.0096,4.0096,4.0096,4.0096,4.0096,4.0096,4.0096,4.0096,4.0096,4.0096,4.7369,4.7414,4.7459,4.7459,4.7459,4.7429,4.7384,4.7369,4.7354,4.7309,4.677,4.6324,4.6337,4.517,4.4362,4.4317,4.3678,4.329,4.329,4.329,4.2776,4.1504,4.0247,3.9514,3.9388,3.9388,3.9065,3.8317,3.7704,3.7075,3.6402,3.5789,3.5683,3.5943,3.5321,3.5553,3.6384,3.5799,3.5891,3.6368,3.5784,3.5553,3.5553,3.5553,3.5553,3.5675,3.6261,3.6492,3.6492,3.6492,3.6492,3.6492,3.6492,3.6492,3.6492,3.6492,3.6045,3.5429,3.4705,3.3596,3.2582,3.2428,3.2428,3.2459,3.2398,3.3426,3.4366,3.4412,3.4921,3.5167,3.4536,3.4888,3.4798,3.3429,0.0,0.0,3.5918,3.6386,3.7256,3.8667,3.8886,3.9174,3.9876,3.9943,3.9943,3.9943,3.9943,3.996,4.0028,4.0028,4.0045,4.0096,4.0096,4.0096,4.0096,4.0096,4.0096,4.0096,4.0096,4.0096,4.0096,4.0096,4.0096,4.0096,4.0096,4.0096,4.0096,4.0096,4.0096,4.0096,4.0096,4.0096,4.0096,4.0096,4.0096,4.0096,4.7309,4.7309,4.7309,4.7309,4.7309,4.7309,4.7309,4.7309,4.716,4.6756,4.6444,4.5965,4.517,4.4631,4.4152,4.3708,4.3439,4.329,4.329,4.329,4.2746,4.1482,4.0127,3.9388,3.9388,3.9388,3.908,3.8392,3.7734,3.709,3.651,3.5904,3.575,3.599,3.5826,3.6013,3.6476,3.6215,3.6261,3.6476,3.6215,3.6107,3.6107,3.6107,3.6107,3.6138,3.6399,3.6492,3.6492,3.6492,3.6215,3.5891,3.5891,3.5584,3.5275,3.5275,3.509,3.4736,3.3998,3.3429,3.2921,3.249,3.2398,3.2613,3.3519,3.412,3.4751,3.5553,3.5922,3.5937,3.526,3.562,3.5834,3.528,0.0,3.645,3.7193,3.7911,3.8346,3.8314,3.9529,4.0121,3.9462,3.9842,4.0096,4.0096,4.0096,4.0096,4.0096,4.0096,4.0316,4.0764,4.035,4.0096,4.0096,4.0096,4.0333,4.0781,4.0333,4.0587,4.1467,4.0984,4.1018,4.145,4.0967,4.0781,4.0747,4.0299,4.0096,4.0096,4.0096,4.0383,4.073,4.0282,4.04,4.0713,4.7309,4.7309,4.7309,4.7309,4.7309,4.7234,4.7025,4.7174,4.6995,4.6112,4.6007,4.5574,4.4436,4.4122,4.3783,4.3334,4.329,4.329,4.329,4.2955,4.2312,4.1452,4.0127,3.9388,3.9388,3.9388,3.9185,3.8706,3.8033,3.7389,3.6761,3.6205,3.5978,3.6005,3.61,3.6289,3.6492,3.6492,3.6492,3.6476,3.6261,3.6184,3.6184,3.6184,3.6184,3.6199,3.6415,3.6492,3.6492,3.6492,3.6184,3.5799,3.5583,3.5044,3.4582,3.5013,3.4982,3.4767,3.4445,3.4214,3.3783,3.2675,3.2398,3.2752,3.4181,3.4659,3.5198,3.6538,3.6984,3.6984,3.6522,3.7115,3.7581,3.7329,3.779,3.8381,3.8994,3.9356,3.9385,3.8989,3.9868,4.0206,3.9436,3.9808,4.0096,4.0096,4.0096,4.0197,4.0434,4.0671,4.1018,4.1525,4.1035,4.0807,4.0807,4.0333,4.0367,4.0849,4.0561,4.0993,4.1948,4.1677,4.1813,4.2252,4.1525,4.1339,4.1491,4.073,4.0587,4.0807,4.0807,4.1085,4.1474,4.0993,4.1102,4.1474,4.7309,4.7309,4.7309,4.7309,4.7309,4.707,4.6384,4.6875,4.6815,4.5469,4.5289,4.5035,4.4392,4.3678,4.329,4.329,4.329,4.329,4.329,4.2117,4.1422,4.1422,4.0127,3.9388,3.9388,3.9388,3.9388,3.9388,3.8736,3.8063,3.7404,3.6776,3.6315,3.602,3.6005,3.6195,3.6492,3.6492,3.6492,3.643,3.5799,3.5521,3.5521,3.5521,3.5521,3.5584,3.6245,3.6492,3.6492,3.6492,3.6492,3.6368,3.5722,3.5044,3.4767,3.6091,3.603,3.563,3.6292,3.5984,3.5013,3.2921,3.2413,3.2782,3.4212,3.5044,3.5907,3.7246,3.8046,3.8508,3.8508,3.9549,4.0159,3.9447,4.099,4.2033,4.1322,4.0569,4.0383,4.1119,3.9901,3.9292,4.0045,4.0113,4.013,4.013,4.013,4.0426,4.1187,4.1914,4.2286,4.2303,4.2286,4.2286,4.2286,4.0857,4.013,4.013,4.0849,4.1221,4.1255,4.1965,4.2303,4.2269,4.1542,4.1627,4.2236,4.1508,4.1644,4.2286,4.2286,4.2286,4.2303,4.2286,4.2286,4.2303,4.7908,4.7623,4.7309,4.7309,4.692,4.6546,4.6309,4.6082,4.5753,4.5349,4.4885,4.4526,4.4332,4.3678,4.329,4.329,4.329,4.329,4.329,4.2536,4.1901,4.1399,4.0127,3.9388,3.9388,3.9388,3.9388,3.9388,3.8736,3.8287,3.8078,3.7221,3.6816,3.6687,3.6455,3.6398,3.6492,3.6492,3.6492,3.6476,3.6276,3.6184,3.6184,3.6184,3.6184,3.6215,3.6415,3.6492,3.6492,3.6492,3.6184,3.566,3.5013,3.4998,3.5198,3.5121,3.5306,3.5444,3.5183,3.4951,3.4659,3.4043,3.4243,3.4922,3.6276,3.7126,3.7994,3.9313,3.977,3.9887,3.9887,4.0564,4.1021,4.0807,4.1615,4.2219,4.1999,4.1779,4.1525,4.1238,4.1271,4.1187,4.0899,4.1339,4.1653,4.1653,4.1653,4.1965,4.2682,4.2455,4.254,4.3064,4.2574,4.2286,4.2286,4.1847,4.1897,4.2422,4.2117,4.2523,4.3555,4.3234,4.3386,4.3887,4.3081,4.2878,4.3031,4.2286,4.21,4.2286,4.2286,4.2625,4.3014,4.2489,4.2625,4.3014,4.7773,4.7369,4.692,4.692,4.6367,4.5828,4.5574,4.5394,4.511,4.4586,4.4407,4.4212,4.3917,4.3529,4.329,4.329,4.329,4.329,4.329,4.2731,4.2111,4.1452,4.0367,3.9694,3.9424,3.9388,3.9388,3.9388,3.899,3.8661,3.8377,3.7888,3.7558,3.74,3.7267,3.7075,3.6892,3.6892,3.6738,3.6492,3.6492,3.6492,3.6522,3.6784,3.6892,3.6892,3.6892,3.7061,3.7215,3.6676,3.5891,3.509,3.4951,3.4797,3.4737,3.5183,3.5598,3.5845,3.5707,3.5706,3.5706,3.5706,3.5598,3.583,3.7184,3.8027,3.8968,4.0544,4.0896,4.0966,4.1241,4.1825,4.2249,4.2249,4.2791,4.3227,4.3227,4.2675,4.2236,4.21,4.1948,4.1796,4.1644,4.2033,4.2286,4.2286,4.2574,4.2929,4.3375,4.3284,4.3403,4.3859,4.3436,4.3227,4.3227,4.3227,4.3115,4.2963,4.2811,4.3217,4.4113,4.3944,4.413,4.4564,4.3758,4.3589,4.3826,4.3047,4.2912,4.3227,4.3227,4.347,4.3826,4.3369,4.3487,4.3809,4.7085,4.6681,4.619,4.619,4.5663,4.5005,4.4407,4.4766,4.4706,4.3529,4.3858,4.4018,4.3439,4.3334,4.329,4.329,4.329,4.329,4.329,4.2776,4.2186,4.1542,4.0846,4.0187,3.9514,3.9454,3.9388,3.9388,3.9388,3.9095,3.8482,3.8647,3.8489,3.8098,3.8256,3.8054,3.7584,3.7584,3.723,3.6676,3.6676,3.663,3.6645,3.7261,3.7507,3.7507,3.7507,3.7938,3.8323,3.7092,3.5845,3.4874,3.5506,3.4783,3.4121,3.5953,3.6492,3.6661,3.7294,3.7431,3.743,3.754,3.6723,3.6168,3.74,3.8297,3.9363,4.1191,4.1673,4.1965,4.2583,4.3196,4.3617,4.3617,4.4179,4.4581,4.4513,4.3267,4.2642,4.3308,4.2219,4.1694,4.2422,4.2506,4.2506,4.2506,4.3132,4.3521,4.3521,4.4198,4.4615,4.4615,4.4615,4.4615,4.4615,4.4615,4.3904,4.2506,4.32,4.3521,4.3511,4.4265,4.4615,4.4564,4.3826,4.3927,4.4547,4.3809,4.3944,4.4615,4.4615,4.4615,4.4615,4.4615,4.4615,4.4615,4.6411,4.5992,4.5529,4.5529,4.496,4.4481,4.4332,4.4003,4.3838,4.4062,4.3738,4.3648,4.4062,4.3604,4.329,4.329,4.329,4.329,4.329,4.317,4.2836,4.2216,4.1557,4.0861,4.0202,3.9679,3.9388,3.9388,3.9388,3.9349,3.9185,3.9028,3.8899,3.8766,3.8555,3.8398,3.8292,3.8292,3.82,3.8077,3.8077,3.7754,3.7292,3.7446,3.7507,3.7507,3.7507,3.7938,3.8462,3.8169,3.7523,3.6876,3.7015,3.6861,3.6599,3.6507,3.6492,3.6631,3.7246,3.7094,3.6955,3.7966,3.84,3.8723,3.9016,4.0399,4.1741,4.2204,4.3169,4.396,4.4121,4.4253,4.4367,4.4367,4.4514,4.4395,4.3758,4.3386,4.3206,4.3375,4.3105,4.3234,4.4039,4.4107,4.4107,4.4107,4.4259,4.4333,4.4333,4.4513,4.4615,4.4615,4.4615,4.4615,4.4615,4.4615,4.4445,4.4107,4.4276,4.4333,4.4361,4.453,4.4615,4.4598,4.4429,4.4445,4.4598,4.4401,4.4445,4.4615,4.4615,4.4615,4.4615,4.4615,4.4615,4.4615,4.5693,4.5289,4.4825,4.4825,4.4541,4.4212,4.3858,4.4092,4.4167,4.3843,4.3783,4.3768,4.3798,4.3499,4.329,4.329,4.329,4.329,4.329,4.329,4.3045,4.2425,4.2066,4.1572,4.0876,4.0232,3.9738,3.9388,3.9388,3.9388,3.9409,3.9456,3.948,3.9464,3.9477,3.9293,3.8985,3.8985,3.88,3.8508,3.8508,3.8292,3.8015,3.8338,3.8262,3.8031,3.8354,3.8477,3.8554,3.8893,3.8123,3.7138,3.7784,3.7529,3.697,3.697,3.694,3.7013,3.7328,3.7414,3.7747,3.9031,4.0166,4.0907,4.0562,4.1844,4.3266,4.3938,4.4666,4.5282,4.5607,4.5664,4.5664,4.5664,4.5664,4.5246,4.413,4.4282,4.4204,4.3477,4.3741,4.413,4.4564,4.4615,4.475,4.5094,4.5111,4.5263,4.5647,4.5314,4.5111,4.5111,4.4801,4.4784,4.5111,4.5111,4.5297,4.5618,4.4953,4.4615,4.4615,4.4615,4.4615,4.4615,4.4615,4.4615,4.4615,4.4615,4.4615,4.4615,4.4615,4.4615,4.4615,4.4615,4.4615,4.4615,4.502,4.4601,4.4152,4.4152,4.4152,4.3958,4.3379,4.4257,4.4571,4.3439,4.3768,4.3943,4.3349,4.329,4.329,4.329,4.329,4.329,4.329,4.329,4.309,4.259,4.247,4.2141,4.1602,4.0786,4.0127,3.9553,3.9469,3.9388,3.9424,3.9783,3.996,3.996,4.0296,4.0148,3.9625,3.9659,3.9336,3.8846,3.8846,3.8785,3.8739,3.9308,3.917,3.8754,3.929,3.9154,3.8785,3.9428,3.8415,3.703,3.8154,3.7686,3.6855,3.7359,3.7451,3.7447,3.7666,3.8195,3.9025,4.0404,4.1851,4.2893,4.2574,4.3323,4.4359,4.5417,4.581,4.6135,4.6697,4.6786,4.6786,4.6786,4.6786,4.6312,4.4987,4.5415,4.5382,4.395,4.4485,4.4987,4.4987,4.4987,4.5241,4.5838,4.5889,4.616,4.6752,4.621,4.5889,4.5889,4.528,4.5263,4.5889,4.5889,4.6194,4.6786,4.5579,4.4987,4.4987,4.4987,4.4919,4.4801,4.4801,4.4733,4.4615,4.4615,4.4615,4.4615,4.4615,4.4615,4.4615,4.4615,4.4615,4.4615,4.4421,4.3888,4.3424,4.3424,4.3424,4.3394,4.3305,4.3439,4.3499,4.3319,4.3364,4.3394,4.3305,4.329,4.329,4.329,4.329,4.329,4.329,4.329,4.3245,4.317,4.2671,4.2366,4.2276,4.1025,4.0352,4.0262,3.9694,3.9388,3.9409,3.9625,3.9732,3.9768,4.0156,4.0285,4.0209,4.0332,4.0305,4.0213,4.0213,3.9874,3.9351,3.9493,3.9428,3.94,3.9493,3.9428,3.9493,4.0136,3.9398,3.8262,3.8446,3.834,3.8036,3.755,3.7407,3.7637,3.8673,3.9179,3.9875,4.1664,4.3333,4.4789,4.5926,4.584,4.5385,4.4935,4.5825,4.6697,4.6786,4.6786,4.6786,4.6786,4.6786,4.6498,4.5669,4.6194,4.6346,4.55,4.6041,4.6481,4.6481,4.6481,4.6532,4.6633,4.665,4.6684,4.6786,4.6701,4.665,4.665,4.6549,4.6532,4.665,4.665,4.6701,4.6786,4.6583,4.6481,4.6481,4.6481,4.6143,4.5551,4.5551,4.5179,4.4615,4.4615,4.4615,4.4615,4.4615,4.4615,4.4615,4.4615,4.4615,4.4615,4.4392,4.4077,4.3723,4.3364,4.3604,4.3843,4.3843,4.4197,4.4302,4.3888,4.3843,4.3708,4.3334,4.329,4.329,4.329,4.329,4.329,4.329,4.329,4.329,4.329,4.3045,4.2895,4.2895,4.1983,4.1527,4.1527,4.0113,3.9388,3.9409,3.9625,3.9681,3.9732,4.0121,4.0312,4.0312,4.0436,4.0489,4.0489,4.0489,4.032,4.0043,4.0043,3.9813,3.949,3.949,3.9721,4.009,4.0397,3.9844,3.9144,3.946,3.9266,3.883,3.8555,3.8447,3.8697,4.0045,4.082,4.1703,4.3726,4.5396,4.6591,4.6783,4.7237,4.7496,4.718,4.7589,4.8037,4.8037,4.8037,4.8037,4.8037,4.8037,4.7631,4.6481,4.6955,4.7141,4.6397,4.6599,4.6786,4.6786,4.6786,4.6972,4.7394,4.7411,4.7597,4.8003,4.7648,4.7411,4.7411,4.7005,4.7005,4.7411,4.7411,4.7614,4.8037,4.8037,4.7597,4.6786,4.6786,4.6616,4.6312,4.6312,4.5889,4.5213,4.5213,4.4959,4.4615,4.4615,4.4615,4.4615,4.4615,4.4615,4.4615]}]]